| time (UTC) | temp C | wind direction | speed KPH | gust KPH | rain 1hr cm | rain 24hr cm | rain mn cm | humidity % | barometer mb |
| 20260508125847 | 12 | 14 | 0.0 | 0.0 | 0.00 | 1.24 | 0.00 | 89 | 1019.5 |
| 20260508125746 | 12 | 5 | 0.0 | 0.0 | 0.00 | 1.24 | 0.00 | 89 | 1019.5 |
| 20260508125706 | 12 | 5 | 0.0 | 0.0 | 0.00 | 1.24 | 0.00 | 90 | 1019.5 |
| 20260508125542 | 12 | 5 | 0.0 | 0.0 | 0.00 | 1.24 | 0.00 | 90 | 1019.5 |
| 20260508125445 | 12 | 5 | 0.0 | 0.0 | 0.00 | 1.24 | 0.00 | 91 | 1019.5 |
| 20260508125342 | 12 | 360 | 0.0 | 0.0 | 0.00 | 1.24 | 0.00 | 91 | 1019.4 |
| 20260508125256 | 12 | 360 | 0.0 | 0.0 | 0.00 | 1.24 | 0.00 | 91 | 1019.4 |
| 20260508125155 | 12 | 5 | 0.0 | 0.0 | 0.00 | 1.24 | 0.00 | 92 | 1019.5 |
| 20260508125053 | 12 | 5 | 0.0 | 0.0 | 0.00 | 1.24 | 0.00 | 92 | 1019.5 |
| 20260508124952 | 12 | 360 | 0.0 | 0.0 | 0.00 | 1.24 | 0.00 | 93 | 1019.4 |
| 20260508124850 | 12 | 355 | 0.0 | 0.0 | 0.00 | 1.24 | 0.00 | 92 | 1019.4 |
| 20260508124751 | 12 | 5 | 0.0 | 0.0 | 0.00 | 1.24 | 0.00 | 92 | 1019.4 |
| 20260508124651 | 12 | 5 | 0.0 | 0.0 | 0.00 | 1.24 | 0.00 | 93 | 1019.4 |
| 20260508124602 | 11 | 360 | 0.0 | 0.0 | 0.00 | 1.24 | 0.00 | 93 | 1019.1 |
| 20260508124544 | 12 | 360 | 0.0 | 0.0 | 0.00 | 1.24 | 0.00 | 93 | 1019.4 |
| 20260508124504 | 11 | 360 | 0.0 | 0.0 | 0.00 | 1.24 | 0.00 | 93 | 1019.4 |
| 20260508124340 | 11 | 9 | 0.0 | 0.0 | 0.00 | 1.24 | 0.00 | 93 | 1019.4 |
| 20260508124300 | 11 | 9 | 0.0 | 0.0 | 0.00 | 1.24 | 0.00 | 94 | 1019.4 |
| 20260508124156 | 11 | 355 | 0.0 | 0.0 | 0.00 | 1.24 | 0.00 | 95 | 1019.4 |
| 20260508124040 | 11 | 350 | 0.0 | 0.0 | 0.00 | 1.24 | 0.00 | 95 | 1019.4 |
| 20260508124000 | 11 | 346 | 0.0 | 0.0 | 0.00 | 1.24 | 0.00 | 95 | 1019.4 |
| 20260508123853 | 11 | 46 | 0.0 | 0.0 | 0.00 | 1.24 | 0.00 | 95 | 1019.4 |
| 20260508123752 | 11 | 49 | 0.0 | 0.0 | 0.00 | 1.24 | 0.00 | 95 | 1019.3 |
| 20260508123652 | 11 | 49 | 0.0 | 0.0 | 0.00 | 1.24 | 0.00 | 95 | 1019.3 |
| 20260508123551 | 11 | 51 | 0.0 | 0.0 | 0.00 | 1.24 | 0.00 | 95 | 1019.3 |
| 20260508123508 | 11 | 321 | 0.0 | 0.0 | 0.00 | 1.24 | 0.00 | 95 | 1019.4 |
| 20260508123403 | 11 | 320 | 0.0 | 0.0 | 0.00 | 1.24 | 0.00 | 95 | 1019.3 |
| 20260508123258 | 11 | 320 | 0.0 | 0.0 | 0.00 | 1.24 | 0.00 | 96 | 1019.3 |
| 20260508123221 | 11 | 317 | 0.0 | 0.0 | 0.00 | 1.24 | 0.00 | 96 | 1019.3 |
| 20260508123118 | 11 | 317 | 0.0 | 0.0 | 0.00 | 1.24 | 0.00 | 96 | 1019.3 |
| 20260508123029 | 11 | 317 | 0.0 | 0.0 | 0.00 | 1.24 | 0.00 | 96 | 1019.1 |
| 20260508122954 | 11 | 317 | 0.0 | 0.0 | 0.00 | 1.24 | 0.00 | 96 | 1019.4 |
| 20260508122853 | 11 | 317 | 0.0 | 0.0 | 0.00 | 1.24 | 0.00 | 96 | 1019.3 |
| 20260508122813 | 11 | 317 | 0.0 | 0.0 | 0.00 | 1.24 | 0.00 | 96 | 1019.3 |
| 20260508122651 | 11 | 315 | 0.0 | 0.0 | 0.00 | 1.24 | 0.00 | 96 | 1019.4 |
| 20260508122610 | 11 | 325 | 0.0 | 0.0 | 0.00 | 1.24 | 0.00 | 96 | 1019.4 |
| 20260508122448 | 11 | 325 | 0.0 | 0.0 | 0.00 | 1.24 | 0.00 | 96 | 1019.4 |
| 20260508122348 | 11 | 325 | 0.0 | 0.0 | 0.00 | 1.24 | 0.00 | 96 | 1019.4 |
| 20260508122250 | 11 | 325 | 0.0 | 0.0 | 0.00 | 1.24 | 0.00 | 96 | 1019.4 |
| 20260508122151 | 11 | 325 | 0.0 | 0.0 | 0.00 | 1.24 | 0.00 | 96 | 1019.4 |
| 20260508122051 | 10 | 325 | 0.0 | 0.0 | 0.00 | 1.24 | 0.00 | 96 | 1019.4 |
| 20260508121951 | 10 | 325 | 0.0 | 0.0 | 0.00 | 1.24 | 0.00 | 96 | 1019.3 |
| 20260508121852 | 10 | 325 | 0.0 | 0.0 | 0.00 | 1.35 | 0.00 | 96 | 1019.3 |
| 20260508121750 | 10 | 325 | 0.0 | 0.0 | 0.00 | 1.35 | 0.00 | 96 | 1019.3 |
| 20260508121650 | 10 | 325 | 0.0 | 0.0 | 0.00 | 1.35 | 0.00 | 96 | 1019.3 |
| 20260508121549 | 10 | 325 | 0.0 | 0.0 | 0.00 | 1.35 | 0.00 | 96 | 1019.3 |
| 20260508121518 | 10 | 325 | 0.0 | 0.0 | 0.00 | 1.35 | 0.00 | 96 | 1019.1 |
| 20260508121450 | 10 | 325 | 0.0 | 0.0 | 0.00 | 1.35 | 0.00 | 96 | 1019.3 |
| 20260508121349 | 10 | 325 | 0.0 | 0.0 | 0.00 | 1.35 | 0.00 | 96 | 1019.3 |
| 20260508121309 | 10 | 325 | 0.0 | 0.0 | 0.00 | 1.35 | 0.00 | 96 | 1019.3 |
| 20260508121147 | 10 | 325 | 0.0 | 0.0 | 0.00 | 1.35 | 0.00 | 97 | 1019.3 |
| 20260508121047 | 10 | 325 | 0.0 | 0.0 | 0.00 | 1.35 | 0.00 | 97 | 1019.2 |
| 20260508121006 | 10 | 325 | 0.0 | 0.0 | 0.00 | 1.35 | 0.00 | 97 | 1019.3 |
| 20260508120848 | 10 | 325 | 0.0 | 0.0 | 0.00 | 1.35 | 0.00 | 97 | 1019.2 |
| 20260508120747 | 10 | 325 | 0.0 | 0.0 | 0.00 | 1.35 | 0.00 | 97 | 1019.2 |
| 20260508120648 | 10 | 325 | 0.0 | 0.0 | 0.00 | 1.35 | 0.00 | 97 | 1019.2 |
| 20260508120547 | 10 | 325 | 0.0 | 0.0 | 0.00 | 1.35 | 0.00 | 97 | 1019.3 |
| 20260508120508 | 10 | 325 | 0.0 | 0.0 | 0.00 | 1.35 | 0.00 | 97 | 1019.2 |
| 20260508120345 | 10 | 22 | 0.0 | 0.0 | 0.00 | 1.35 | 0.00 | 97 | 1019.1 |
| 20260508120243 | 10 | 82 | 0.0 | 0.0 | 0.00 | 1.35 | 0.00 | 97 | 1019.1 |
| 20260508120215 | 10 | 82 | 0.0 | 0.0 | 0.00 | 1.35 | 0.00 | 97 | 1019.1 |
| 20260508120006 | 9 | 84 | 0.0 | 0.0 | 0.00 | 1.35 | 0.00 | 97 | 1018.9 |
| 20260508115941 | 10 | 93 | 0.0 | 0.0 | 0.00 | 1.35 | 0.00 | 97 | 1019.1 |
| 20260508115900 | 10 | 93 | 0.0 | 0.0 | 0.00 | 1.35 | 0.00 | 97 | 1019.1 |
| 20260508115759 | 10 | 94 | 0.0 | 0.0 | 0.00 | 1.35 | 0.00 | 97 | 1019.0 |
| 20260508115700 | 10 | 94 | 0.0 | 0.0 | 0.00 | 1.35 | 0.00 | 97 | 1019.1 |
| 20260508115621 | 10 | 98 | 0.0 | 0.0 | 0.00 | 1.35 | 0.00 | 97 | 1019.0 |
| 20260508115444 | 9 | 99 | 0.0 | 0.0 | 0.00 | 1.35 | 0.00 | 97 | 1019.0 |
| 20260508115346 | 9 | 101 | 0.0 | 0.0 | 0.00 | 1.35 | 0.00 | 97 | 1019.0 |
| 20260508115243 | 9 | 101 | 0.0 | 0.0 | 0.00 | 1.35 | 0.00 | 97 | 1019.0 |
| 20260508115144 | 9 | 102 | 0.0 | 0.0 | 0.00 | 1.35 | 0.00 | 97 | 1019.0 |
| 20260508115044 | 9 | 5 | 0.0 | 0.0 | 0.00 | 1.35 | 0.00 | 97 | 1018.9 |
| 20260508114944 | 9 | 327 | 0.0 | 0.0 | 0.00 | 1.35 | 0.00 | 97 | 1018.9 |
| 20260508114844 | 9 | 313 | 0.0 | 0.0 | 0.00 | 1.35 | 0.00 | 97 | 1019.0 |
| 20260508114748 | 9 | 313 | 0.0 | 0.0 | 0.00 | 1.35 | 0.00 | 97 | 1018.8 |
| 20260508114707 | 9 | 313 | 0.0 | 0.0 | 0.00 | 1.35 | 0.00 | 97 | 1018.8 |
| 20260508114634 | 8 | 313 | 0.0 | 0.0 | 0.00 | 1.35 | 0.00 | 97 | 1018.5 |
| 20260508114545 | 9 | 313 | 0.0 | 0.0 | 0.00 | 1.35 | 0.00 | 97 | 1018.7 |
| 20260508114443 | 8 | 313 | 0.0 | 0.0 | 0.00 | 1.35 | 0.00 | 97 | 1018.8 |
| 20260508114342 | 8 | 313 | 0.0 | 0.0 | 0.00 | 1.35 | 0.00 | 97 | 1018.8 |
| 20260508114242 | 8 | 313 | 0.0 | 0.0 | 0.00 | 1.35 | 0.00 | 97 | 1018.7 |
| 20260508114200 | 8 | 313 | 0.0 | 0.0 | 0.00 | 1.35 | 0.00 | 97 | 1018.7 |
| 20260508114039 | 8 | 313 | 0.0 | 0.0 | 0.00 | 1.35 | 0.00 | 97 | 1018.7 |
| 20260508113942 | 8 | 277 | 0.0 | 0.0 | 0.00 | 1.35 | 0.00 | 97 | 1018.7 |
| 20260508113840 | 8 | 277 | 0.0 | 0.0 | 0.00 | 1.35 | 0.00 | 97 | 1018.6 |
| 20260508113800 | 8 | 275 | 0.0 | 0.0 | 0.00 | 1.35 | 0.00 | 97 | 1018.7 |
| 20260508113639 | 8 | 269 | 0.0 | 0.0 | 0.00 | 1.35 | 0.00 | 97 | 1018.6 |
| 20260508113540 | 8 | 269 | 0.0 | 0.0 | 0.00 | 1.35 | 0.00 | 97 | 1018.6 |
| 20260508113439 | 8 | 266 | 0.0 | 0.0 | 0.00 | 1.35 | 0.00 | 97 | 1018.6 |
| 20260508113340 | 8 | 265 | 0.0 | 0.0 | 0.00 | 1.35 | 0.00 | 97 | 1018.6 |
| 20260508113244 | 8 | 265 | 0.0 | 0.0 | 0.00 | 1.35 | 0.00 | 97 | 1018.6 |
| 20260508113144 | 8 | 265 | 0.0 | 0.0 | 0.00 | 1.35 | 0.00 | 97 | 1018.6 |
| 20260508113045 | 8 | 265 | 0.0 | 0.0 | 0.00 | 1.35 | 0.00 | 97 | 1018.6 |
| 20260508113005 | 8 | 265 | 0.0 | 0.0 | 0.00 | 1.35 | 0.00 | 97 | 1018.3 |
| 20260508112946 | 8 | 265 | 0.0 | 0.0 | 0.00 | 1.35 | 0.00 | 97 | 1018.6 |
| 20260508112905 | 8 | 265 | 0.0 | 0.0 | 0.00 | 1.35 | 0.00 | 97 | 1018.6 |
| 20260508112744 | 8 | 265 | 0.0 | 0.0 | 0.00 | 1.35 | 0.00 | 97 | 1018.5 |
| 20260508112644 | 8 | 265 | 0.0 | 0.0 | 0.00 | 1.35 | 0.00 | 97 | 1018.6 |
| 20260508112548 | 8 | 265 | 0.0 | 0.0 | 0.00 | 1.35 | 0.00 | 97 | 1018.5 |
| 20260508112508 | 8 | 265 | 0.0 | 0.0 | 0.00 | 1.35 | 0.00 | 97 | 1018.5 |
| 20260508112406 | 8 | 265 | 0.0 | 0.0 | 0.00 | 1.35 | 0.00 | 96 | 1018.5 |
| 20260508112246 | 8 | 265 | 0.0 | 0.0 | 0.00 | 1.35 | 0.00 | 96 | 1018.5 |
| 20260508112145 | 8 | 265 | 0.0 | 0.0 | 0.00 | 1.35 | 0.00 | 96 | 1018.5 |
| 20260508112044 | 8 | 265 | 0.0 | 0.0 | 0.00 | 1.35 | 0.00 | 96 | 1018.5 |
| 20260508111943 | 8 | 265 | 0.0 | 0.0 | 0.00 | 1.35 | 0.00 | 96 | 1018.4 |
| 20260508111902 | 8 | 265 | 0.0 | 0.0 | 0.00 | 1.35 | 0.00 | 97 | 1018.4 |
| 20260508111743 | 8 | 265 | 0.0 | 0.0 | 0.00 | 1.35 | 0.00 | 96 | 1018.4 |
| 20260508111643 | 8 | 265 | 0.0 | 0.0 | 0.00 | 1.35 | 0.00 | 96 | 1018.4 |
| 20260508111603 | 8 | 265 | 0.0 | 0.0 | 0.00 | 1.35 | 0.00 | 96 | 1018.3 |
| 20260508111502 | 7 | 265 | 0.0 | 0.0 | 0.00 | 1.35 | 0.00 | 96 | 1018.1 |
| 20260508111443 | 8 | 265 | 0.0 | 0.0 | 0.00 | 1.35 | 0.00 | 96 | 1018.3 |
| 20260508111341 | 8 | 265 | 0.0 | 0.0 | 0.00 | 1.35 | 0.00 | 96 | 1018.3 |
| 20260508111302 | 8 | 265 | 0.0 | 0.0 | 0.00 | 1.35 | 0.00 | 96 | 1018.3 |
| 20260508111202 | 8 | 265 | 0.0 | 0.0 | 0.00 | 1.35 | 0.00 | 96 | 1018.3 |
| 20260508111100 | 7 | 265 | 0.0 | 0.0 | 0.00 | 1.35 | 0.00 | 96 | 1018.3 |
| 20260508111003 | 7 | 265 | 0.0 | 0.0 | 0.00 | 1.35 | 0.00 | 96 | 1018.3 |
| 20260508110842 | 7 | 265 | 0.0 | 0.0 | 0.00 | 1.35 | 0.00 | 96 | 1018.3 |
| 20260508110800 | 7 | 265 | 0.0 | 0.0 | 0.00 | 1.35 | 0.00 | 96 | 1018.3 |
| 20260508110721 | 7 | 265 | 0.0 | 0.0 | 0.00 | 1.35 | 0.00 | 96 | 1018.2 |
| 20260508110621 | 7 | 265 | 0.0 | 0.0 | 0.00 | 1.35 | 0.00 | 96 | 1018.3 |
| 20260508110520 | 7 | 265 | 0.0 | 0.0 | 0.00 | 1.35 | 0.00 | 96 | 1018.2 |
| 20260508110354 | 7 | 264 | 0.0 | 0.0 | 0.00 | 1.35 | 0.00 | 96 | 1018.2 |
| 20260508110258 | 7 | 322 | 0.0 | 0.0 | 0.00 | 1.35 | 0.00 | 96 | 1018.2 |
| 20260508110228 | 7 | 322 | 0.0 | 0.0 | 0.00 | 1.35 | 0.00 | 96 | 1018.2 |
| 20260508110008 | 7 | 322 | 0.0 | 0.0 | 0.00 | 1.35 | 0.00 | 96 | 1017.8 |
| 20260508105954 | 7 | 322 | 0.0 | 0.0 | 0.00 | 1.35 | 0.00 | 96 | 1018.1 |
| 20260508105854 | 7 | 322 | 0.0 | 0.0 | 0.00 | 1.35 | 0.00 | 96 | 1018.1 |
| 20260508105752 | 7 | 321 | 0.0 | 0.0 | 0.00 | 1.35 | 0.00 | 96 | 1018.1 |
| 20260508105651 | 8 | 321 | 0.0 | 0.0 | 0.00 | 1.35 | 0.00 | 96 | 1018.1 |
| 20260508105549 | 7 | 321 | 0.0 | 0.0 | 0.00 | 1.35 | 0.00 | 96 | 1018.1 |
| 20260508105512 | 8 | 321 | 0.0 | 0.0 | 0.00 | 1.35 | 0.00 | 96 | 1018.0 |
| 20260508105350 | 7 | 321 | 0.0 | 0.0 | 0.00 | 1.35 | 0.00 | 96 | 1018.0 |
| 20260508105250 | 8 | 321 | 0.0 | 0.0 | 0.00 | 1.35 | 0.00 | 96 | 1018.1 |
| 20260508105151 | 8 | 321 | 0.0 | 0.0 | 0.00 | 1.35 | 0.00 | 96 | 1018.0 |
| 20260508105111 | 8 | 344 | 0.0 | 0.0 | 0.00 | 1.35 | 0.00 | 96 | 1018.0 |
| 20260508104951 | 8 | 344 | 0.0 | 0.0 | 0.00 | 1.35 | 0.00 | 96 | 1017.9 |
| 20260508104852 | 8 | 344 | 0.0 | 0.0 | 0.00 | 1.35 | 0.00 | 96 | 1017.9 |
| 20260508104756 | 8 | 344 | 0.0 | 0.0 | 0.00 | 1.35 | 0.00 | 96 | 1017.9 |
| 20260508104657 | 8 | 344 | 0.0 | 0.0 | 0.00 | 1.35 | 0.00 | 96 | 1017.8 |
| 20260508104631 | 7 | 344 | 0.0 | 0.0 | 0.00 | 1.35 | 0.00 | 96 | 1017.5 |
| 20260508104556 | 8 | 344 | 0.0 | 0.0 | 0.00 | 1.35 | 0.00 | 96 | 1017.8 |
| 20260508104514 | 8 | 344 | 0.0 | 0.0 | 0.00 | 1.35 | 0.00 | 96 | 1017.7 |
| 20260508104351 | 8 | 344 | 0.0 | 0.0 | 0.00 | 1.35 | 0.00 | 96 | 1017.7 |
| 20260508104252 | 8 | 344 | 0.0 | 0.0 | 0.00 | 1.35 | 0.00 | 96 | 1017.6 |
| 20260508104213 | 8 | 344 | 0.0 | 0.0 | 0.00 | 1.35 | 0.00 | 96 | 1017.5 |
| 20260508104112 | 8 | 344 | 0.0 | 0.0 | 0.00 | 1.35 | 0.00 | 96 | 1017.5 |
| 20260508103956 | 8 | 344 | 0.0 | 0.0 | 0.00 | 1.35 | 0.00 | 96 | 1017.5 |
| 20260508103856 | 8 | 344 | 0.0 | 0.0 | 0.00 | 1.35 | 0.00 | 96 | 1017.7 |
| 20260508103757 | 8 | 344 | 0.0 | 0.0 | 0.00 | 1.35 | 0.00 | 96 | 1017.6 |
| 20260508103657 | 8 | 344 | 0.0 | 0.0 | 0.00 | 1.35 | 0.00 | 96 | 1017.6 |
| 20260508103559 | 8 | 344 | 0.0 | 0.0 | 0.00 | 1.35 | 0.00 | 96 | 1017.6 |
| 20260508103520 | 8 | 344 | 0.0 | 0.0 | 0.00 | 1.35 | 0.00 | 96 | 1017.6 |
| 20260508103418 | 8 | 344 | 0.0 | 0.0 | 0.00 | 1.35 | 0.00 | 96 | 1017.6 |
| 20260508103242 | 8 | 344 | 0.0 | 0.0 | 0.00 | 1.35 | 0.00 | 96 | 1017.5 |
| 20260508103141 | 8 | 344 | 0.0 | 0.0 | 0.00 | 1.35 | 0.00 | 96 | 1017.5 |
| 20260508103042 | 8 | 344 | 0.0 | 0.0 | 0.00 | 1.35 | 0.00 | 96 | 1017.5 |
| 20260508103027 | 7 | 344 | 0.0 | 0.0 | 0.00 | 1.35 | 0.00 | 96 | 1017.2 |
| 20260508103003 | 8 | 344 | 0.0 | 0.0 | 0.00 | 1.35 | 0.00 | 96 | 1017.5 |
| 20260508102858 | 8 | 344 | 0.0 | 0.0 | 0.00 | 1.35 | 0.00 | 96 | 1017.4 |
| 20260508102758 | 8 | 344 | 0.0 | 0.0 | 0.00 | 1.35 | 0.00 | 96 | 1017.4 |
| 20260508102716 | 8 | 349 | 0.0 | 0.0 | 0.00 | 1.35 | 0.00 | 96 | 1017.4 |
| 20260508102555 | 8 | 349 | 0.0 | 0.0 | 0.00 | 1.35 | 0.00 | 96 | 1017.4 |
| 20260508102500 | 8 | 349 | 0.0 | 0.0 | 0.00 | 1.35 | 0.00 | 96 | 1017.3 |
| 20260508102355 | 8 | 349 | 0.0 | 0.0 | 0.00 | 1.35 | 0.00 | 96 | 1017.4 |
| 20260508102315 | 8 | 349 | 0.0 | 0.0 | 0.00 | 1.35 | 0.00 | 96 | 1017.3 |
| 20260508102213 | 8 | 349 | 0.0 | 0.0 | 0.00 | 1.35 | 0.00 | 96 | 1017.3 |
| 20260508102050 | 8 | 349 | 0.0 | 0.0 | 0.00 | 1.35 | 0.00 | 96 | 1017.3 |
| 20260508101950 | 8 | 349 | 0.0 | 0.0 | 0.00 | 1.35 | 0.00 | 96 | 1017.3 |
| 20260508101851 | 8 | 349 | 0.0 | 0.0 | 0.00 | 1.37 | 0.00 | 96 | 1017.3 |
| 20260508101749 | 8 | 349 | 0.0 | 0.0 | 0.00 | 1.37 | 0.00 | 96 | 1017.2 |
| 20260508101652 | 8 | 349 | 0.0 | 0.0 | 0.00 | 1.37 | 0.00 | 96 | 1017.2 |
| 20260508101550 | 8 | 349 | 0.0 | 0.0 | 0.00 | 1.37 | 0.00 | 96 | 1017.2 |
| 20260508101503 | 8 | 349 | 0.0 | 0.0 | 0.00 | 1.37 | 0.00 | 96 | 1016.9 |
| 20260508101448 | 8 | 349 | 0.0 | 0.0 | 0.00 | 1.37 | 0.00 | 96 | 1017.2 |
| 20260508101349 | 8 | 349 | 0.0 | 0.0 | 0.00 | 1.37 | 0.00 | 96 | 1017.2 |
| 20260508101251 | 8 | 349 | 0.0 | 0.0 | 0.00 | 1.37 | 0.00 | 96 | 1017.2 |
| 20260508101149 | 8 | 349 | 0.0 | 0.0 | 0.00 | 1.37 | 0.00 | 96 | 1017.2 |
| 20260508101107 | 8 | 349 | 0.0 | 0.0 | 0.00 | 1.37 | 0.00 | 96 | 1017.2 |
| 20260508100948 | 8 | 349 | 0.0 | 0.0 | 0.00 | 1.37 | 0.00 | 96 | 1017.2 |
| 20260508100848 | 8 | 349 | 0.0 | 0.0 | 0.00 | 1.37 | 0.00 | 96 | 1017.2 |
| 20260508100749 | 8 | 349 | 0.0 | 0.0 | 0.00 | 1.37 | 0.00 | 96 | 1017.3 |
| 20260508100647 | 8 | 349 | 0.0 | 0.0 | 0.00 | 1.37 | 0.00 | 96 | 1017.3 |
| 20260508100547 | 8 | 349 | 0.0 | 0.0 | 0.00 | 1.37 | 0.00 | 96 | 1017.3 |
| 20260508100504 | 8 | 349 | 0.0 | 0.0 | 0.00 | 1.37 | 0.00 | 96 | 1017.3 |
| 20260508100403 | 8 | 349 | 0.0 | 0.0 | 0.00 | 1.37 | 0.00 | 96 | 1017.3 |
| 20260508100326 | 8 | 349 | 0.0 | 0.0 | 0.00 | 1.37 | 0.00 | 96 | 1017.3 |
| 20260508100229 | 8 | 349 | 0.0 | 0.0 | 0.00 | 1.37 | 0.00 | 96 | 1017.3 |
| 20260508100018 | 8 | 349 | 0.0 | 0.0 | 0.00 | 1.37 | 0.00 | 96 | 1017.0 |
| 20260508095955 | 8 | 349 | 0.0 | 0.0 | 0.00 | 1.37 | 0.00 | 96 | 1017.3 |
| 20260508095856 | 8 | 349 | 0.0 | 0.0 | 0.00 | 1.37 | 0.00 | 96 | 1017.3 |
| 20260508095757 | 8 | 349 | 0.0 | 0.0 | 0.00 | 1.37 | 0.00 | 96 | 1017.2 |
| 20260508095658 | 8 | 349 | 0.0 | 0.0 | 0.00 | 1.37 | 0.00 | 96 | 1017.2 |
| 20260508095543 | 8 | 349 | 0.0 | 0.0 | 0.00 | 1.37 | 0.00 | 96 | 1017.2 |
| 20260508095445 | 8 | 349 | 0.0 | 0.0 | 0.00 | 1.37 | 0.00 | 96 | 1017.2 |
| 20260508095346 | 8 | 349 | 0.0 | 0.0 | 0.00 | 1.37 | 0.00 | 96 | 1017.1 |
| 20260508095247 | 8 | 349 | 0.0 | 0.0 | 0.00 | 1.37 | 0.00 | 96 | 1017.1 |
| 20260508095148 | 8 | 349 | 0.0 | 0.0 | 0.00 | 1.37 | 0.00 | 96 | 1017.2 |
| 20260508095049 | 8 | 349 | 0.0 | 0.0 | 0.00 | 1.37 | 0.00 | 96 | 1017.2 |
| 20260508094954 | 8 | 349 | 0.0 | 0.0 | 0.00 | 1.37 | 0.00 | 96 | 1017.1 |
| 20260508094855 | 8 | 349 | 0.0 | 0.0 | 0.00 | 1.37 | 0.00 | 96 | 1017.2 |
| 20260508094753 | 8 | 349 | 0.0 | 0.0 | 0.00 | 1.37 | 0.00 | 96 | 1017.1 |
| 20260508094714 | 8 | 349 | 0.0 | 0.0 | 0.00 | 1.37 | 0.00 | 96 | 1017.2 |
| 20260508094553 | 8 | 349 | 0.0 | 0.0 | 0.00 | 1.37 | 0.00 | 96 | 1017.2 |
| 20260508094512 | 8 | 349 | 0.0 | 0.0 | 0.00 | 1.37 | 0.00 | 96 | 1016.9 |
| 20260508094454 | 8 | 349 | 0.0 | 0.0 | 0.00 | 1.37 | 0.00 | 96 | 1017.2 |
| 20260508094355 | 8 | 349 | 0.0 | 0.0 | 0.00 | 1.37 | 0.00 | 96 | 1017.3 |
| 20260508094240 | 8 | 349 | 0.0 | 0.0 | 0.00 | 1.37 | 0.00 | 96 | 1017.2 |
| 20260508094142 | 8 | 349 | 0.0 | 0.0 | 0.00 | 1.37 | 0.00 | 96 | 1017.2 |
| 20260508094043 | 8 | 349 | 0.0 | 0.0 | 0.00 | 1.37 | 0.00 | 96 | 1017.2 |
| 20260508093944 | 8 | 349 | 0.0 | 0.0 | 0.00 | 1.37 | 0.00 | 96 | 1017.1 |
| 20260508093845 | 8 | 349 | 0.0 | 0.0 | 0.00 | 1.37 | 0.00 | 96 | 1017.1 |
| 20260508093745 | 8 | 349 | 0.0 | 0.0 | 0.00 | 1.37 | 0.00 | 96 | 1017.1 |
| 20260508093645 | 8 | 349 | 0.0 | 0.0 | 0.00 | 1.37 | 0.00 | 96 | 1017.1 |
| 20260508093550 | 8 | 349 | 0.0 | 0.0 | 0.00 | 1.37 | 0.00 | 96 | 1017.1 |
| 20260508093451 | 8 | 349 | 0.0 | 0.0 | 0.00 | 1.37 | 0.00 | 96 | 1017.1 |
| 20260508093352 | 8 | 349 | 0.0 | 0.0 | 0.00 | 1.37 | 0.00 | 96 | 1017.1 |
| 20260508093253 | 8 | 349 | 0.0 | 0.0 | 0.00 | 1.37 | 0.00 | 96 | 1017.1 |
| 20260508093155 | 8 | 349 | 0.0 | 0.0 | 0.00 | 1.37 | 0.00 | 96 | 1017.1 |
| 20260508093124 | 8 | 349 | 0.0 | 0.0 | 0.00 | 1.37 | 0.00 | 96 | 1016.8 |
| 20260508093056 | 8 | 349 | 0.0 | 0.0 | 0.00 | 1.37 | 0.00 | 96 | 1017.2 |
| 20260508093016 | 8 | 349 | 0.0 | 0.0 | 0.00 | 1.37 | 0.00 | 96 | 1017.1 |
| 20260508092858 | 8 | 349 | 0.0 | 0.0 | 0.00 | 1.37 | 0.00 | 96 | 1017.1 |
| 20260508092758 | 8 | 349 | 0.0 | 0.0 | 0.00 | 1.37 | 0.00 | 96 | 1017.1 |
| 20260508092659 | 8 | 349 | 0.0 | 0.0 | 0.00 | 1.37 | 0.00 | 96 | 1017.1 |
| 20260508092558 | 8 | 349 | 0.0 | 0.0 | 0.00 | 1.37 | 0.00 | 96 | 1017.0 |
| 20260508092458 | 8 | 349 | 0.0 | 0.0 | 0.00 | 1.37 | 0.00 | 96 | 1017.1 |
| 20260508092359 | 8 | 349 | 0.0 | 0.0 | 0.00 | 1.37 | 0.00 | 96 | 1017.0 |
| 20260508092243 | 8 | 349 | 0.0 | 0.0 | 0.00 | 1.37 | 0.00 | 96 | 1017.0 |
| 20260508092145 | 8 | 349 | 0.0 | 0.0 | 0.00 | 1.37 | 0.00 | 96 | 1017.0 |
| 20260508092046 | 8 | 349 | 0.0 | 0.0 | 0.00 | 1.37 | 0.00 | 96 | 1017.0 |
| 20260508092006 | 8 | 349 | 0.0 | 0.0 | 0.00 | 1.37 | 0.00 | 96 | 1016.9 |
| 20260508091839 | 8 | 349 | 0.0 | 0.0 | 0.00 | 1.42 | 0.00 | 96 | 1016.9 |
| 20260508091741 | 8 | 349 | 0.0 | 0.0 | 0.00 | 1.42 | 0.00 | 96 | 1017.0 |
| 20260508091641 | 8 | 349 | 0.0 | 0.0 | 0.00 | 1.42 | 0.00 | 96 | 1016.9 |
| 20260508091544 | 8 | 349 | 0.0 | 0.0 | 0.00 | 1.42 | 0.00 | 96 | 1017.0 |
| 20260508091527 | 8 | 349 | 0.0 | 0.0 | 0.00 | 1.42 | 0.00 | 96 | 1016.6 |
| 20260508091444 | 8 | 349 | 0.0 | 0.0 | 0.00 | 1.42 | 0.00 | 96 | 1016.9 |
| 20260508091345 | 8 | 349 | 0.0 | 0.0 | 0.00 | 1.42 | 0.00 | 96 | 1016.9 |
| 20260508091306 | 8 | 349 | 0.0 | 0.0 | 0.00 | 1.42 | 0.00 | 96 | 1016.9 |
| 20260508091146 | 8 | 349 | 0.0 | 0.0 | 0.00 | 1.42 | 0.00 | 96 | 1016.9 |
| 20260508091047 | 8 | 349 | 0.0 | 0.0 | 0.00 | 1.42 | 0.00 | 96 | 1016.9 |
| 20260508090948 | 8 | 349 | 0.0 | 0.0 | 0.00 | 1.42 | 0.00 | 96 | 1016.9 |
| 20260508090853 | 8 | 349 | 0.0 | 0.0 | 0.00 | 1.42 | 0.00 | 96 | 1016.9 |
| 20260508090754 | 8 | 349 | 0.0 | 0.0 | 0.00 | 1.42 | 0.00 | 96 | 1016.9 |
| 20260508090655 | 8 | 349 | 0.0 | 0.0 | 0.00 | 1.42 | 0.00 | 96 | 1016.8 |
| 20260508090556 | 8 | 349 | 0.0 | 0.0 | 0.00 | 1.42 | 0.00 | 96 | 1016.8 |
| 20260508090458 | 8 | 349 | 0.0 | 0.0 | 0.00 | 1.42 | 0.00 | 96 | 1016.8 |
| 20260508090359 | 8 | 349 | 0.0 | 0.0 | 0.00 | 1.42 | 0.00 | 96 | 1016.8 |
| 20260508090257 | 8 | 349 | 0.0 | 0.0 | 0.00 | 1.42 | 0.00 | 96 | 1016.9 |
| 20260508090225 | 8 | 349 | 0.0 | 0.0 | 0.00 | 1.42 | 0.00 | 96 | 1016.9 |
| 20260508090037 | 8 | 349 | 0.0 | 0.0 | 0.00 | 1.42 | 0.00 | 96 | 1016.5 |
| 20260508085952 | 8 | 349 | 0.0 | 0.0 | 0.00 | 1.42 | 0.00 | 96 | 1016.9 |
| 20260508085852 | 8 | 349 | 0.0 | 0.0 | 0.00 | 1.42 | 0.00 | 96 | 1016.8 |
| 20260508085807 | 8 | 349 | 0.0 | 0.0 | 0.00 | 1.42 | 0.00 | 96 | 1016.8 |
| 20260508085645 | 8 | 349 | 0.0 | 0.0 | 0.00 | 1.42 | 0.00 | 96 | 1016.8 |
| 20260508085549 | 8 | 349 | 0.0 | 0.0 | 0.00 | 1.42 | 0.00 | 96 | 1016.8 |
| 20260508085449 | 8 | 349 | 0.0 | 0.0 | 0.00 | 1.42 | 0.00 | 96 | 1016.8 |
| 20260508085348 | 8 | 349 | 0.0 | 0.0 | 0.00 | 1.42 | 0.00 | 96 | 1016.7 |
| 20260508085248 | 8 | 349 | 0.0 | 0.0 | 0.00 | 1.42 | 0.00 | 96 | 1016.7 |
| 20260508085148 | 9 | 349 | 0.0 | 0.0 | 0.00 | 1.42 | 0.00 | 96 | 1016.7 |
| 20260508085046 | 9 | 349 | 0.0 | 0.0 | 0.00 | 1.42 | 0.00 | 96 | 1016.8 |
| 20260508084947 | 9 | 349 | 0.0 | 0.0 | 0.00 | 1.42 | 0.00 | 96 | 1016.7 |
| 20260508084852 | 9 | 349 | 0.0 | 0.0 | 0.00 | 1.42 | 0.00 | 96 | 1016.7 |
| 20260508084751 | 9 | 349 | 0.0 | 0.0 | 0.00 | 1.42 | 0.00 | 96 | 1016.7 |
| 20260508084652 | 9 | 349 | 0.0 | 0.0 | 0.00 | 1.42 | 0.00 | 96 | 1016.7 |
| 20260508084611 | 9 | 349 | 0.0 | 0.0 | 0.00 | 1.42 | 0.00 | 96 | 1016.7 |
| 20260508084521 | 8 | 349 | 0.0 | 0.0 | 0.00 | 1.42 | 0.00 | 96 | 1016.3 |
| 20260508084450 | 9 | 349 | 0.0 | 0.0 | 0.00 | 1.42 | 0.00 | 96 | 1016.7 |
| 20260508084350 | 9 | 349 | 0.0 | 0.0 | 0.00 | 1.42 | 0.00 | 96 | 1016.7 |
| 20260508084251 | 9 | 349 | 0.0 | 0.0 | 0.00 | 1.42 | 0.00 | 96 | 1016.7 |
| 20260508084155 | 9 | 349 | 0.0 | 0.0 | 0.00 | 1.42 | 0.00 | 96 | 1016.7 |
| 20260508084054 | 9 | 349 | 0.0 | 0.0 | 0.00 | 1.42 | 0.00 | 96 | 1016.7 |
| 20260508083955 | 9 | 349 | 0.0 | 0.0 | 0.00 | 1.42 | 0.00 | 96 | 1016.7 |
| 20260508083854 | 9 | 349 | 0.0 | 0.0 | 0.00 | 1.42 | 0.00 | 96 | 1016.7 |
| 20260508083753 | 9 | 349 | 0.0 | 0.0 | 0.00 | 1.42 | 0.00 | 96 | 1016.6 |
| 20260508083653 | 9 | 349 | 0.0 | 0.0 | 0.00 | 1.42 | 0.00 | 96 | 1016.7 |
| 20260508083558 | 9 | 349 | 0.0 | 0.0 | 0.00 | 1.42 | 0.00 | 96 | 1016.7 |
| 20260508083459 | 9 | 349 | 0.0 | 0.0 | 0.00 | 1.42 | 0.00 | 96 | 1016.7 |
| 20260508083419 | 9 | 349 | 0.0 | 0.0 | 0.00 | 1.42 | 0.00 | 96 | 1016.6 |
| 20260508083257 | 9 | 349 | 0.0 | 0.0 | 0.00 | 1.42 | 0.00 | 96 | 1016.6 |
| 20260508083159 | 9 | 349 | 0.0 | 0.0 | 0.00 | 1.42 | 0.00 | 96 | 1016.7 |
| 20260508083127 | 9 | 349 | 0.0 | 0.0 | 0.00 | 1.42 | 0.00 | 96 | 1016.2 |
| 20260508083057 | 9 | 349 | 0.0 | 0.0 | 0.00 | 1.42 | 0.00 | 96 | 1016.6 |
| 20260508082957 | 9 | 349 | 0.0 | 0.0 | 0.00 | 1.42 | 0.00 | 96 | 1016.6 |
| 20260508082901 | 9 | 349 | 0.0 | 0.0 | 0.00 | 1.42 | 0.00 | 96 | 1016.6 |
| 20260508082801 | 9 | 349 | 0.0 | 0.0 | 0.00 | 1.42 | 0.00 | 96 | 1016.6 |
| 20260508082701 | 9 | 349 | 0.0 | 0.0 | 0.00 | 1.42 | 0.00 | 96 | 1016.6 |
| 20260508082540 | 9 | 349 | 0.0 | 0.0 | 0.00 | 1.42 | 0.00 | 96 | 1016.6 |
| 20260508082440 | 9 | 349 | 0.0 | 0.0 | 0.00 | 1.42 | 0.00 | 96 | 1016.6 |
| 20260508082340 | 9 | 349 | 0.0 | 0.0 | 0.00 | 1.42 | 0.00 | 96 | 1016.6 |
| 20260508082240 | 9 | 349 | 0.0 | 0.0 | 0.00 | 1.42 | 0.00 | 96 | 1016.7 |
| 20260508082141 | 9 | 349 | 0.0 | 0.0 | 0.00 | 1.42 | 0.00 | 96 | 1016.6 |
| 20260508082046 | 9 | 349 | 0.0 | 0.0 | 0.00 | 1.42 | 0.00 | 96 | 1016.6 |
| 20260508081947 | 9 | 349 | 0.0 | 0.0 | 0.00 | 1.42 | 0.00 | 96 | 1016.6 |
| 20260508081848 | 9 | 349 | 0.0 | 0.0 | 0.00 | 1.55 | 0.00 | 96 | 1016.6 |
| 20260508081807 | 9 | 349 | 0.0 | 0.0 | 0.00 | 1.55 | 0.00 | 96 | 1016.6 |
| 20260508081646 | 9 | 349 | 0.0 | 0.0 | 0.00 | 1.55 | 0.00 | 96 | 1016.5 |
| 20260508081547 | 9 | 349 | 0.0 | 0.0 | 0.00 | 1.55 | 0.00 | 96 | 1016.4 |
| 20260508081523 | 9 | 349 | 0.0 | 0.0 | 0.00 | 1.55 | 0.00 | 96 | 1016.0 |
| 20260508081448 | 9 | 349 | 0.0 | 0.0 | 0.00 | 1.55 | 0.00 | 96 | 1016.4 |
| 20260508081353 | 9 | 349 | 0.0 | 0.0 | 0.00 | 1.55 | 0.00 | 96 | 1016.4 |
| 20260508081252 | 9 | 349 | 0.0 | 0.0 | 0.00 | 1.55 | 0.00 | 96 | 1016.4 |
| 20260508081152 | 9 | 349 | 0.0 | 0.0 | 0.00 | 1.55 | 0.00 | 96 | 1016.4 |
| 20260508081052 | 9 | 349 | 0.0 | 0.0 | 0.00 | 1.55 | 0.00 | 96 | 1016.4 |
| 20260508080952 | 9 | 349 | 0.0 | 0.0 | 0.00 | 1.55 | 0.00 | 96 | 1016.4 |
| 20260508080852 | 9 | 349 | 0.0 | 0.0 | 0.00 | 1.55 | 0.00 | 96 | 1016.4 |
| 20260508080812 | 9 | 349 | 0.0 | 0.0 | 0.00 | 1.55 | 0.00 | 96 | 1016.4 |
| 20260508080655 | 9 | 349 | 0.0 | 0.0 | 0.00 | 1.55 | 0.00 | 96 | 1016.4 |
| 20260508080556 | 9 | 349 | 0.0 | 0.0 | 0.00 | 1.55 | 0.00 | 96 | 1016.3 |
| 20260508080455 | 9 | 349 | 0.0 | 0.0 | 0.00 | 1.55 | 0.00 | 96 | 1016.3 |
| 20260508080355 | 9 | 349 | 0.0 | 0.0 | 0.00 | 1.55 | 0.00 | 96 | 1016.2 |
| 20260508080251 | 9 | 349 | 0.0 | 0.0 | 0.00 | 1.55 | 0.00 | 96 | 1016.2 |
| 20260508080222 | 9 | 349 | 0.0 | 0.0 | 0.00 | 1.55 | 0.00 | 96 | 1016.2 |
| 20260508080010 | 9 | 349 | 0.0 | 0.0 | 0.00 | 1.55 | 0.00 | 96 | 1016.2 |
| 20260508075911 | 9 | 349 | 0.0 | 0.0 | 0.00 | 1.55 | 0.00 | 96 | 1016.2 |
| 20260508075750 | 9 | 349 | 0.0 | 0.0 | 0.00 | 1.55 | 0.00 | 96 | 1016.2 |
| 20260508075651 | 10 | 349 | 0.0 | 0.0 | 0.00 | 1.55 | 0.00 | 96 | 1016.2 |
| 20260508075610 | 10 | 349 | 0.0 | 0.0 | 0.00 | 1.55 | 0.00 | 96 | 1016.2 |
| 20260508075449 | 10 | 349 | 0.0 | 0.0 | 0.00 | 1.55 | 0.00 | 96 | 1016.2 |
| 20260508075344 | 10 | 349 | 0.0 | 0.0 | 0.00 | 1.55 | 0.00 | 96 | 1016.3 |
| 20260508075249 | 10 | 349 | 0.0 | 0.0 | 0.00 | 1.55 | 0.00 | 96 | 1016.2 |
| 20260508075148 | 10 | 349 | 0.0 | 0.0 | 0.00 | 1.55 | 0.00 | 96 | 1016.2 |
| 20260508075047 | 10 | 349 | 0.0 | 0.0 | 0.00 | 1.55 | 0.00 | 96 | 1016.2 |
| 20260508074948 | 10 | 349 | 0.0 | 0.0 | 0.00 | 1.55 | 0.00 | 96 | 1016.2 |
| 20260508074848 | 10 | 349 | 0.0 | 0.0 | 0.00 | 1.55 | 0.00 | 96 | 1016.3 |
| 20260508074808 | 10 | 349 | 0.0 | 0.0 | 0.00 | 1.55 | 0.00 | 96 | 1016.4 |
| 20260508074704 | 10 | 349 | 0.0 | 0.0 | 0.00 | 1.55 | 0.00 | 96 | 1016.3 |
| 20260508074603 | 9 | 349 | 0.0 | 0.0 | 0.00 | 1.55 | 0.00 | 96 | 1015.8 |
| 20260508074542 | 10 | 349 | 0.0 | 0.0 | 0.00 | 1.55 | 0.00 | 96 | 1016.3 |
| 20260508074447 | 10 | 349 | 0.0 | 0.0 | 0.00 | 1.55 | 0.00 | 96 | 1016.3 |
| 20260508074348 | 10 | 349 | 0.0 | 0.0 | 0.00 | 1.55 | 0.00 | 96 | 1016.3 |
| 20260508074247 | 10 | 349 | 0.0 | 0.0 | 0.00 | 1.55 | 0.00 | 96 | 1016.2 |
| 20260508074147 | 10 | 349 | 0.0 | 0.0 | 0.00 | 1.55 | 0.00 | 96 | 1016.2 |
| 20260508074047 | 10 | 349 | 0.0 | 0.0 | 0.00 | 1.55 | 0.00 | 96 | 1016.2 |
| 20260508073948 | 10 | 349 | 0.0 | 0.0 | 0.00 | 1.55 | 0.00 | 96 | 1016.2 |
| 20260508073850 | 10 | 349 | 0.0 | 0.0 | 0.00 | 1.55 | 0.00 | 96 | 1016.2 |
| 20260508073751 | 10 | 349 | 0.0 | 0.0 | 0.00 | 1.55 | 0.00 | 96 | 1016.2 |
| 20260508073648 | 10 | 349 | 0.0 | 0.0 | 0.00 | 1.55 | 0.00 | 96 | 1016.2 |
| 20260508073601 | 10 | 349 | 0.0 | 0.0 | 0.00 | 1.55 | 0.00 | 96 | 1016.3 |
| 20260508073440 | 10 | 349 | 0.0 | 0.0 | 0.00 | 1.55 | 0.00 | 96 | 1016.2 |
| 20260508073339 | 10 | 349 | 0.0 | 0.0 | 0.00 | 1.55 | 0.00 | 96 | 1016.2 |
| 20260508073239 | 10 | 349 | 0.0 | 0.0 | 0.00 | 1.55 | 0.00 | 96 | 1016.1 |
| 20260508073139 | 10 | 349 | 0.0 | 0.0 | 0.00 | 1.55 | 0.00 | 96 | 1016.0 |
| 20260508073103 | 10 | 349 | 0.0 | 0.0 | 0.00 | 1.55 | 0.00 | 96 | 1016.1 |
| 20260508073027 | 10 | 349 | 0.0 | 0.0 | 0.00 | 1.55 | 0.00 | 96 | 1015.6 |
| 20260508072943 | 10 | 349 | 0.0 | 0.0 | 0.00 | 1.55 | 0.00 | 96 | 1016.0 |
| 20260508072844 | 10 | 349 | 0.0 | 0.0 | 0.00 | 1.55 | 0.00 | 96 | 1016.1 |
| 20260508072745 | 10 | 349 | 0.0 | 0.0 | 0.00 | 1.55 | 0.00 | 96 | 1016.0 |
| 20260508072646 | 10 | 349 | 0.0 | 0.0 | 0.00 | 1.55 | 0.00 | 96 | 1016.1 |
| 20260508072547 | 10 | 349 | 0.0 | 0.0 | 0.00 | 1.55 | 0.00 | 96 | 1016.0 |
| 20260508072447 | 10 | 349 | 0.0 | 0.0 | 0.00 | 1.55 | 0.00 | 96 | 1016.0 |
| 20260508072352 | 10 | 349 | 0.0 | 0.0 | 0.00 | 1.55 | 0.00 | 96 | 1016.0 |
| 20260508072253 | 10 | 349 | 0.0 | 0.0 | 0.00 | 1.55 | 0.00 | 96 | 1016.0 |
| 20260508072154 | 10 | 349 | 0.0 | 0.0 | 0.00 | 1.55 | 0.00 | 96 | 1016.1 |
| 20260508072048 | 10 | 349 | 0.0 | 0.0 | 0.00 | 1.55 | 0.00 | 96 | 1016.2 |
| 20260508071948 | 10 | 349 | 0.0 | 0.0 | 0.00 | 1.55 | 0.00 | 96 | 1016.2 |
| 20260508071848 | 10 | 349 | 0.0 | 0.0 | 0.00 | 1.75 | 1.55 | 96 | 1016.2 |
| 20260508071752 | 10 | 349 | 0.0 | 0.0 | 0.00 | 1.75 | 1.55 | 96 | 1016.2 |
| 20260508071654 | 10 | 349 | 0.0 | 0.0 | 0.00 | 1.75 | 1.55 | 96 | 1016.2 |
| 20260508071554 | 10 | 349 | 0.0 | 0.0 | 0.00 | 1.75 | 1.55 | 96 | 1016.1 |
| 20260508071511 | 10 | 349 | 0.0 | 0.0 | 0.00 | 1.75 | 1.55 | 96 | 1015.7 |
| 20260508071455 | 10 | 349 | 0.0 | 0.0 | 0.00 | 1.75 | 1.55 | 96 | 1016.2 |
| 20260508071356 | 10 | 349 | 0.0 | 0.0 | 0.00 | 1.75 | 1.55 | 96 | 1016.1 |
| 20260508071257 | 10 | 349 | 0.0 | 0.0 | 0.00 | 1.75 | 1.55 | 96 | 1016.1 |
| 20260508071156 | 10 | 349 | 0.0 | 0.0 | 0.00 | 1.75 | 1.55 | 96 | 1016.0 |
| 20260508071041 | 10 | 349 | 0.0 | 0.0 | 0.00 | 1.75 | 1.55 | 96 | 1016.0 |
| 20260508070942 | 10 | 349 | 0.0 | 0.0 | 0.00 | 1.75 | 1.55 | 96 | 1016.0 |
| 20260508070843 | 10 | 349 | 0.0 | 0.0 | 0.00 | 1.75 | 1.55 | 96 | 1016.0 |
| 20260508070742 | 10 | 349 | 0.0 | 0.0 | 0.00 | 1.75 | 1.55 | 96 | 1016.0 |
| 20260508070643 | 10 | 349 | 0.0 | 0.0 | 0.00 | 1.75 | 1.55 | 96 | 1016.1 |
| 20260508070544 | 10 | 349 | 0.0 | 0.0 | 0.00 | 1.75 | 1.55 | 96 | 1016.0 |
| 20260508070448 | 10 | 349 | 0.0 | 0.0 | 0.00 | 1.75 | 1.55 | 96 | 1016.0 |
| 20260508070348 | 10 | 349 | 0.0 | 0.0 | 0.00 | 1.75 | 1.55 | 96 | 1016.0 |
| 20260508070312 | 10 | 349 | 0.0 | 0.0 | 0.00 | 1.75 | 1.55 | 96 | 1016.0 |
| 20260508070217 | 10 | 349 | 0.0 | 0.0 | 0.00 | 1.75 | 1.55 | 96 | 1016.0 |
| 20260508070002 | 10 | 349 | 0.0 | 0.0 | 0.00 | 1.75 | 1.55 | 96 | 1015.6 |
| 20260508065944 | 10 | 349 | 0.0 | 0.0 | 0.00 | 1.75 | 1.55 | 96 | 1016.0 |
| 20260508065844 | 10 | 349 | 0.0 | 0.0 | 0.00 | 1.75 | 1.55 | 96 | 1016.0 |
| 20260508065748 | 10 | 349 | 0.0 | 0.0 | 0.00 | 1.75 | 1.55 | 96 | 1015.9 |
| 20260508065649 | 10 | 349 | 0.0 | 0.0 | 0.00 | 1.75 | 1.55 | 96 | 1016.0 |
| 20260508065549 | 10 | 349 | 0.0 | 0.0 | 0.00 | 1.75 | 1.55 | 96 | 1016.0 |
| 20260508065447 | 10 | 349 | 0.0 | 0.0 | 0.00 | 1.75 | 1.55 | 96 | 1016.1 |
| 20260508065343 | 10 | 349 | 0.0 | 0.0 | 0.00 | 1.75 | 1.55 | 96 | 1016.0 |
| 20260508065244 | 10 | 349 | 0.0 | 0.0 | 0.00 | 1.75 | 1.55 | 96 | 1016.0 |
| 20260508065149 | 10 | 349 | 0.0 | 0.0 | 0.00 | 1.75 | 1.55 | 96 | 1016.0 |
| 20260508065108 | 10 | 349 | 0.0 | 0.0 | 0.00 | 1.75 | 1.55 | 96 | 1016.0 |
| 20260508064945 | 10 | 349 | 0.0 | 0.0 | 0.00 | 1.75 | 1.55 | 96 | 1016.0 |
| 20260508064845 | 10 | 349 | 0.0 | 0.0 | 0.00 | 1.75 | 1.55 | 96 | 1015.9 |
| 20260508064745 | 10 | 349 | 0.0 | 0.0 | 0.00 | 1.75 | 1.55 | 96 | 1016.0 |
| 20260508064645 | 10 | 349 | 0.0 | 0.0 | 0.00 | 1.75 | 1.55 | 96 | 1015.9 |
| 20260508064547 | 10 | 349 | 0.0 | 0.0 | 0.00 | 1.75 | 1.55 | 96 | 1015.9 |
| 20260508064508 | 10 | 349 | 0.0 | 0.0 | 0.00 | 1.75 | 1.55 | 96 | 1015.4 |
| 20260508064448 | 10 | 349 | 0.0 | 0.0 | 0.00 | 1.75 | 1.55 | 96 | 1015.9 |
| 20260508064352 | 10 | 349 | 0.0 | 0.0 | 0.00 | 1.75 | 1.55 | 96 | 1015.8 |
| 20260508064250 | 10 | 349 | 0.0 | 0.0 | 0.00 | 1.75 | 1.55 | 96 | 1015.9 |
| 20260508064149 | 10 | 349 | 0.0 | 0.0 | 0.00 | 1.75 | 1.55 | 96 | 1015.8 |
| 20260508064050 | 10 | 349 | 0.0 | 0.0 | 0.00 | 1.75 | 1.55 | 96 | 1015.9 |
| 20260508063951 | 10 | 349 | 0.0 | 0.0 | 0.00 | 1.75 | 1.55 | 96 | 1015.9 |
| 20260508063849 | 10 | 349 | 0.0 | 0.0 | 0.00 | 1.75 | 1.55 | 96 | 1015.9 |
| 20260508063810 | 10 | 349 | 0.0 | 0.0 | 0.00 | 1.75 | 1.55 | 96 | 1015.9 |
| 20260508063651 | 10 | 349 | 0.0 | 0.0 | 0.00 | 1.75 | 1.55 | 96 | 1015.9 |
| 20260508063552 | 10 | 349 | 0.0 | 0.0 | 0.00 | 1.75 | 1.55 | 96 | 1015.9 |
| 20260508063513 | 10 | 349 | 0.0 | 0.0 | 0.00 | 1.75 | 1.55 | 96 | 1015.9 |
| 20260508063351 | 10 | 349 | 0.0 | 0.0 | 0.00 | 1.75 | 1.55 | 96 | 1015.9 |
| 20260508063252 | 10 | 349 | 0.0 | 0.0 | 0.00 | 1.75 | 1.55 | 96 | 1015.8 |
| 20260508063151 | 10 | 349 | 0.0 | 0.0 | 0.00 | 1.75 | 1.55 | 96 | 1015.9 |
| 20260508063110 | 10 | 349 | 0.0 | 0.0 | 0.00 | 1.75 | 1.55 | 96 | 1015.4 |
| 20260508063052 | 10 | 349 | 0.0 | 0.0 | 0.00 | 1.75 | 1.55 | 96 | 1015.9 |
| 20260508063009 | 10 | 349 | 0.0 | 0.0 | 0.00 | 1.75 | 1.55 | 96 | 1015.9 |
| 20260508062852 | 10 | 349 | 0.0 | 0.0 | 0.00 | 1.75 | 1.55 | 96 | 1016.0 |
| 20260508062751 | 11 | 349 | 0.0 | 0.0 | 0.00 | 1.75 | 1.55 | 96 | 1016.0 |
| 20260508062651 | 11 | 349 | 0.0 | 0.0 | 0.00 | 1.75 | 1.55 | 96 | 1016.0 |
| 20260508062547 | 11 | 349 | 0.0 | 0.0 | 0.00 | 1.75 | 1.55 | 96 | 1016.0 |
| 20260508062446 | 11 | 349 | 0.0 | 0.0 | 0.00 | 1.75 | 1.55 | 96 | 1016.0 |
| 20260508062345 | 11 | 349 | 0.0 | 0.0 | 0.00 | 1.75 | 1.55 | 96 | 1016.0 |
| 20260508062247 | 11 | 349 | 0.0 | 0.0 | 0.00 | 1.75 | 1.55 | 96 | 1016.0 |
| 20260508062151 | 11 | 349 | 0.0 | 0.0 | 0.00 | 1.75 | 1.55 | 96 | 1016.0 |
| 20260508062051 | 11 | 349 | 0.0 | 0.0 | 0.00 | 1.75 | 1.55 | 96 | 1016.0 |
| 20260508062013 | 11 | 349 | 0.0 | 0.0 | 0.00 | 1.75 | 1.55 | 96 | 1015.9 |
| 20260508061851 | 11 | 349 | 0.0 | 0.0 | 0.00 | 2.29 | 1.55 | 96 | 1016.0 |
| 20260508061751 | 11 | 349 | 0.0 | 0.0 | 0.00 | 2.29 | 1.55 | 96 | 1016.0 |
| 20260508061649 | 11 | 349 | 0.0 | 0.0 | 0.00 | 2.29 | 1.55 | 96 | 1016.0 |
| 20260508061549 | 11 | 349 | 0.0 | 0.0 | 0.00 | 2.29 | 1.55 | 96 | 1016.0 |
| 20260508061516 | 10 | 349 | 0.0 | 0.0 | 0.00 | 2.29 | 1.55 | 96 | 1015.5 |
| 20260508061451 | 11 | 349 | 0.0 | 0.0 | 0.00 | 2.29 | 1.55 | 96 | 1016.0 |
| 20260508061411 | 11 | 349 | 0.0 | 0.0 | 0.00 | 2.29 | 1.55 | 96 | 1016.0 |
| 20260508061249 | 11 | 349 | 0.0 | 0.0 | 0.00 | 2.29 | 1.55 | 96 | 1016.0 |
| 20260508061148 | 11 | 349 | 0.0 | 0.0 | 0.00 | 2.29 | 1.55 | 96 | 1016.0 |
| 20260508061044 | 11 | 349 | 0.0 | 0.0 | 0.00 | 2.29 | 1.55 | 96 | 1016.0 |
| 20260508061001 | 11 | 349 | 0.0 | 0.0 | 0.00 | 2.29 | 1.55 | 96 | 1016.0 |
| 20260508060841 | 11 | 349 | 0.0 | 0.0 | 0.00 | 2.29 | 1.55 | 96 | 1016.0 |
| 20260508060759 | 11 | 349 | 0.0 | 0.0 | 0.00 | 2.29 | 1.55 | 96 | 1016.1 |
| 20260508060643 | 11 | 349 | 0.0 | 0.0 | 0.00 | 2.29 | 1.55 | 96 | 1016.1 |
| 20260508060604 | 11 | 349 | 0.0 | 0.0 | 0.00 | 2.29 | 1.55 | 96 | 1016.0 |
| 20260508060523 | 11 | 349 | 0.0 | 0.0 | 0.00 | 2.29 | 1.55 | 96 | 1016.0 |
| 20260508060356 | 11 | 349 | 0.0 | 0.0 | 0.00 | 2.29 | 1.55 | 96 | 1016.0 |
| 20260508060259 | 11 | 349 | 0.0 | 0.0 | 0.00 | 2.29 | 1.55 | 96 | 1016.0 |
| 20260508060226 | 11 | 349 | 0.0 | 0.0 | 0.00 | 2.29 | 1.55 | 96 | 1016.0 |
| 20260508060016 | 11 | 349 | 0.0 | 0.0 | 0.00 | 2.29 | 1.55 | 96 | 1016.0 |
| 20260508055856 | 11 | 349 | 0.0 | 0.0 | 0.00 | 2.29 | 1.55 | 96 | 1016.0 |
| 20260508055817 | 11 | 349 | 0.0 | 0.0 | 0.00 | 2.29 | 1.55 | 96 | 1016.0 |
| 20260508055716 | 11 | 349 | 0.0 | 0.0 | 0.00 | 2.29 | 1.55 | 96 | 1016.0 |
| 20260508055555 | 11 | 349 | 0.0 | 0.0 | 0.00 | 2.29 | 1.55 | 96 | 1016.0 |
| 20260508055455 | 11 | 349 | 0.0 | 0.0 | 0.00 | 2.29 | 1.55 | 96 | 1016.0 |
| 20260508055355 | 11 | 349 | 0.0 | 0.0 | 0.00 | 2.29 | 1.55 | 96 | 1016.0 |
| 20260508055315 | 11 | 349 | 0.0 | 0.0 | 0.00 | 2.29 | 1.55 | 96 | 1016.0 |
| 20260508055215 | 11 | 349 | 0.0 | 0.0 | 0.00 | 2.29 | 1.55 | 96 | 1016.0 |
| 20260508055057 | 11 | 349 | 0.0 | 0.0 | 0.00 | 2.29 | 1.55 | 96 | 1016.0 |
| 20260508054957 | 11 | 349 | 0.0 | 0.0 | 0.00 | 2.29 | 1.55 | 96 | 1016.0 |
| 20260508054855 | 11 | 349 | 0.0 | 0.0 | 0.00 | 2.29 | 1.55 | 96 | 1016.0 |
| 20260508054754 | 11 | 349 | 0.0 | 0.0 | 0.00 | 2.29 | 1.55 | 96 | 1016.0 |
| 20260508054650 | 11 | 349 | 0.0 | 0.0 | 0.00 | 2.29 | 1.55 | 96 | 1016.0 |
| 20260508054628 | 11 | 349 | 0.0 | 0.0 | 0.00 | 2.29 | 1.55 | 96 | 1015.6 |
| 20260508054608 | 11 | 349 | 0.0 | 0.0 | 0.00 | 2.29 | 1.55 | 96 | 1016.0 |
| 20260508054448 | 11 | 349 | 0.0 | 0.0 | 0.00 | 2.29 | 1.55 | 96 | 1016.0 |
| 20260508054352 | 11 | 349 | 0.0 | 0.0 | 0.00 | 2.29 | 1.55 | 96 | 1016.0 |
| 20260508054252 | 11 | 349 | 0.0 | 0.0 | 0.00 | 2.29 | 1.55 | 96 | 1016.1 |
| 20260508054151 | 11 | 349 | 0.0 | 0.0 | 0.00 | 2.29 | 1.55 | 96 | 1015.9 |
| 20260508054051 | 11 | 349 | 0.0 | 0.0 | 0.00 | 2.29 | 1.55 | 96 | 1015.9 |
| 20260508053948 | 11 | 349 | 0.0 | 0.0 | 0.00 | 2.29 | 1.55 | 96 | 1015.9 |
| 20260508053848 | 11 | 349 | 0.0 | 0.0 | 0.00 | 2.29 | 1.55 | 96 | 1015.9 |
| 20260508053805 | 11 | 349 | 0.0 | 0.0 | 0.00 | 2.29 | 1.55 | 96 | 1015.9 |
| 20260508053648 | 11 | 349 | 0.0 | 0.0 | 0.00 | 2.29 | 1.55 | 96 | 1015.9 |
| 20260508053546 | 11 | 349 | 0.0 | 0.0 | 0.00 | 2.29 | 1.55 | 96 | 1015.9 |
| 20260508053446 | 11 | 349 | 0.0 | 0.0 | 0.00 | 2.29 | 1.55 | 96 | 1015.9 |
| 20260508053407 | 11 | 349 | 0.0 | 0.0 | 0.00 | 2.29 | 1.55 | 96 | 1015.9 |
| 20260508053247 | 11 | 349 | 0.0 | 0.0 | 0.00 | 2.29 | 1.55 | 96 | 1015.9 |
| 20260508053144 | 11 | 349 | 0.0 | 0.0 | 0.00 | 2.29 | 1.55 | 96 | 1015.9 |
| 20260508053044 | 11 | 349 | 0.0 | 0.0 | 0.00 | 2.29 | 1.55 | 96 | 1015.8 |
| 20260508053028 | 11 | 349 | 0.0 | 0.0 | 0.00 | 2.29 | 1.55 | 96 | 1015.3 |
| 20260508053005 | 11 | 349 | 0.0 | 0.0 | 0.00 | 2.29 | 1.55 | 96 | 1015.8 |
| 20260508052848 | 11 | 349 | 0.0 | 0.0 | 0.00 | 2.29 | 1.55 | 96 | 1015.9 |
| 20260508052748 | 11 | 349 | 0.0 | 0.0 | 0.00 | 2.29 | 1.55 | 96 | 1015.9 |
| 20260508052646 | 11 | 349 | 0.0 | 0.0 | 0.00 | 2.29 | 1.55 | 96 | 1015.9 |
| 20260508052547 | 11 | 349 | 0.0 | 0.0 | 0.00 | 2.29 | 1.55 | 96 | 1016.0 |
| 20260508052447 | 11 | 349 | 0.0 | 0.0 | 0.00 | 2.29 | 1.55 | 96 | 1016.0 |
| 20260508052407 | 11 | 349 | 0.0 | 0.0 | 0.00 | 2.29 | 1.55 | 96 | 1015.9 |
| 20260508052240 | 11 | 349 | 0.0 | 0.0 | 0.00 | 2.29 | 1.55 | 96 | 1015.9 |
| 20260508052144 | 11 | 349 | 0.0 | 0.0 | 0.00 | 2.29 | 1.55 | 96 | 1015.9 |
| 20260508052040 | 11 | 349 | 0.0 | 0.0 | 0.00 | 2.29 | 1.55 | 96 | 1015.8 |
| 20260508051941 | 11 | 349 | 0.0 | 0.0 | 0.00 | 2.29 | 1.55 | 96 | 1015.8 |
| 20260508051842 | 11 | 349 | 0.0 | 0.0 | 0.00 | 2.29 | 1.55 | 96 | 1015.9 |
| 20260508051742 | 11 | 349 | 0.0 | 0.0 | 0.00 | 2.29 | 1.55 | 96 | 1015.9 |
| 20260508051642 | 11 | 349 | 0.0 | 0.0 | 0.00 | 2.29 | 1.55 | 96 | 1015.9 |
| 20260508051541 | 11 | 349 | 0.0 | 0.0 | 0.00 | 2.29 | 1.55 | 96 | 1015.8 |
| 20260508051516 | 11 | 349 | 0.0 | 0.0 | 0.00 | 2.29 | 1.55 | 96 | 1015.3 |
| 20260508051446 | 11 | 349 | 0.0 | 0.0 | 0.00 | 2.29 | 1.55 | 96 | 1015.8 |
| 20260508051345 | 11 | 349 | 0.0 | 0.0 | 0.00 | 2.29 | 1.55 | 96 | 1015.7 |
| 20260508051246 | 11 | 349 | 0.0 | 0.0 | 0.00 | 2.29 | 1.55 | 96 | 1015.8 |
| 20260508051145 | 11 | 349 | 0.0 | 0.0 | 0.00 | 2.29 | 1.55 | 96 | 1015.7 |
| 20260508051039 | 11 | 349 | 0.0 | 0.0 | 0.00 | 2.29 | 1.55 | 96 | 1015.7 |
| 20260508050940 | 11 | 349 | 0.0 | 0.0 | 0.00 | 2.29 | 1.55 | 96 | 1015.7 |
| 20260508050844 | 11 | 349 | 0.0 | 0.0 | 0.00 | 2.29 | 1.55 | 96 | 1015.7 |
| 20260508050744 | 11 | 349 | 0.0 | 0.0 | 0.00 | 2.29 | 1.55 | 96 | 1015.8 |
| 20260508050644 | 11 | 349 | 0.0 | 0.0 | 0.00 | 2.29 | 1.55 | 96 | 1015.8 |
| 20260508050545 | 11 | 349 | 0.0 | 0.0 | 0.00 | 2.29 | 1.55 | 96 | 1015.8 |
| 20260508050446 | 11 | 349 | 0.0 | 0.0 | 0.00 | 2.29 | 1.55 | 96 | 1015.9 |
| 20260508050345 | 11 | 349 | 0.0 | 0.0 | 0.00 | 2.29 | 1.55 | 96 | 1015.9 |
| 20260508050309 | 11 | 349 | 0.0 | 0.0 | 0.00 | 2.29 | 1.55 | 96 | 1015.9 |
| 20260508050241 | 11 | 349 | 0.0 | 0.0 | 0.00 | 2.29 | 1.55 | 96 | 1015.9 |
| 20260508050024 | 11 | 349 | 0.0 | 0.0 | 0.00 | 2.29 | 1.55 | 96 | 1015.4 |
| 20260508045941 | 11 | 349 | 0.0 | 0.0 | 0.00 | 2.29 | 1.55 | 96 | 1015.9 |
| 20260508045842 | 11 | 349 | 0.0 | 0.0 | 0.00 | 2.29 | 1.55 | 96 | 1015.8 |
| 20260508045741 | 11 | 349 | 0.0 | 0.0 | 0.00 | 2.29 | 1.55 | 96 | 1015.8 |
| 20260508045640 | 11 | 349 | 0.0 | 0.0 | 0.00 | 2.29 | 1.55 | 96 | 1015.8 |
| 20260508045601 | 11 | 349 | 0.0 | 0.0 | 0.00 | 2.29 | 1.55 | 96 | 1015.8 |
| 20260508045445 | 11 | 349 | 0.0 | 0.0 | 0.00 | 2.29 | 1.55 | 96 | 1015.8 |
| 20260508045345 | 11 | 349 | 0.0 | 0.0 | 0.00 | 2.29 | 1.55 | 96 | 1015.7 |
| 20260508045246 | 11 | 349 | 0.0 | 0.0 | 0.00 | 2.29 | 1.55 | 96 | 1015.6 |
| 20260508045206 | 11 | 349 | 0.0 | 0.0 | 0.00 | 2.29 | 1.55 | 96 | 1015.6 |
| 20260508045040 | 12 | 349 | 0.0 | 0.0 | 0.00 | 2.29 | 1.55 | 96 | 1015.6 |
| 20260508044940 | 12 | 349 | 0.0 | 0.0 | 0.00 | 2.29 | 1.55 | 96 | 1015.6 |
| 20260508044841 | 12 | 349 | 0.0 | 0.0 | 0.00 | 2.29 | 1.55 | 96 | 1015.6 |
| 20260508044746 | 12 | 349 | 0.0 | 0.0 | 0.00 | 2.29 | 1.55 | 96 | 1015.6 |
| 20260508044645 | 12 | 349 | 0.0 | 0.0 | 0.00 | 2.29 | 1.55 | 96 | 1015.6 |
| 20260508044613 | 11 | 349 | 0.0 | 0.0 | 0.00 | 2.29 | 1.55 | 96 | 1015.1 |
| 20260508044546 | 12 | 349 | 0.0 | 0.0 | 0.00 | 2.29 | 1.55 | 96 | 1015.6 |
| 20260508044447 | 12 | 349 | 0.0 | 0.0 | 0.00 | 2.29 | 1.55 | 96 | 1015.6 |
| 20260508044406 | 12 | 349 | 0.0 | 0.0 | 0.00 | 2.29 | 1.55 | 96 | 1015.6 |
| 20260508044240 | 12 | 349 | 0.0 | 0.0 | 0.00 | 2.29 | 1.55 | 96 | 1015.5 |
| 20260508044141 | 12 | 349 | 0.0 | 0.0 | 0.00 | 2.29 | 1.55 | 96 | 1015.5 |
| 20260508044045 | 12 | 349 | 0.0 | 0.0 | 0.00 | 2.29 | 1.55 | 96 | 1015.4 |
| 20260508043946 | 12 | 349 | 0.0 | 0.0 | 0.00 | 2.29 | 1.55 | 96 | 1015.5 |
| 20260508043847 | 12 | 349 | 0.0 | 0.0 | 0.00 | 2.29 | 1.55 | 96 | 1015.4 |
| 20260508043747 | 12 | 349 | 0.0 | 0.0 | 0.00 | 2.29 | 1.55 | 96 | 1015.4 |
| 20260508043708 | 12 | 349 | 0.0 | 0.0 | 0.00 | 2.29 | 1.55 | 96 | 1015.5 |
| 20260508043540 | 12 | 349 | 0.0 | 0.0 | 0.00 | 2.29 | 1.55 | 96 | 1015.4 |
| 20260508043445 | 12 | 349 | 0.0 | 0.0 | 0.00 | 2.29 | 1.55 | 96 | 1015.4 |
| 20260508043346 | 12 | 349 | 0.0 | 0.0 | 0.00 | 2.29 | 1.55 | 96 | 1015.4 |
| 20260508043247 | 12 | 349 | 0.0 | 0.0 | 0.00 | 2.29 | 1.55 | 96 | 1015.4 |
| 20260508043148 | 12 | 349 | 0.0 | 0.0 | 0.00 | 2.29 | 1.55 | 96 | 1015.5 |
| 20260508043104 | 12 | 349 | 0.0 | 0.0 | 0.00 | 2.29 | 1.55 | 96 | 1014.9 |
| 20260508043046 | 12 | 349 | 0.0 | 0.0 | 0.00 | 2.29 | 1.55 | 96 | 1015.4 |
| 20260508043006 | 12 | 349 | 0.0 | 0.0 | 0.00 | 2.29 | 1.55 | 96 | 1015.4 |
| 20260508042840 | 12 | 349 | 0.0 | 0.0 | 0.00 | 2.29 | 1.55 | 96 | 1015.4 |
| 20260508042742 | 12 | 349 | 0.0 | 0.0 | 0.00 | 2.29 | 1.55 | 96 | 1015.4 |
| 20260508042640 | 12 | 349 | 0.0 | 0.0 | 0.00 | 2.29 | 1.55 | 96 | 1015.4 |
| 20260508042541 | 12 | 349 | 0.0 | 0.0 | 0.00 | 2.29 | 1.55 | 96 | 1015.4 |
| 20260508042502 | 12 | 349 | 0.0 | 0.0 | 0.00 | 2.29 | 1.55 | 96 | 1015.5 |
| 20260508042341 | 12 | 349 | 0.0 | 0.0 | 0.00 | 2.29 | 1.55 | 96 | 1015.5 |
| 20260508042242 | 12 | 349 | 0.0 | 0.0 | 0.00 | 2.29 | 1.55 | 96 | 1015.6 |
| 20260508042140 | 12 | 349 | 0.0 | 0.0 | 0.00 | 2.29 | 1.55 | 96 | 1015.6 |
| 20260508042046 | 12 | 349 | 0.0 | 0.0 | 0.00 | 2.29 | 1.55 | 96 | 1015.5 |
| 20260508041947 | 12 | 349 | 0.0 | 0.0 | 0.00 | 2.29 | 1.55 | 96 | 1015.4 |
| 20260508041847 | 12 | 349 | 0.0 | 0.0 | 0.00 | 2.67 | 1.55 | 96 | 1015.3 |
| 20260508041747 | 12 | 349 | 0.0 | 0.0 | 0.00 | 2.67 | 1.55 | 96 | 1015.3 |
| 20260508041706 | 12 | 349 | 0.0 | 0.0 | 0.00 | 2.67 | 1.55 | 96 | 1015.3 |
| 20260508041540 | 12 | 349 | 0.0 | 0.0 | 0.00 | 2.67 | 1.55 | 96 | 1015.4 |
| 20260508041517 | 12 | 349 | 0.0 | 0.0 | 0.00 | 2.67 | 1.55 | 96 | 1014.9 |
| 20260508041444 | 12 | 349 | 0.0 | 0.0 | 0.00 | 2.67 | 1.55 | 96 | 1015.4 |
| 20260508041403 | 12 | 349 | 0.0 | 0.0 | 0.00 | 2.67 | 1.55 | 96 | 1015.4 |
| 20260508041243 | 12 | 349 | 0.0 | 0.0 | 0.00 | 2.67 | 1.55 | 96 | 1015.4 |
| 20260508041142 | 12 | 349 | 0.0 | 0.0 | 0.00 | 2.67 | 1.55 | 96 | 1015.4 |
| 20260508041042 | 12 | 349 | 0.0 | 0.0 | 0.00 | 2.67 | 1.55 | 96 | 1015.4 |
| 20260508040942 | 12 | 349 | 0.0 | 0.0 | 0.00 | 2.67 | 1.55 | 96 | 1015.3 |
| 20260508040857 | 12 | 349 | 0.0 | 0.0 | 0.00 | 2.67 | 1.55 | 96 | 1015.3 |
| 20260508040757 | 12 | 349 | 0.0 | 0.0 | 0.00 | 2.67 | 1.55 | 96 | 1015.3 |
| 20260508040642 | 12 | 349 | 0.0 | 0.0 | 0.00 | 2.67 | 1.55 | 96 | 1015.3 |
| 20260508040543 | 12 | 349 | 0.0 | 0.0 | 0.00 | 2.67 | 1.55 | 96 | 1015.3 |
| 20260508040444 | 12 | 349 | 0.0 | 0.0 | 0.00 | 2.67 | 1.55 | 96 | 1015.4 |
| 20260508040404 | 12 | 349 | 0.0 | 0.0 | 0.00 | 2.67 | 1.55 | 96 | 1015.4 |
| 20260508040303 | 12 | 349 | 0.0 | 0.0 | 0.00 | 2.67 | 1.55 | 96 | 1015.3 |
| 20260508040226 | 12 | 349 | 0.0 | 0.0 | 0.00 | 2.67 | 1.55 | 96 | 1015.3 |
| 20260508040039 | 12 | 349 | 0.0 | 0.0 | 0.00 | 2.67 | 1.55 | 96 | 1014.8 |
| 20260508040017 | 12 | 349 | 0.0 | 0.0 | 0.00 | 2.67 | 1.55 | 96 | 1015.3 |
| 20260508035850 | 12 | 349 | 0.0 | 0.0 | 0.00 | 2.67 | 1.55 | 96 | 1015.3 |
| 20260508035810 | 12 | 349 | 0.0 | 0.0 | 0.00 | 2.67 | 1.55 | 96 | 1015.3 |
| 20260508035650 | 12 | 349 | 0.0 | 0.0 | 0.00 | 2.67 | 1.55 | 96 | 1015.4 |
| 20260508035550 | 12 | 349 | 0.0 | 0.0 | 0.00 | 2.67 | 1.55 | 96 | 1015.3 |
| 20260508035451 | 12 | 349 | 0.0 | 0.0 | 0.00 | 2.67 | 1.55 | 96 | 1015.3 |
| 20260508035352 | 12 | 349 | 0.0 | 0.0 | 0.00 | 2.67 | 1.55 | 96 | 1015.3 |
| 20260508035257 | 12 | 349 | 0.0 | 0.0 | 0.00 | 2.67 | 1.55 | 96 | 1015.3 |
| 20260508035218 | 12 | 349 | 0.0 | 0.0 | 0.00 | 2.67 | 1.55 | 96 | 1015.2 |
| 20260508035057 | 12 | 349 | 0.0 | 0.0 | 0.00 | 2.67 | 1.55 | 96 | 1015.3 |
| 20260508034957 | 12 | 349 | 0.0 | 0.0 | 0.00 | 2.67 | 1.55 | 96 | 1015.3 |
| 20260508034857 | 12 | 349 | 0.0 | 0.0 | 0.00 | 2.67 | 1.55 | 96 | 1015.3 |
| 20260508034757 | 12 | 349 | 0.0 | 0.0 | 0.00 | 2.67 | 1.55 | 96 | 1015.2 |
| 20260508034719 | 12 | 349 | 0.0 | 0.0 | 0.00 | 2.67 | 1.55 | 96 | 1015.2 |
| 20260508034628 | 12 | 349 | 0.0 | 0.0 | 0.00 | 2.67 | 1.55 | 96 | 1014.6 |
| 20260508034543 | 12 | 349 | 0.0 | 0.0 | 0.00 | 2.67 | 1.55 | 96 | 1015.2 |
| 20260508034504 | 12 | 349 | 0.0 | 0.0 | 0.00 | 2.67 | 1.55 | 96 | 1015.2 |
| 20260508034344 | 12 | 349 | 0.0 | 0.0 | 0.00 | 2.67 | 1.55 | 96 | 1015.2 |
| 20260508034243 | 12 | 349 | 0.0 | 0.0 | 0.00 | 2.67 | 1.55 | 96 | 1015.2 |
| 20260508034144 | 12 | 349 | 0.0 | 0.0 | 0.00 | 2.67 | 1.55 | 96 | 1015.2 |
| 20260508034103 | 12 | 349 | 0.0 | 0.0 | 0.00 | 2.67 | 1.55 | 96 | 1015.2 |
| 20260508033941 | 12 | 349 | 0.0 | 0.0 | 0.00 | 2.67 | 1.55 | 96 | 1015.2 |
| 20260508033842 | 12 | 349 | 0.0 | 0.0 | 0.00 | 2.67 | 1.55 | 96 | 1015.3 |
| 20260508033805 | 12 | 349 | 0.0 | 0.0 | 0.00 | 2.67 | 1.55 | 96 | 1015.2 |
| 20260508033643 | 12 | 349 | 0.0 | 0.0 | 0.00 | 2.67 | 1.55 | 96 | 1015.2 |
| 20260508033543 | 12 | 349 | 0.0 | 0.0 | 0.00 | 2.67 | 1.55 | 96 | 1015.3 |
| 20260508033444 | 12 | 349 | 0.0 | 0.0 | 0.00 | 2.67 | 1.55 | 96 | 1015.3 |
| 20260508033405 | 12 | 349 | 0.0 | 0.0 | 0.00 | 2.67 | 1.55 | 96 | 1015.4 |
| 20260508033241 | 12 | 349 | 0.0 | 0.0 | 0.00 | 2.67 | 1.55 | 96 | 1015.4 |
| 20260508033140 | 12 | 349 | 0.0 | 0.0 | 0.00 | 2.67 | 1.55 | 96 | 1015.4 |
| 20260508033041 | 12 | 349 | 0.0 | 0.0 | 0.00 | 2.67 | 1.55 | 96 | 1015.4 |
| 20260508033011 | 12 | 349 | 0.0 | 0.0 | 0.00 | 2.67 | 1.55 | 96 | 1014.8 |
| 20260508032945 | 12 | 349 | 0.0 | 0.0 | 0.00 | 2.67 | 1.55 | 96 | 1015.3 |
| 20260508032845 | 12 | 349 | 0.0 | 0.0 | 0.00 | 2.67 | 1.55 | 96 | 1015.3 |
| 20260508032745 | 12 | 349 | 0.0 | 0.0 | 0.00 | 2.67 | 1.55 | 96 | 1015.3 |
| 20260508032645 | 12 | 349 | 0.0 | 0.0 | 0.00 | 2.67 | 1.55 | 96 | 1015.3 |
| 20260508032544 | 12 | 349 | 0.0 | 0.0 | 0.00 | 2.67 | 1.55 | 96 | 1015.3 |
| 20260508032505 | 12 | 349 | 0.0 | 0.0 | 0.00 | 2.67 | 1.55 | 96 | 1015.4 |
| 20260508032344 | 12 | 349 | 0.0 | 0.0 | 0.00 | 2.67 | 1.55 | 96 | 1015.4 |
| 20260508032247 | 12 | 349 | 0.0 | 0.0 | 0.00 | 2.67 | 1.55 | 96 | 1015.3 |
| 20260508032143 | 12 | 349 | 0.0 | 0.0 | 0.00 | 2.67 | 1.55 | 96 | 1015.3 |
| 20260508032043 | 12 | 349 | 0.0 | 0.0 | 0.00 | 2.67 | 1.55 | 96 | 1015.3 |
| 20260508032002 | 12 | 349 | 0.0 | 0.0 | 0.00 | 2.67 | 1.55 | 96 | 1015.3 |
| 20260508031922 | 12 | 349 | 0.0 | 0.0 | 0.00 | 3.02 | 1.55 | 96 | 1015.3 |
| 20260508031818 | 12 | 349 | 0.0 | 0.0 | 0.00 | 3.02 | 1.55 | 96 | 1015.3 |
| 20260508031657 | 12 | 349 | 0.0 | 0.0 | 0.00 | 3.02 | 1.55 | 96 | 1015.3 |
| 20260508031604 | 12 | 349 | 0.0 | 0.0 | 0.00 | 3.02 | 1.55 | 96 | 1014.7 |
| 20260508031542 | 12 | 349 | 0.0 | 0.0 | 0.00 | 3.02 | 1.55 | 96 | 1015.3 |
| 20260508031443 | 12 | 349 | 0.0 | 0.0 | 0.00 | 3.02 | 1.55 | 96 | 1015.3 |
| 20260508031343 | 12 | 349 | 0.0 | 0.0 | 0.00 | 3.02 | 1.55 | 96 | 1015.2 |
| 20260508031242 | 12 | 349 | 0.0 | 0.0 | 0.00 | 3.02 | 1.55 | 96 | 1015.2 |
| 20260508031141 | 12 | 349 | 0.0 | 0.0 | 0.00 | 3.02 | 1.55 | 96 | 1015.2 |
| 20260508031102 | 12 | 349 | 0.0 | 0.0 | 0.00 | 3.02 | 1.55 | 96 | 1015.2 |
| 20260508030958 | 12 | 349 | 0.0 | 0.0 | 0.00 | 3.02 | 1.55 | 96 | 1015.2 |
| 20260508030901 | 12 | 349 | 0.0 | 0.0 | 0.00 | 3.02 | 1.55 | 96 | 1015.2 |
| 20260508030821 | 12 | 349 | 0.0 | 0.0 | 0.00 | 3.02 | 1.55 | 96 | 1015.1 |
| 20260508030659 | 12 | 349 | 0.0 | 0.0 | 0.00 | 3.02 | 1.55 | 96 | 1015.1 |
| 20260508030559 | 12 | 349 | 0.0 | 0.0 | 0.00 | 3.02 | 1.55 | 96 | 1015.1 |
| 20260508030458 | 12 | 349 | 0.0 | 0.0 | 0.00 | 3.02 | 1.55 | 96 | 1015.1 |
| 20260508030359 | 12 | 349 | 0.0 | 0.0 | 0.00 | 3.02 | 1.55 | 96 | 1015.1 |
| 20260508030255 | 12 | 349 | 0.0 | 0.0 | 0.00 | 3.02 | 1.55 | 96 | 1015.1 |
| 20260508030227 | 12 | 349 | 0.0 | 0.0 | 0.00 | 3.02 | 1.55 | 96 | 1015.1 |
| 20260508030007 | 12 | 349 | 0.0 | 0.0 | 0.00 | 3.02 | 1.55 | 96 | 1014.4 |
| 20260508025953 | 12 | 349 | 0.0 | 0.0 | 0.00 | 3.02 | 1.55 | 96 | 1015.0 |
| 20260508025853 | 12 | 349 | 0.0 | 0.0 | 0.00 | 3.02 | 1.55 | 96 | 1015.1 |
| 20260508025813 | 12 | 349 | 0.0 | 0.0 | 0.00 | 3.02 | 1.55 | 96 | 1015.1 |
| 20260508025653 | 12 | 349 | 0.0 | 0.0 | 0.00 | 3.02 | 1.55 | 96 | 1015.1 |
| 20260508025553 | 12 | 349 | 0.0 | 0.0 | 0.00 | 3.02 | 1.55 | 96 | 1015.1 |
| 20260508025457 | 12 | 349 | 0.0 | 0.0 | 0.00 | 3.02 | 1.55 | 96 | 1015.1 |
| 20260508025416 | 12 | 349 | 0.0 | 0.0 | 0.00 | 3.02 | 1.55 | 96 | 1015.1 |
| 20260508025254 | 13 | 349 | 0.0 | 0.0 | 0.00 | 3.02 | 1.55 | 96 | 1015.1 |
| 20260508025156 | 12 | 349 | 0.0 | 0.0 | 0.00 | 3.02 | 1.55 | 96 | 1015.0 |
| 20260508025050 | 13 | 349 | 0.0 | 0.0 | 0.00 | 3.02 | 1.55 | 96 | 1015.0 |
| 20260508024951 | 13 | 349 | 0.0 | 0.0 | 0.00 | 3.02 | 1.55 | 96 | 1015.0 |
| 20260508024849 | 13 | 349 | 0.0 | 0.0 | 0.00 | 3.02 | 1.55 | 96 | 1015.0 |
| 20260508024755 | 13 | 349 | 0.0 | 0.0 | 0.00 | 3.02 | 1.55 | 96 | 1015.0 |
| 20260508024715 | 13 | 349 | 0.0 | 0.0 | 0.00 | 3.02 | 1.55 | 96 | 1014.9 |
| 20260508024607 | 12 | 349 | 0.0 | 0.0 | 0.00 | 3.02 | 1.55 | 96 | 1014.4 |
| 20260508024550 | 13 | 349 | 0.0 | 0.0 | 0.00 | 3.02 | 1.55 | 96 | 1015.0 |
| 20260508024450 | 13 | 349 | 0.0 | 0.0 | 0.00 | 3.02 | 1.55 | 96 | 1014.9 |
| 20260508024349 | 13 | 349 | 0.0 | 0.0 | 0.00 | 3.02 | 1.55 | 96 | 1015.0 |
| 20260508024249 | 13 | 349 | 0.0 | 0.0 | 0.00 | 3.02 | 1.55 | 96 | 1014.9 |
| 20260508024150 | 13 | 349 | 0.0 | 0.0 | 0.00 | 3.02 | 1.55 | 96 | 1015.0 |
| 20260508024054 | 13 | 349 | 0.0 | 0.0 | 0.00 | 3.02 | 1.55 | 96 | 1015.0 |
| 20260508023954 | 13 | 349 | 0.0 | 0.0 | 0.00 | 3.02 | 1.55 | 96 | 1015.0 |
| 20260508023854 | 13 | 349 | 0.0 | 0.0 | 0.00 | 3.02 | 1.55 | 96 | 1015.0 |
| 20260508023815 | 13 | 349 | 0.0 | 0.0 | 0.00 | 3.02 | 1.55 | 96 | 1015.0 |
| 20260508023654 | 13 | 349 | 0.0 | 0.0 | 0.00 | 3.02 | 1.55 | 96 | 1015.0 |
| 20260508023611 | 13 | 349 | 0.0 | 0.0 | 0.00 | 3.02 | 1.55 | 96 | 1015.0 |
| 20260508023507 | 13 | 349 | 0.0 | 0.0 | 0.00 | 3.02 | 1.55 | 96 | 1014.9 |
| 20260508023407 | 13 | 349 | 0.0 | 0.0 | 0.00 | 3.02 | 1.55 | 96 | 1014.9 |
| 20260508023246 | 13 | 349 | 0.0 | 0.0 | 0.00 | 3.02 | 1.55 | 96 | 1014.9 |
| 20260508023143 | 13 | 349 | 0.0 | 0.0 | 0.00 | 3.02 | 1.55 | 96 | 1014.9 |
| 20260508023117 | 12 | 349 | 0.0 | 0.0 | 0.00 | 3.02 | 1.55 | 96 | 1014.3 |
| 20260508023104 | 13 | 349 | 0.0 | 0.0 | 0.00 | 3.02 | 1.55 | 96 | 1014.9 |
| 20260508022942 | 13 | 349 | 0.0 | 0.0 | 0.00 | 3.02 | 1.55 | 96 | 1014.8 |
| 20260508022841 | 13 | 349 | 0.0 | 0.0 | 0.00 | 3.02 | 1.55 | 96 | 1014.8 |
| 20260508022802 | 13 | 349 | 0.0 | 0.0 | 0.00 | 3.02 | 1.55 | 96 | 1014.8 |
| 20260508022658 | 13 | 349 | 0.0 | 0.0 | 0.00 | 3.02 | 1.55 | 95 | 1014.8 |
| 20260508022557 | 13 | 349 | 0.0 | 0.0 | 0.00 | 3.02 | 1.55 | 96 | 1014.7 |
| 20260508022501 | 13 | 349 | 0.0 | 0.0 | 0.00 | 3.02 | 1.55 | 95 | 1014.7 |
| 20260508022359 | 13 | 349 | 0.0 | 0.0 | 0.00 | 3.02 | 1.55 | 95 | 1014.7 |
| 20260508022259 | 13 | 349 | 0.0 | 0.0 | 0.00 | 3.02 | 1.55 | 95 | 1014.6 |
| 20260508022200 | 13 | 349 | 0.0 | 0.0 | 0.00 | 3.02 | 1.55 | 95 | 1014.7 |
| 20260508022121 | 13 | 349 | 0.0 | 0.0 | 0.00 | 3.02 | 1.55 | 96 | 1014.6 |
| 20260508022021 | 13 | 349 | 0.0 | 0.0 | 0.00 | 3.02 | 1.55 | 95 | 1014.6 |
| 20260508021855 | 13 | 349 | 0.0 | 0.0 | 0.00 | 3.30 | 1.55 | 96 | 1014.6 |
| 20260508021740 | 13 | 349 | 0.0 | 0.0 | 0.00 | 3.30 | 1.55 | 96 | 1014.6 |
| 20260508021701 | 13 | 349 | 0.0 | 0.0 | 0.00 | 3.30 | 1.55 | 96 | 1014.6 |
| 20260508021622 | 13 | 349 | 0.0 | 0.0 | 0.00 | 3.30 | 1.55 | 96 | 1014.5 |
| 20260508021552 | 12 | 349 | 0.0 | 0.0 | 0.00 | 3.30 | 1.55 | 96 | 1014.0 |
| 20260508021521 | 13 | 349 | 0.0 | 0.0 | 0.00 | 3.30 | 1.55 | 96 | 1014.5 |
| 20260508021419 | 13 | 349 | 0.0 | 0.0 | 0.00 | 3.30 | 1.55 | 96 | 1014.4 |
| 20260508021258 | 13 | 349 | 0.0 | 0.0 | 0.00 | 3.30 | 1.55 | 96 | 1014.3 |
| 20260508021157 | 13 | 349 | 0.0 | 0.0 | 0.00 | 3.30 | 1.55 | 95 | 1014.3 |
| 20260508021056 | 13 | 349 | 0.0 | 0.0 | 0.00 | 3.30 | 1.55 | 95 | 1014.3 |
| 20260508021011 | 13 | 349 | 0.0 | 0.0 | 0.00 | 3.30 | 1.55 | 95 | 1014.2 |
| 20260508020854 | 13 | 349 | 0.0 | 0.0 | 0.00 | 3.30 | 1.55 | 95 | 1014.2 |
| 20260508020810 | 13 | 349 | 0.0 | 0.0 | 0.00 | 3.30 | 1.55 | 95 | 1014.3 |
| 20260508020649 | 13 | 349 | 0.0 | 0.0 | 0.00 | 3.30 | 1.55 | 95 | 1014.3 |
| 20260508020548 | 13 | 349 | 0.0 | 0.0 | 0.00 | 3.30 | 1.55 | 95 | 1014.3 |
| 20260508020506 | 13 | 349 | 0.0 | 0.0 | 0.00 | 3.30 | 1.55 | 95 | 1014.3 |
| 20260508020345 | 13 | 349 | 0.0 | 0.0 | 0.00 | 3.30 | 1.55 | 95 | 1014.3 |
| 20260508020246 | 13 | 349 | 0.0 | 0.0 | 0.00 | 3.30 | 1.55 | 95 | 1014.3 |
| 20260508020218 | 13 | 349 | 0.0 | 0.0 | 0.00 | 3.30 | 1.55 | 95 | 1014.3 |
| 20260508020018 | 13 | 349 | 0.0 | 0.0 | 0.00 | 3.30 | 1.55 | 95 | 1013.7 |
| 20260508015946 | 13 | 349 | 0.0 | 0.0 | 0.00 | 3.30 | 1.55 | 95 | 1014.3 |
| 20260508015845 | 13 | 349 | 0.0 | 0.0 | 0.00 | 3.30 | 1.55 | 95 | 1014.2 |
| 20260508015746 | 13 | 349 | 0.0 | 0.0 | 0.00 | 3.30 | 1.55 | 95 | 1014.3 |
| 20260508015706 | 13 | 349 | 0.0 | 0.0 | 0.00 | 3.30 | 1.55 | 95 | 1014.3 |
| 20260508015543 | 13 | 349 | 0.0 | 0.0 | 0.00 | 3.30 | 1.55 | 95 | 1014.2 |
| 20260508015503 | 13 | 349 | 0.0 | 0.0 | 0.00 | 3.30 | 1.55 | 95 | 1014.2 |
| 20260508015345 | 13 | 349 | 0.0 | 0.0 | 0.00 | 3.30 | 1.55 | 95 | 1014.1 |
| 20260508015247 | 13 | 349 | 0.0 | 0.0 | 0.00 | 3.30 | 1.55 | 96 | 1014.2 |
| 20260508015148 | 13 | 349 | 0.0 | 0.0 | 0.00 | 3.30 | 1.55 | 96 | 1014.2 |
| 20260508015108 | 13 | 349 | 0.0 | 0.0 | 0.00 | 3.30 | 1.55 | 96 | 1014.2 |
| 20260508015007 | 13 | 349 | 0.0 | 0.0 | 0.00 | 3.30 | 1.55 | 96 | 1014.2 |
| 20260508014847 | 13 | 349 | 0.0 | 0.0 | 0.00 | 3.30 | 1.55 | 96 | 1014.2 |
| 20260508014747 | 13 | 349 | 0.0 | 0.0 | 0.00 | 3.30 | 1.55 | 96 | 1014.2 |
| 20260508014651 | 13 | 349 | 0.0 | 0.0 | 0.00 | 3.30 | 1.55 | 95 | 1014.2 |
| 20260508014551 | 13 | 349 | 0.0 | 0.0 | 0.00 | 3.30 | 1.55 | 96 | 1014.2 |
| 20260508014547 | 13 | 349 | 0.0 | 0.0 | 0.00 | 3.30 | 1.55 | 96 | 1013.6 |
| 20260508014512 | 13 | 349 | 0.0 | 0.0 | 0.00 | 3.30 | 1.55 | 95 | 1014.2 |
| 20260508014350 | 13 | 349 | 0.0 | 0.0 | 0.00 | 3.30 | 1.55 | 96 | 1014.2 |
| 20260508014250 | 13 | 349 | 0.0 | 0.0 | 0.00 | 3.30 | 1.55 | 96 | 1014.1 |
| 20260508014146 | 13 | 349 | 0.0 | 0.0 | 0.00 | 3.30 | 1.55 | 95 | 1014.1 |
| 20260508014046 | 13 | 349 | 0.0 | 0.0 | 0.00 | 3.30 | 1.55 | 95 | 1014.0 |
| 20260508013950 | 13 | 349 | 0.0 | 0.0 | 0.00 | 3.30 | 1.55 | 95 | 1014.0 |
| 20260508013850 | 13 | 349 | 0.0 | 0.0 | 0.00 | 3.30 | 1.55 | 95 | 1014.0 |
| 20260508013747 | 13 | 349 | 0.0 | 0.0 | 0.00 | 3.30 | 1.55 | 95 | 1013.9 |
| 20260508013650 | 13 | 349 | 0.0 | 0.0 | 0.00 | 3.30 | 1.55 | 95 | 1014.0 |
| 20260508013550 | 13 | 349 | 0.0 | 0.0 | 0.00 | 3.30 | 1.55 | 95 | 1014.0 |
| 20260508013451 | 13 | 349 | 0.0 | 0.0 | 0.00 | 3.30 | 1.55 | 95 | 1014.0 |
| 20260508013409 | 13 | 349 | 0.0 | 0.0 | 0.00 | 3.30 | 1.55 | 95 | 1013.9 |
| 20260508013251 | 13 | 349 | 0.0 | 0.0 | 0.00 | 3.30 | 1.55 | 95 | 1013.9 |
| 20260508013204 | 13 | 349 | 0.0 | 0.0 | 0.00 | 3.30 | 1.55 | 95 | 1013.8 |
| 20260508013123 | 13 | 349 | 0.0 | 0.0 | 0.00 | 3.30 | 1.55 | 95 | 1013.2 |
| 20260508013042 | 13 | 349 | 0.0 | 0.0 | 0.00 | 3.30 | 1.55 | 95 | 1013.8 |
| 20260508013002 | 13 | 349 | 0.0 | 0.0 | 0.00 | 3.30 | 1.55 | 95 | 1013.7 |
| 20260508012921 | 13 | 349 | 0.0 | 0.0 | 0.00 | 3.30 | 1.55 | 96 | 1013.8 |
| 20260508012759 | 13 | 349 | 0.0 | 0.0 | 0.00 | 3.30 | 1.55 | 95 | 1013.7 |
| 20260508012658 | 13 | 349 | 0.0 | 0.0 | 0.00 | 3.30 | 1.55 | 95 | 1013.8 |
| 20260508012558 | 13 | 349 | 0.0 | 0.0 | 0.00 | 3.30 | 1.55 | 95 | 1013.8 |
| 20260508012500 | 13 | 349 | 0.0 | 0.0 | 0.00 | 3.30 | 1.55 | 95 | 1013.9 |
| 20260508012418 | 13 | 349 | 0.0 | 0.0 | 0.00 | 3.30 | 1.55 | 95 | 1013.8 |
| 20260508012257 | 13 | 349 | 0.0 | 0.0 | 0.00 | 3.30 | 1.55 | 95 | 1013.8 |
| 20260508012157 | 13 | 349 | 0.0 | 0.0 | 0.00 | 3.30 | 1.55 | 95 | 1013.8 |
| 20260508012058 | 13 | 349 | 0.0 | 0.0 | 0.00 | 3.30 | 1.55 | 95 | 1013.9 |
| 20260508011956 | 13 | 349 | 0.0 | 0.0 | 0.00 | 3.30 | 1.55 | 95 | 1013.9 |
| 20260508011852 | 13 | 349 | 0.0 | 0.0 | 0.00 | 3.33 | 1.55 | 95 | 1013.9 |
| 20260508011756 | 13 | 349 | 0.0 | 0.0 | 0.00 | 3.33 | 1.55 | 95 | 1013.9 |
| 20260508011718 | 13 | 349 | 0.0 | 0.0 | 0.00 | 3.33 | 1.55 | 95 | 1013.8 |
| 20260508011556 | 13 | 349 | 0.0 | 0.0 | 0.00 | 3.33 | 1.55 | 95 | 1013.7 |
| 20260508011543 | 13 | 349 | 0.0 | 0.0 | 0.00 | 3.33 | 1.55 | 95 | 1013.1 |
| 20260508011454 | 13 | 349 | 0.0 | 0.0 | 0.00 | 3.33 | 1.55 | 95 | 1013.7 |
| 20260508011355 | 13 | 349 | 0.0 | 0.0 | 0.00 | 3.33 | 1.55 | 95 | 1013.7 |
| 20260508011255 | 13 | 349 | 0.0 | 0.0 | 0.00 | 3.33 | 1.55 | 95 | 1013.6 |
| 20260508011151 | 13 | 349 | 0.0 | 0.0 | 0.00 | 3.33 | 1.55 | 95 | 1013.5 |
| 20260508011057 | 13 | 349 | 0.0 | 0.0 | 0.00 | 3.33 | 1.55 | 95 | 1013.6 |
| 20260508010957 | 13 | 349 | 0.0 | 0.0 | 0.00 | 3.33 | 1.55 | 95 | 1013.6 |
| 20260508010857 | 13 | 349 | 0.0 | 0.0 | 0.00 | 3.33 | 1.55 | 95 | 1013.6 |
| 20260508010757 | 13 | 349 | 0.0 | 0.0 | 0.00 | 3.33 | 1.55 | 95 | 1013.5 |
| 20260508010655 | 13 | 349 | 0.0 | 0.0 | 0.00 | 3.33 | 1.55 | 95 | 1013.4 |
| 20260508010554 | 13 | 349 | 0.0 | 0.0 | 0.00 | 3.33 | 1.55 | 95 | 1013.4 |
| 20260508010453 | 13 | 349 | 0.0 | 0.0 | 0.00 | 3.33 | 1.55 | 95 | 1013.4 |
| 20260508010355 | 13 | 349 | 0.0 | 0.0 | 0.00 | 3.33 | 1.55 | 95 | 1013.4 |
| 20260508010254 | 13 | 349 | 0.0 | 0.0 | 0.00 | 3.33 | 1.55 | 95 | 1013.3 |
| 20260508010221 | 13 | 349 | 0.0 | 0.0 | 0.00 | 3.33 | 1.55 | 95 | 1013.3 |
| 20260508010009 | 13 | 349 | 0.0 | 0.0 | 0.00 | 3.33 | 1.55 | 95 | 1013.3 |
| 20260508005848 | 13 | 349 | 0.0 | 0.0 | 0.00 | 3.33 | 1.55 | 95 | 1013.3 |
| 20260508005753 | 13 | 349 | 0.0 | 0.0 | 0.00 | 3.33 | 1.55 | 95 | 1013.3 |
| 20260508005655 | 13 | 349 | 0.0 | 0.0 | 0.00 | 3.33 | 1.55 | 95 | 1013.3 |
| 20260508005555 | 13 | 349 | 0.0 | 0.0 | 0.00 | 3.33 | 1.55 | 95 | 1013.3 |
| 20260508005453 | 13 | 349 | 0.0 | 0.0 | 0.00 | 3.33 | 1.55 | 95 | 1013.2 |
| 20260508005354 | 13 | 349 | 0.0 | 0.0 | 0.00 | 3.33 | 1.55 | 95 | 1013.1 |
| 20260508005252 | 13 | 349 | 0.0 | 0.0 | 0.00 | 3.33 | 1.55 | 95 | 1013.1 |
| 20260508005212 | 13 | 349 | 0.0 | 0.0 | 0.00 | 3.33 | 1.55 | 95 | 1013.1 |
| 20260508005056 | 13 | 349 | 0.0 | 0.0 | 0.00 | 3.33 | 1.55 | 95 | 1013.1 |
| 20260508004957 | 13 | 349 | 0.0 | 0.0 | 0.00 | 3.33 | 1.55 | 95 | 1013.0 |
| 20260508004855 | 13 | 349 | 0.0 | 0.0 | 0.00 | 3.33 | 1.55 | 95 | 1012.9 |
| 20260508004756 | 13 | 349 | 0.0 | 0.0 | 0.00 | 3.33 | 1.55 | 95 | 1012.9 |
| 20260508004656 | 13 | 349 | 0.0 | 0.0 | 0.00 | 3.33 | 1.55 | 95 | 1012.9 |
| 20260508004613 | 13 | 349 | 0.0 | 0.0 | 0.00 | 3.33 | 1.55 | 95 | 1012.2 |
| 20260508004556 | 13 | 349 | 0.0 | 0.0 | 0.00 | 3.33 | 1.55 | 95 | 1012.9 |
| 20260508004456 | 13 | 348 | 0.0 | 0.0 | 0.00 | 3.33 | 1.55 | 95 | 1012.9 |
| 20260508004341 | 13 | 348 | 0.0 | 0.0 | 0.00 | 3.33 | 1.55 | 95 | 1012.8 |
| 20260508004301 | 13 | 348 | 0.0 | 0.0 | 0.00 | 3.33 | 1.55 | 95 | 1012.8 |
| 20260508004221 | 13 | 348 | 0.0 | 0.0 | 0.00 | 3.33 | 1.55 | 95 | 1012.7 |
| 20260508004118 | 13 | 344 | 0.0 | 0.0 | 0.00 | 3.33 | 1.55 | 95 | 1012.7 |
| 20260508003952 | 13 | 346 | 0.0 | 0.0 | 0.00 | 3.33 | 1.55 | 95 | 1012.7 |
| 20260508003851 | 13 | 348 | 0.0 | 0.0 | 0.00 | 3.33 | 1.55 | 95 | 1012.7 |
| 20260508003813 | 13 | 350 | 0.0 | 0.0 | 0.00 | 3.33 | 1.55 | 95 | 1012.7 |
| 20260508003653 | 13 | 350 | 0.0 | 0.0 | 0.00 | 3.33 | 1.55 | 95 | 1012.7 |
| 20260508003556 | 13 | 338 | 0.0 | 0.0 | 0.00 | 3.33 | 1.55 | 95 | 1012.7 |
| 20260508003457 | 13 | 345 | 0.0 | 0.0 | 0.00 | 3.33 | 1.55 | 95 | 1012.7 |
| 20260508003358 | 13 | 342 | 0.0 | 0.0 | 0.00 | 3.33 | 1.55 | 95 | 1012.6 |
| 20260508003258 | 13 | 349 | 0.0 | 0.0 | 0.00 | 3.33 | 1.55 | 95 | 1012.6 |
| 20260508003157 | 13 | 342 | 0.0 | 0.0 | 0.00 | 3.33 | 1.55 | 95 | 1012.6 |
| 20260508003055 | 13 | 355 | 0.0 | 0.0 | 0.00 | 3.33 | 1.55 | 95 | 1012.6 |
| 20260508003051 | 13 | 351 | 0.0 | 0.0 | 0.00 | 3.33 | 1.55 | 95 | 1012.0 |
| 20260508003013 | 13 | 355 | 0.0 | 0.0 | 0.00 | 3.33 | 1.55 | 95 | 1012.6 |
| 20260508002856 | 13 | 355 | 0.0 | 0.0 | 0.00 | 3.33 | 1.55 | 95 | 1012.6 |
| 20260508002814 | 13 | 17 | 0.0 | 0.0 | 0.00 | 3.33 | 1.55 | 95 | 1012.5 |
| 20260508002653 | 13 | 5 | 0.0 | 0.0 | 0.00 | 3.33 | 1.55 | 95 | 1012.4 |
| 20260508002549 | 13 | 340 | 0.0 | 0.0 | 0.00 | 3.33 | 1.55 | 95 | 1012.5 |
| 20260508002451 | 13 | 351 | 0.0 | 0.0 | 0.00 | 3.33 | 1.55 | 95 | 1012.5 |
| 20260508002351 | 13 | 341 | 0.0 | 0.0 | 0.00 | 3.33 | 1.55 | 95 | 1012.6 |
| 20260508002249 | 13 | 333 | 0.0 | 0.0 | 0.00 | 3.33 | 1.55 | 95 | 1012.6 |
| 20260508002154 | 13 | 331 | 0.0 | 0.0 | 0.00 | 3.33 | 1.55 | 95 | 1012.5 |
| 20260508002054 | 13 | 350 | 0.0 | 0.0 | 0.00 | 3.33 | 1.55 | 95 | 1012.5 |
| 20260508002014 | 13 | 350 | 0.0 | 0.0 | 0.00 | 3.33 | 1.55 | 95 | 1012.4 |
| 20260508001853 | 13 | 351 | 0.0 | 0.0 | 0.00 | 3.33 | 1.55 | 95 | 1012.5 |
| 20260508001753 | 13 | 360 | 0.0 | 0.0 | 0.00 | 3.33 | 1.55 | 95 | 1012.5 |
| 20260508001652 | 13 | 345 | 0.0 | 0.0 | 0.00 | 3.33 | 1.55 | 95 | 1012.5 |
| 20260508001553 | 13 | 349 | 0.0 | 0.0 | 0.00 | 3.33 | 1.55 | 95 | 1012.5 |
| 20260508001514 | 13 | 355 | 0.0 | 0.0 | 0.00 | 3.33 | 1.55 | 95 | 1011.7 |
| 20260508001452 | 13 | 355 | 0.0 | 0.0 | 0.00 | 3.33 | 1.55 | 95 | 1012.4 |
| 20260508001352 | 13 | 309 | 0.0 | 0.0 | 0.00 | 3.33 | 1.55 | 95 | 1012.3 |
| 20260508001252 | 13 | 355 | 0.0 | 0.0 | 0.00 | 3.33 | 1.55 | 95 | 1012.3 |
| 20260508001153 | 13 | 360 | 0.0 | 0.0 | 0.00 | 3.33 | 1.55 | 95 | 1012.3 |
| 20260508001052 | 13 | 5 | 0.0 | 0.0 | 0.00 | 3.33 | 1.55 | 95 | 1012.2 |
| 20260508000952 | 13 | 355 | 0.0 | 0.0 | 0.00 | 3.33 | 1.55 | 95 | 1012.3 |
| 20260508000853 | 13 | 347 | 0.0 | 0.0 | 0.00 | 3.33 | 1.55 | 95 | 1012.4 |
| 20260508000815 | 13 | 5 | 0.0 | 0.0 | 0.00 | 3.33 | 1.55 | 95 | 1012.4 |
| 20260508000651 | 13 | 355 | 0.0 | 0.0 | 0.00 | 3.33 | 1.55 | 95 | 1012.4 |
| 20260508000551 | 13 | 355 | 0.0 | 0.0 | 0.00 | 3.33 | 1.55 | 95 | 1012.4 |
| 20260508000451 | 13 | 344 | 0.0 | 0.0 | 0.03 | 3.33 | 1.55 | 94 | 1012.4 |
| 20260508000412 | 13 | 339 | 0.0 | 0.0 | 0.03 | 3.33 | 1.55 | 94 | 1012.3 |
| 20260508000250 | 13 | 348 | 0.0 | 0.0 | 0.03 | 3.33 | 1.55 | 95 | 1012.1 |
| 20260508000219 | 13 | 348 | 0.0 | 0.0 | 0.03 | 3.33 | 1.55 | 95 | 1012.1 |
| 20260507235944 | 13 | 360 | 0.0 | 0.0 | 0.03 | 3.33 | 1.55 | 95 | 1011.8 |
| 20260507235844 | 13 | 355 | 0.0 | 0.0 | 0.03 | 3.33 | 1.55 | 95 | 1011.7 |
| 20260507235741 | 13 | 355 | 0.0 | 0.0 | 0.03 | 3.33 | 1.55 | 95 | 1011.7 |
| 20260507235641 | 13 | 9 | 0.0 | 0.0 | 0.05 | 3.33 | 1.55 | 95 | 1011.6 |
| 20260507235540 | 13 | 348 | 0.0 | 0.0 | 0.05 | 3.33 | 1.55 | 95 | 1011.7 |
| 20260507235443 | 13 | 5 | 0.0 | 0.0 | 0.05 | 3.33 | 1.55 | 95 | 1011.6 |
| 20260507235345 | 13 | 11 | 0.0 | 0.0 | 0.08 | 3.33 | 1.55 | 95 | 1011.6 |
| 20260507235247 | 13 | 33 | 0.0 | 0.0 | 0.08 | 3.33 | 1.55 | 94 | 1011.6 |
| 20260507235148 | 13 | 5 | 0.0 | 0.0 | 0.08 | 3.33 | 1.55 | 95 | 1011.5 |
| 20260507235047 | 13 | 342 | 0.0 | 0.0 | 0.08 | 3.33 | 1.55 | 95 | 1011.4 |
| 20260507234948 | 13 | 27 | 0.0 | 0.0 | 0.10 | 3.33 | 1.55 | 95 | 1011.4 |
| 20260507234849 | 13 | 360 | 0.0 | 0.0 | 0.10 | 3.33 | 1.55 | 94 | 1011.4 |
| 20260507234816 | 13 | 27 | 0.0 | 0.0 | 0.10 | 3.33 | 1.55 | 94 | 1011.5 |
| 20260507234655 | 13 | 343 | 0.0 | 0.0 | 0.13 | 3.33 | 1.55 | 94 | 1011.5 |
| 20260507234556 | 13 | 34 | 0.0 | 0.0 | 0.13 | 3.33 | 1.55 | 94 | 1011.6 |
| 20260507234528 | 13 | 5 | 0.0 | 0.0 | 0.13 | 3.33 | 1.55 | 94 | 1010.9 |
| 20260507234455 | 13 | 17 | 0.0 | 0.0 | 0.13 | 3.33 | 1.55 | 94 | 1011.7 |
| 20260507234359 | 13 | 5 | 0.0 | 0.0 | 0.13 | 3.33 | 1.55 | 95 | 1011.6 |
| 20260507234319 | 13 | 46 | 0.0 | 0.0 | 0.13 | 3.33 | 1.55 | 95 | 1011.6 |
| 20260507234159 | 13 | 355 | 0.0 | 0.0 | 0.15 | 3.33 | 1.55 | 95 | 1011.6 |
| 20260507234044 | 13 | 350 | 0.0 | 0.0 | 0.15 | 3.33 | 1.55 | 95 | 1011.5 |
| 20260507233943 | 13 | 5 | 0.0 | 0.0 | 0.15 | 3.33 | 1.55 | 95 | 1011.6 |
| 20260507233846 | 13 | 355 | 0.0 | 0.0 | 0.18 | 3.33 | 1.55 | 95 | 1011.6 |
| 20260507233746 | 13 | 355 | 0.0 | 0.0 | 0.18 | 3.33 | 1.55 | 95 | 1011.6 |
| 20260507233648 | 14 | 5 | 0.0 | 0.0 | 0.18 | 3.33 | 1.55 | 95 | 1011.7 |
| 20260507233547 | 13 | 344 | 0.0 | 0.0 | 0.20 | 3.33 | 1.55 | 95 | 1011.6 |
| 20260507233452 | 13 | 334 | 0.0 | 0.0 | 0.20 | 3.33 | 1.55 | 95 | 1011.6 |
| 20260507233353 | 13 | 29 | 0.0 | 0.0 | 0.20 | 3.33 | 1.55 | 95 | 1011.6 |
| 20260507233254 | 14 | 5 | 0.0 | 0.0 | 0.20 | 3.33 | 1.55 | 95 | 1011.5 |
| 20260507233156 | 14 | 355 | 0.0 | 0.0 | 0.20 | 3.33 | 1.55 | 95 | 1011.6 |
| 20260507233127 | 13 | 11 | 0.0 | 0.0 | 0.23 | 3.33 | 1.55 | 95 | 1010.9 |
| 20260507233057 | 14 | 355 | 0.0 | 0.0 | 0.23 | 3.33 | 1.55 | 95 | 1011.6 |
| 20260507233019 | 14 | 360 | 0.0 | 0.0 | 0.23 | 3.33 | 1.55 | 95 | 1011.7 |
| 20260507232839 | 14 | 5 | 0.0 | 0.0 | 0.25 | 3.33 | 1.55 | 95 | 1011.7 |
| 20260507232804 | 14 | 360 | 0.0 | 0.0 | 0.25 | 3.33 | 1.55 | 95 | 1011.6 |
| 20260507232643 | 14 | 5 | 0.0 | 0.0 | 0.25 | 3.33 | 1.55 | 95 | 1011.7 |
| 20260507232543 | 14 | 5 | 0.0 | 0.0 | 0.28 | 3.33 | 1.55 | 95 | 1011.7 |
| 20260507232445 | 14 | 5 | 0.0 | 0.0 | 0.28 | 3.33 | 1.55 | 95 | 1011.7 |
| 20260507232345 | 14 | 5 | 0.0 | 0.0 | 0.30 | 3.33 | 1.55 | 95 | 1011.7 |
| 20260507232246 | 14 | 5 | 0.0 | 0.0 | 0.30 | 3.33 | 1.55 | 95 | 1011.7 |
| 20260507232147 | 14 | 5 | 0.0 | 0.0 | 0.33 | 3.33 | 1.55 | 95 | 1011.7 |
| 20260507232051 | 14 | 5 | 0.0 | 0.0 | 0.36 | 3.33 | 1.55 | 95 | 1011.7 |
| 20260507231951 | 14 | 5 | 0.0 | 0.0 | 0.38 | 3.33 | 1.55 | 95 | 1011.6 |
| 20260507231853 | 14 | 5 | 0.0 | 0.0 | 0.41 | 3.33 | 1.55 | 95 | 1011.6 |
| 20260507231754 | 14 | 282 | 0.0 | 0.0 | 0.41 | 3.33 | 1.55 | 95 | 1011.4 |
| 20260507231653 | 14 | 281 | 0.0 | 0.0 | 0.43 | 3.33 | 1.55 | 95 | 1011.4 |
| 20260507231613 | 14 | 281 | 0.0 | 0.0 | 0.43 | 3.33 | 1.55 | 95 | 1011.4 |
| 20260507231516 | 13 | 331 | 0.0 | 0.0 | 0.43 | 3.33 | 1.55 | 95 | 1010.6 |
| 20260507231452 | 14 | 327 | 0.0 | 0.0 | 0.43 | 3.33 | 1.55 | 95 | 1011.3 |
| 20260507231413 | 14 | 360 | 0.0 | 0.0 | 0.43 | 3.33 | 1.55 | 95 | 1011.1 |
| 20260507231257 | 14 | 355 | 0.0 | 0.0 | 0.43 | 3.33 | 1.55 | 95 | 1011.1 |
| 20260507231157 | 14 | 351 | 0.0 | 0.0 | 0.46 | 3.33 | 1.55 | 95 | 1011.1 |
| 20260507231056 | 14 | 355 | 0.0 | 0.0 | 0.46 | 3.33 | 1.55 | 95 | 1011.1 |
| 20260507230957 | 14 | 336 | 0.0 | 0.0 | 0.46 | 3.33 | 1.55 | 95 | 1011.0 |
| 20260507230918 | 14 | 13 | 0.0 | 0.0 | 0.48 | 3.33 | 1.55 | 95 | 1011.0 |
| 20260507230818 | 14 | 342 | 0.0 | 0.0 | 0.51 | 3.33 | 1.55 | 95 | 1011.1 |
| 20260507230719 | 14 | 355 | 0.0 | 0.0 | 0.51 | 3.33 | 1.55 | 95 | 1011.1 |
| 20260507230558 | 14 | 334 | 0.0 | 0.0 | 0.51 | 3.30 | 1.52 | 95 | 1011.0 |
| 20260507230519 | 14 | 340 | 0.0 | 0.0 | 0.53 | 3.30 | 1.52 | 95 | 1010.9 |
| 20260507230344 | 14 | 355 | 0.0 | 0.0 | 0.56 | 3.30 | 1.52 | 95 | 1010.8 |
| 20260507230244 | 14 | 5 | 0.0 | 0.0 | 0.61 | 3.30 | 1.52 | 95 | 1010.8 |
| 20260507230213 | 14 | 5 | 0.0 | 0.0 | 0.61 | 3.30 | 1.52 | 95 | 1010.7 |
| 20260507225940 | 14 | 335 | 0.0 | 0.0 | 0.64 | 3.30 | 1.52 | 95 | 1010.7 |
| 20260507225859 | 14 | 340 | 0.0 | 0.0 | 0.66 | 3.30 | 1.52 | 95 | 1010.8 |
| 20260507225803 | 14 | 348 | 0.0 | 0.0 | 0.64 | 3.28 | 1.50 | 94 | 1010.8 |
| 20260507225642 | 14 | 355 | 0.0 | 0.0 | 0.64 | 3.28 | 1.50 | 94 | 1010.9 |
| 20260507225542 | 14 | 355 | 0.0 | 0.0 | 0.66 | 3.28 | 1.50 | 95 | 1011.0 |
| 20260507225444 | 14 | 360 | 0.0 | 0.0 | 0.66 | 3.28 | 1.50 | 94 | 1011.0 |
| 20260507225343 | 14 | 346 | 0.0 | 0.0 | 0.66 | 3.25 | 1.47 | 94 | 1011.0 |
| 20260507225243 | 14 | 5 | 0.0 | 0.0 | 0.66 | 3.25 | 1.47 | 95 | 1011.1 |
| 20260507225144 | 14 | 355 | 0.0 | 0.0 | 0.66 | 3.25 | 1.47 | 94 | 1011.2 |
| 20260507225049 | 14 | 5 | 0.0 | 0.0 | 0.66 | 3.23 | 1.45 | 94 | 1011.3 |
| 20260507224950 | 14 | 355 | 0.0 | 0.0 | 0.66 | 3.23 | 1.45 | 94 | 1011.3 |
| 20260507224850 | 14 | 355 | 0.0 | 0.0 | 0.66 | 3.23 | 1.45 | 94 | 1011.2 |
| 20260507224809 | 14 | 9 | 0.0 | 0.0 | 0.66 | 3.23 | 1.45 | 94 | 1011.1 |
| 20260507224709 | 14 | 355 | 0.0 | 0.0 | 0.66 | 3.20 | 1.42 | 94 | 1011.3 |
| 20260507224547 | 14 | 355 | 0.0 | 0.0 | 0.66 | 3.20 | 1.42 | 94 | 1011.3 |
| 20260507224535 | 14 | 5 | 0.0 | 0.0 | 0.66 | 3.20 | 1.42 | 94 | 1010.6 |
| 20260507224446 | 14 | 339 | 0.0 | 0.0 | 0.66 | 3.20 | 1.42 | 94 | 1011.3 |
| 20260507224350 | 14 | 355 | 0.0 | 0.0 | 0.66 | 3.20 | 1.42 | 94 | 1011.3 |
| 20260507224249 | 14 | 360 | 0.0 | 0.0 | 0.66 | 3.20 | 1.42 | 94 | 1011.1 |
| 20260507224150 | 14 | 47 | 0.0 | 0.0 | 0.64 | 3.17 | 1.40 | 94 | 1011.1 |
| 20260507224051 | 14 | 342 | 0.0 | 0.0 | 0.64 | 3.17 | 1.40 | 94 | 1011.0 |
| 20260507223952 | 14 | 5 | 0.0 | 0.0 | 0.61 | 3.15 | 1.37 | 94 | 1011.1 |
| 20260507223852 | 14 | 5 | 0.0 | 0.0 | 0.61 | 3.15 | 1.37 | 94 | 1011.0 |
| 20260507223753 | 14 | 18 | 0.0 | 0.0 | 0.61 | 3.15 | 1.37 | 94 | 1011.0 |
| 20260507223655 | 14 | 355 | 0.0 | 0.0 | 0.61 | 3.15 | 1.37 | 94 | 1011.0 |
| 20260507223556 | 14 | 351 | 0.0 | 0.0 | 0.58 | 3.12 | 1.35 | 94 | 1011.1 |
| 20260507223457 | 14 | 5 | 0.0 | 0.0 | 0.58 | 3.12 | 1.35 | 94 | 1011.1 |
| 20260507223357 | 14 | 5 | 0.0 | 0.0 | 0.58 | 3.12 | 1.35 | 94 | 1011.1 |
| 20260507223258 | 14 | 14 | 0.0 | 0.0 | 0.58 | 3.12 | 1.35 | 94 | 1011.1 |
| 20260507223157 | 14 | 355 | 0.0 | 0.0 | 0.56 | 3.10 | 1.32 | 94 | 1011.2 |
| 20260507223102 | 15 | 13 | 0.0 | 0.0 | 0.56 | 3.10 | 1.32 | 94 | 1011.2 |
| 20260507223009 | 14 | 351 | 0.0 | 0.0 | 0.56 | 3.10 | 1.32 | 94 | 1010.5 |
| 20260507222942 | 15 | 5 | 0.0 | 0.0 | 0.53 | 3.07 | 1.30 | 94 | 1011.3 |
| 20260507222843 | 15 | 355 | 0.0 | 0.0 | 0.53 | 3.07 | 1.30 | 94 | 1011.2 |
| 20260507222744 | 15 | 342 | 0.0 | 0.0 | 0.53 | 3.07 | 1.30 | 94 | 1011.3 |
| 20260507222645 | 15 | 349 | 0.0 | 0.0 | 0.51 | 3.05 | 1.27 | 94 | 1011.2 |
| 20260507222545 | 15 | 360 | 0.0 | 0.0 | 0.51 | 3.05 | 1.27 | 94 | 1011.1 |
| 20260507222506 | 15 | 5 | 0.0 | 0.0 | 0.51 | 3.05 | 1.27 | 94 | 1011.2 |
| 20260507222350 | 15 | 346 | 0.0 | 0.0 | 0.48 | 3.02 | 1.24 | 94 | 1011.3 |
| 20260507222250 | 15 | 342 | 0.0 | 0.0 | 0.46 | 3.00 | 1.22 | 94 | 1011.3 |
| 20260507222152 | 15 | 325 | 0.0 | 0.0 | 0.46 | 3.00 | 1.22 | 94 | 1011.3 |
| 20260507222114 | 15 | 343 | 0.0 | 0.0 | 0.43 | 2.97 | 1.19 | 94 | 1011.1 |
| 20260507221953 | 15 | 5 | 0.0 | 0.0 | 0.41 | 2.95 | 1.17 | 94 | 1010.9 |
| 20260507221854 | 15 | 9 | 0.0 | 0.0 | 0.38 | 2.92 | 1.14 | 94 | 1010.7 |
| 20260507221756 | 15 | 5 | 0.0 | 0.0 | 0.36 | 2.90 | 1.12 | 94 | 1010.7 |
| 20260507221716 | 15 | 27 | 0.0 | 0.0 | 0.36 | 2.90 | 1.12 | 94 | 1010.9 |
| 20260507221559 | 15 | 331 | 0.0 | 0.0 | 0.36 | 2.90 | 1.12 | 94 | 1011.0 |
| 20260507221503 | 14 | 348 | 0.0 | 0.0 | 0.36 | 2.87 | 1.12 | 94 | 1010.1 |
| 20260507221440 | 15 | 355 | 0.0 | 0.0 | 0.36 | 2.90 | 1.12 | 93 | 1010.8 |
| 20260507221341 | 15 | 5 | 0.0 | 0.0 | 0.36 | 2.90 | 1.12 | 93 | 1010.5 |
| 20260507221203 | 15 | 355 | 0.0 | 0.0 | 0.33 | 2.87 | 1.09 | 93 | 1010.3 |
| 20260507221045 | 15 | 341 | 0.0 | 0.0 | 0.33 | 2.87 | 1.09 | 93 | 1010.4 |
| 20260507220951 | 15 | 351 | 0.0 | 0.0 | 0.30 | 2.84 | 1.07 | 93 | 1010.5 |
| 20260507220851 | 15 | 347 | 0.0 | 0.0 | 0.30 | 2.84 | 1.07 | 93 | 1010.1 |
| 20260507220752 | 15 | 355 | 0.0 | 0.0 | 0.28 | 2.82 | 1.04 | 93 | 1009.9 |
| 20260507220654 | 15 | 344 | 0.0 | 0.0 | 0.25 | 2.79 | 1.02 | 93 | 1009.8 |
| 20260507220555 | 15 | 355 | 0.0 | 0.0 | 0.23 | 2.77 | 0.99 | 93 | 1009.7 |
| 20260507220515 | 15 | 342 | 0.0 | 0.0 | 0.20 | 2.74 | 0.97 | 93 | 1009.6 |
| 20260507220356 | 15 | 355 | 0.0 | 0.0 | 0.15 | 2.69 | 0.91 | 92 | 1009.5 |
| 20260507220304 | 15 | 355 | 0.0 | 0.0 | 0.15 | 2.69 | 0.91 | 92 | 1009.6 |
| 20260507220231 | 15 | 355 | 0.0 | 0.0 | 0.15 | 2.69 | 0.91 | 92 | 1009.6 |
| 20260507215940 | 15 | 9 | 0.0 | 0.0 | 0.13 | 2.67 | 0.89 | 92 | 1010.1 |
| 20260507215841 | 15 | 360 | 0.0 | 0.0 | 0.13 | 2.67 | 0.89 | 92 | 1010.3 |
| 20260507215744 | 15 | 355 | 0.0 | 0.0 | 0.10 | 2.64 | 0.86 | 92 | 1010.4 |
| 20260507215709 | 15 | 9 | 0.0 | 0.0 | 0.10 | 2.64 | 0.86 | 92 | 1010.4 |
| 20260507215609 | 15 | 350 | 0.0 | 0.0 | 0.10 | 2.64 | 0.86 | 92 | 1010.2 |
| 20260507215449 | 15 | 11 | 0.0 | 0.0 | 0.08 | 2.62 | 0.84 | 92 | 1010.2 |
| 20260507215350 | 15 | 28 | 0.0 | 0.0 | 0.05 | 2.59 | 0.81 | 92 | 1010.0 |
| 20260507215251 | 15 | 30 | 0.0 | 0.0 | 0.05 | 2.59 | 0.81 | 92 | 1010.0 |
| 20260507215213 | 15 | 346 | 0.0 | 0.0 | 0.05 | 2.59 | 0.81 | 92 | 1009.8 |
| 20260507215053 | 16 | 5 | 0.0 | 0.0 | 0.03 | 2.57 | 0.79 | 92 | 1009.7 |
| 20260507214953 | 16 | 311 | 0.0 | 0.0 | 0.03 | 2.57 | 0.79 | 92 | 1009.5 |
| 20260507214839 | 16 | 341 | 0.0 | 0.0 | 0.03 | 2.57 | 0.79 | 91 | 1009.6 |
| 20260507214741 | 16 | 355 | 0.0 | 0.0 | 0.03 | 2.57 | 0.79 | 91 | 1009.5 |
| 20260507214643 | 16 | 355 | 0.0 | 0.0 | 0.00 | 2.54 | 0.76 | 91 | 1009.6 |
| 20260507214543 | 16 | 23 | 0.0 | 0.0 | 0.00 | 2.54 | 0.76 | 91 | 1009.6 |
| 20260507214517 | 15 | 360 | 0.0 | 0.0 | 0.00 | 2.54 | 0.76 | 91 | 1008.9 |
| 20260507214446 | 16 | 5 | 0.0 | 0.0 | 0.00 | 2.54 | 0.76 | 91 | 1009.7 |
| 20260507214406 | 16 | 360 | 0.0 | 0.0 | 0.00 | 2.54 | 0.76 | 92 | 1009.5 |
| 20260507214246 | 16 | 339 | 0.0 | 0.0 | 0.00 | 2.54 | 0.76 | 91 | 1009.5 |
| 20260507214151 | 16 | 355 | 0.0 | 0.0 | 0.00 | 2.54 | 0.76 | 91 | 1009.5 |
| 20260507214113 | 16 | 336 | 0.0 | 0.0 | 0.00 | 2.54 | 0.76 | 91 | 1009.5 |
| 20260507213953 | 16 | 26 | 0.0 | 0.0 | 0.00 | 2.54 | 0.76 | 91 | 1009.2 |
| 20260507213916 | 16 | 337 | 0.0 | 0.0 | 0.00 | 2.54 | 0.76 | 91 | 1009.1 |
| 20260507213755 | 16 | 342 | 0.0 | 0.0 | 0.00 | 2.54 | 0.76 | 91 | 1008.9 |
| 20260507213655 | 16 | 38 | 0.0 | 0.0 | 0.00 | 2.54 | 0.76 | 91 | 1008.7 |
| 20260507213554 | 16 | 338 | 0.0 | 0.0 | 0.00 | 2.54 | 0.76 | 91 | 1008.7 |
| 20260507213457 | 16 | 334 | 0.0 | 0.0 | 0.00 | 2.54 | 0.76 | 90 | 1008.7 |
| 20260507213419 | 16 | 355 | 0.0 | 0.0 | 0.00 | 2.54 | 0.76 | 90 | 1008.9 |
| 20260507213256 | 16 | 355 | 0.0 | 0.0 | 0.00 | 2.54 | 0.76 | 90 | 1009.0 |
| 20260507212753 | 16 | 345 | 0.0 | 0.0 | 0.00 | 2.54 | 0.76 | 89 | 1009.1 |
| 20260507212713 | 16 | 355 | 0.0 | 0.0 | 0.00 | 2.54 | 0.76 | 89 | 1009.2 |
| 20260507212555 | 16 | 349 | 0.0 | 0.0 | 0.00 | 2.54 | 0.76 | 89 | 1009.3 |
| 20260507212455 | 16 | 5 | 0.0 | 0.0 | 0.00 | 2.54 | 0.76 | 88 | 1009.2 |
| 20260507212354 | 17 | 5 | 0.0 | 0.0 | 0.00 | 2.54 | 0.76 | 88 | 1009.2 |
| 20260507212252 | 17 | 335 | 0.0 | 0.0 | 0.00 | 2.54 | 0.76 | 87 | 1009.3 |
| 20260507212153 | 17 | 355 | 0.0 | 0.0 | 0.00 | 2.54 | 0.76 | 87 | 1009.3 |
| 20260507212052 | 17 | 333 | 0.0 | 0.0 | 0.00 | 2.54 | 0.76 | 87 | 1009.2 |
| 20260507211956 | 17 | 355 | 0.0 | 0.0 | 0.00 | 2.54 | 0.76 | 87 | 1009.3 |
| 20260507211916 | 17 | 355 | 0.0 | 0.0 | 0.00 | 2.54 | 0.76 | 87 | 1009.5 |
| 20260507211814 | 17 | 15 | 0.0 | 0.0 | 0.00 | 2.54 | 0.76 | 87 | 1009.5 |
| 20260507211652 | 17 | 360 | 0.0 | 0.0 | 0.00 | 2.54 | 0.76 | 87 | 1009.4 |
| 20260507211552 | 17 | 5 | 0.0 | 0.0 | 0.00 | 2.54 | 0.76 | 86 | 1009.2 |
| 20260507211543 | 17 | 355 | 0.0 | 0.0 | 0.00 | 2.54 | 0.76 | 86 | 1008.5 |
| 20260507211451 | 17 | 10 | 0.0 | 0.0 | 0.00 | 2.54 | 0.76 | 86 | 1009.2 |
| 20260507211350 | 17 | 331 | 0.0 | 0.0 | 0.00 | 2.54 | 0.76 | 86 | 1009.2 |
| 20260507211309 | 17 | 355 | 0.0 | 0.0 | 0.00 | 2.54 | 0.76 | 86 | 1009.1 |
| 20260507211151 | 17 | 338 | 0.0 | 0.0 | 0.00 | 2.54 | 0.76 | 85 | 1009.1 |
| 20260507211110 | 17 | 9 | 0.0 | 0.0 | 0.00 | 2.54 | 0.76 | 84 | 1009.2 |
| 20260507210948 | 18 | 346 | 0.0 | 0.0 | 0.00 | 2.54 | 0.76 | 84 | 1009.2 |
| 20260507210847 | 18 | 341 | 0.0 | 0.0 | 0.00 | 2.54 | 0.76 | 84 | 1009.2 |
| 20260507210806 | 18 | 360 | 0.0 | 0.0 | 0.00 | 2.54 | 0.76 | 84 | 1009.4 |
| 20260507210646 | 18 | 334 | 0.0 | 0.0 | 0.00 | 2.54 | 0.76 | 84 | 1009.5 |
| 20260507210604 | 18 | 321 | 0.0 | 0.0 | 0.00 | 2.54 | 0.76 | 84 | 1009.5 |
| 20260507210526 | 18 | 348 | 0.0 | 0.0 | 0.00 | 2.54 | 0.76 | 83 | 1009.4 |
| 20260507210244 | 20 | 343 | 0.0 | 0.0 | 0.00 | 2.54 | 0.76 | 82 | 1009.1 |
| 20260507210214 | 20 | 343 | 0.0 | 0.0 | 0.00 | 2.54 | 0.76 | 82 | 1009.1 |
| 20260507210014 | 20 | 355 | 0.0 | 0.0 | 0.00 | 2.54 | 0.76 | 81 | 1008.3 |
| 20260507210001 | 20 | 333 | 0.0 | 0.0 | 0.00 | 2.54 | 0.76 | 80 | 1009.1 |
| 20260507205859 | 20 | 316 | 0.0 | 0.0 | 0.00 | 2.54 | 0.76 | 79 | 1009.1 |
| 20260507205758 | 21 | 348 | 0.0 | 0.0 | 0.00 | 2.54 | 0.76 | 79 | 1009.1 |
| 20260507205658 | 21 | 321 | 0.0 | 0.0 | 0.00 | 2.54 | 0.76 | 77 | 1009.0 |
| 20260507205617 | 22 | 355 | 0.0 | 0.0 | 0.00 | 2.54 | 0.76 | 76 | 1008.9 |
| 20260507205459 | 22 | 360 | 0.0 | 0.0 | 0.00 | 2.54 | 0.76 | 75 | 1008.9 |
| 20260507205358 | 23 | 351 | 0.0 | 0.0 | 0.00 | 2.54 | 0.76 | 74 | 1008.7 |
| 20260507205257 | 23 | 355 | 0.0 | 0.0 | 0.00 | 2.54 | 0.76 | 73 | 1008.6 |
| 20260507205156 | 23 | 34 | 0.0 | 0.0 | 0.00 | 2.54 | 0.76 | 74 | 1008.4 |
| 20260507205116 | 23 | 53 | 0.0 | 0.0 | 0.00 | 2.54 | 0.76 | 77 | 1008.4 |
| 20260507204954 | 23 | 53 | 0.0 | 0.0 | 0.00 | 2.54 | 0.76 | 76 | 1008.2 |
| 20260507204853 | 23 | 53 | 0.0 | 0.0 | 0.00 | 2.54 | 0.76 | 75 | 1008.2 |
| 20260507204755 | 23 | 53 | 0.0 | 0.0 | 0.00 | 2.54 | 0.76 | 75 | 1008.2 |
| 20260507204655 | 23 | 53 | 0.0 | 0.0 | 0.00 | 2.54 | 0.76 | 75 | 1008.2 |
| 20260507204554 | 23 | 53 | 0.0 | 0.0 | 0.00 | 2.54 | 0.76 | 76 | 1008.2 |
| 20260507204508 | 23 | 53 | 0.0 | 0.0 | 0.00 | 2.54 | 0.76 | 77 | 1007.4 |
| 20260507204453 | 23 | 53 | 0.0 | 0.0 | 0.00 | 2.54 | 0.76 | 77 | 1008.3 |
| 20260507204353 | 23 | 53 | 0.0 | 0.0 | 0.00 | 2.54 | 0.76 | 77 | 1008.3 |
| 20260507204251 | 23 | 54 | 0.0 | 0.0 | 0.00 | 2.54 | 0.76 | 78 | 1008.3 |
| 20260507204150 | 23 | 54 | 0.0 | 0.0 | 0.00 | 2.54 | 0.76 | 78 | 1008.4 |
| 20260507204056 | 23 | 54 | 0.0 | 0.0 | 0.00 | 2.54 | 0.76 | 75 | 1008.3 |
| 20260507204015 | 23 | 54 | 0.0 | 0.0 | 0.00 | 2.54 | 0.76 | 76 | 1008.3 |
| 20260507203851 | 23 | 54 | 0.0 | 0.0 | 0.00 | 2.54 | 0.76 | 77 | 1008.3 |
| 20260507203751 | 23 | 233 | 0.0 | 0.0 | 0.00 | 2.54 | 0.76 | 80 | 1008.3 |
| 20260507203649 | 23 | 233 | 0.0 | 0.0 | 0.00 | 2.54 | 0.76 | 79 | 1008.3 |
| 20260507203547 | 23 | 240 | 0.0 | 0.0 | 0.00 | 2.54 | 0.76 | 81 | 1008.2 |
| 20260507203507 | 23 | 259 | 0.0 | 0.0 | 0.00 | 2.54 | 0.76 | 82 | 1008.3 |
| 20260507203348 | 23 | 281 | 0.0 | 0.0 | 0.00 | 2.54 | 0.76 | 79 | 1008.3 |
| 20260507203249 | 23 | 281 | 0.0 | 0.0 | 0.00 | 2.54 | 0.76 | 77 | 1008.2 |
| 20260507203146 | 23 | 281 | 0.0 | 0.0 | 0.00 | 2.54 | 0.76 | 79 | 1008.3 |
| 20260507203047 | 23 | 136 | 0.0 | 0.0 | 0.00 | 2.54 | 0.76 | 77 | 1008.3 |
| 20260507203023 | 23 | 136 | 0.0 | 0.0 | 0.00 | 2.54 | 0.76 | 77 | 1007.5 |
| 20260507202946 | 23 | 137 | 0.0 | 0.0 | 0.00 | 2.54 | 0.76 | 77 | 1008.3 |
| 20260507202844 | 23 | 137 | 0.0 | 0.0 | 0.00 | 2.54 | 0.76 | 79 | 1008.3 |
| 20260507202745 | 23 | 44 | 0.0 | 0.0 | 0.00 | 2.54 | 0.76 | 80 | 1008.3 |
| 20260507202648 | 23 | 44 | 0.0 | 0.0 | 0.00 | 2.54 | 0.76 | 80 | 1008.3 |
| 20260507202608 | 23 | 145 | 0.0 | 0.0 | 0.00 | 2.54 | 0.76 | 79 | 1008.3 |
| 20260507202447 | 23 | 145 | 0.0 | 0.0 | 0.00 | 2.54 | 0.76 | 81 | 1008.2 |
| 20260507202348 | 23 | 145 | 0.0 | 0.0 | 0.00 | 2.54 | 0.76 | 81 | 1008.3 |
| 20260507202248 | 23 | 92 | 0.0 | 0.0 | 0.00 | 2.54 | 0.76 | 80 | 1008.2 |
| 20260507202148 | 23 | 88 | 0.0 | 0.0 | 0.00 | 2.54 | 0.76 | 81 | 1008.2 |
| 20260507202104 | 23 | 90 | 0.0 | 0.0 | 0.00 | 2.54 | 0.76 | 80 | 1008.1 |
| 20260507201946 | 23 | 89 | 0.0 | 0.0 | 0.00 | 2.54 | 0.76 | 79 | 1008.1 |
| 20260507201842 | 23 | 88 | 0.0 | 0.0 | 0.00 | 2.54 | 0.76 | 80 | 1008.0 |
| 20260507201741 | 23 | 86 | 0.0 | 0.0 | 0.00 | 2.54 | 0.76 | 78 | 1008.0 |
| 20260507201659 | 23 | 86 | 0.0 | 0.0 | 0.00 | 2.54 | 0.76 | 79 | 1008.0 |
| 20260507201557 | 23 | 153 | 0.0 | 0.0 | 0.00 | 2.54 | 0.76 | 79 | 1008.1 |
| 20260507201512 | 23 | 153 | 0.0 | 0.0 | 0.00 | 2.54 | 0.76 | 78 | 1007.2 |
| 20260507201457 | 23 | 153 | 0.0 | 0.0 | 0.00 | 2.54 | 0.76 | 78 | 1008.1 |
| 20260507201357 | 23 | 153 | 0.0 | 0.0 | 0.00 | 2.54 | 0.76 | 78 | 1008.0 |
| 20260507201255 | 23 | 153 | 0.0 | 0.0 | 0.00 | 2.54 | 0.76 | 77 | 1008.0 |
| 20260507201159 | 23 | 140 | 0.0 | 0.0 | 0.00 | 2.54 | 0.76 | 78 | 1008.1 |
| 20260507201117 | 23 | 86 | 0.0 | 0.0 | 0.00 | 2.54 | 0.76 | 78 | 1008.1 |
| 20260507200956 | 23 | 108 | 0.0 | 0.0 | 0.00 | 2.54 | 0.76 | 77 | 1008.1 |
| 20260507200855 | 23 | 130 | 0.0 | 0.0 | 0.00 | 2.54 | 0.76 | 76 | 1008.1 |
| 20260507200749 | 23 | 125 | 0.0 | 0.0 | 0.00 | 2.54 | 0.76 | 80 | 1008.2 |
| 20260507200647 | 23 | 79 | 0.0 | 0.0 | 0.00 | 2.54 | 0.76 | 79 | 1008.1 |
| 20260507200546 | 23 | 308 | 0.0 | 0.0 | 0.00 | 2.54 | 0.76 | 79 | 1008.2 |
| 20260507200450 | 23 | 260 | 0.0 | 0.0 | 0.00 | 2.54 | 0.76 | 78 | 1008.3 |
| 20260507200348 | 23 | 238 | 0.0 | 0.0 | 0.00 | 2.54 | 0.76 | 78 | 1008.3 |
| 20260507200303 | 23 | 238 | 0.0 | 0.0 | 0.00 | 2.54 | 0.76 | 78 | 1008.4 |
| 20260507200230 | 23 | 238 | 0.0 | 0.0 | 0.00 | 2.54 | 0.76 | 78 | 1008.4 |
| 20260507200032 | 23 | 238 | 0.0 | 0.0 | 0.00 | 2.54 | 0.76 | 77 | 1007.6 |
| 20260507200016 | 23 | 129 | 0.0 | 0.0 | 0.00 | 2.54 | 0.76 | 79 | 1008.3 |
| 20260507195914 | 23 | 113 | 0.0 | 0.0 | 0.00 | 2.54 | 0.76 | 78 | 1008.4 |
| 20260507195752 | 23 | 113 | 0.0 | 0.0 | 0.00 | 2.54 | 0.76 | 78 | 1008.4 |
| 20260507195654 | 23 | 109 | 0.0 | 0.0 | 0.00 | 2.54 | 0.76 | 80 | 1008.4 |
| 20260507195552 | 23 | 360 | 0.0 | 0.0 | 0.00 | 2.54 | 0.76 | 80 | 1008.5 |
| 20260507195450 | 23 | 111 | 0.0 | 0.0 | 0.00 | 2.54 | 0.76 | 78 | 1008.5 |
| 20260507195350 | 23 | 111 | 0.0 | 0.0 | 0.00 | 2.54 | 0.76 | 78 | 1008.5 |
| 20260507195250 | 23 | 148 | 0.0 | 0.0 | 0.00 | 2.54 | 0.76 | 79 | 1008.6 |
| 20260507195149 | 23 | 146 | 0.0 | 0.0 | 0.00 | 2.54 | 0.76 | 81 | 1008.6 |
| 20260507195052 | 23 | 142 | 0.0 | 0.0 | 0.00 | 2.54 | 0.76 | 80 | 1008.6 |
| 20260507194952 | 23 | 143 | 0.0 | 0.0 | 0.00 | 2.54 | 0.76 | 82 | 1008.6 |
| 20260507194851 | 23 | 49 | 0.0 | 0.0 | 0.00 | 2.54 | 0.76 | 84 | 1008.7 |
| 20260507194750 | 22 | 186 | 0.0 | 0.0 | 0.00 | 2.54 | 0.76 | 84 | 1008.7 |
| 20260507194650 | 22 | 49 | 0.0 | 0.0 | 0.00 | 2.54 | 0.76 | 84 | 1008.6 |
| 20260507194609 | 22 | 30 | 0.0 | 0.0 | 0.00 | 2.54 | 0.76 | 86 | 1008.7 |
| 20260507194524 | 22 | 30 | 0.0 | 0.0 | 0.00 | 2.54 | 0.76 | 84 | 1007.9 |
| 20260507194508 | 22 | 30 | 0.0 | 0.0 | 0.00 | 2.54 | 0.76 | 84 | 1008.7 |
| 20260507194347 | 22 | 30 | 0.0 | 0.0 | 0.00 | 2.54 | 0.76 | 86 | 1008.7 |
| 20260507194311 | 22 | 162 | 0.0 | 0.0 | 0.00 | 2.54 | 0.76 | 86 | 1008.7 |
| 20260507194148 | 22 | 162 | 0.0 | 0.0 | 0.00 | 2.54 | 0.76 | 85 | 1008.8 |
| 20260507194047 | 22 | 162 | 0.0 | 0.0 | 0.00 | 2.54 | 0.76 | 82 | 1008.7 |
| 20260507194007 | 22 | 126 | 0.0 | 0.0 | 0.00 | 2.54 | 0.76 | 84 | 1008.7 |
| 20260507193844 | 22 | 169 | 0.0 | 0.0 | 0.00 | 2.54 | 0.76 | 86 | 1008.7 |
| 20260507193744 | 22 | 157 | 0.0 | 0.0 | 0.00 | 2.54 | 0.76 | 85 | 1008.7 |
| 20260507193642 | 22 | 152 | 0.0 | 0.0 | 0.00 | 2.54 | 0.76 | 88 | 1008.7 |
| 20260507193544 | 22 | 146 | 0.0 | 0.0 | 0.00 | 2.54 | 0.76 | 89 | 1008.7 |
| 20260507193445 | 22 | 146 | 0.0 | 0.0 | 0.00 | 2.54 | 0.76 | 88 | 1008.7 |
| 20260507193343 | 22 | 146 | 0.0 | 0.0 | 0.00 | 2.54 | 0.76 | 87 | 1008.7 |
| 20260507193303 | 22 | 146 | 0.0 | 0.0 | 0.00 | 2.54 | 0.76 | 85 | 1008.7 |
| 20260507193141 | 22 | 140 | 0.0 | 0.0 | 0.00 | 2.54 | 0.76 | 85 | 1008.8 |
| 20260507193100 | 22 | 257 | 0.0 | 0.0 | 0.00 | 2.54 | 0.76 | 87 | 1008.8 |
| 20260507193044 | 21 | 149 | 0.0 | 0.0 | 0.00 | 2.54 | 0.76 | 87 | 1008.0 |
| 20260507192959 | 22 | 153 | 0.0 | 0.0 | 0.00 | 2.54 | 0.76 | 88 | 1008.8 |
| 20260507192858 | 22 | 153 | 0.0 | 0.0 | 0.00 | 2.54 | 0.76 | 89 | 1008.8 |
| 20260507192816 | 22 | 153 | 0.0 | 0.0 | 0.00 | 2.54 | 0.76 | 88 | 1008.8 |
| 20260507192717 | 22 | 153 | 0.0 | 0.0 | 0.00 | 2.54 | 0.76 | 87 | 1008.9 |
| 20260507192554 | 22 | 153 | 0.0 | 0.0 | 0.00 | 2.54 | 0.76 | 87 | 1008.9 |
| 20260507192452 | 22 | 153 | 0.0 | 0.0 | 0.00 | 2.54 | 0.76 | 86 | 1008.9 |
| 20260507192352 | 22 | 182 | 0.0 | 0.0 | 0.00 | 2.54 | 0.76 | 87 | 1008.9 |
| 20260507192314 | 22 | 182 | 0.0 | 0.0 | 0.00 | 2.54 | 0.76 | 88 | 1008.9 |
| 20260507192234 | 22 | 182 | 0.0 | 0.0 | 0.00 | 2.54 | 0.76 | 87 | 1008.9 |
| 20260507191959 | 22 | 183 | 0.0 | 0.0 | 0.00 | 2.54 | 0.76 | 86 | 1009.0 |
| 20260507191858 | 22 | 184 | 0.0 | 0.0 | 0.00 | 2.59 | 0.76 | 88 | 1009.0 |
| 20260507191740 | 22 | 157 | 0.0 | 0.0 | 0.00 | 2.59 | 0.76 | 88 | 1009.0 |
| 20260507191641 | 22 | 161 | 0.0 | 0.0 | 0.00 | 2.59 | 0.76 | 88 | 1009.0 |
| 20260507191615 | 22 | 162 | 0.0 | 0.0 | 0.00 | 2.59 | 0.76 | 89 | 1008.2 |
| 20260507191601 | 22 | 162 | 0.0 | 0.0 | 0.00 | 2.59 | 0.76 | 89 | 1009.0 |
| 20260507191521 | 22 | 162 | 0.0 | 0.0 | 0.00 | 2.59 | 0.76 | 89 | 1009.0 |
| 20260507191357 | 22 | 162 | 0.0 | 0.0 | 0.00 | 2.59 | 0.76 | 88 | 1009.0 |
| 20260507191257 | 22 | 162 | 0.0 | 0.0 | 0.00 | 2.59 | 0.76 | 88 | 1009.0 |
| 20260507191157 | 22 | 162 | 0.0 | 0.0 | 0.00 | 2.59 | 0.76 | 88 | 1009.1 |
| 20260507191040 | 22 | 162 | 0.0 | 0.0 | 0.00 | 2.59 | 0.76 | 89 | 1009.1 |
| 20260507190958 | 22 | 162 | 0.0 | 0.0 | 0.00 | 2.59 | 0.76 | 89 | 1009.2 |
| 20260507190857 | 22 | 161 | 0.0 | 0.0 | 0.00 | 2.59 | 0.76 | 88 | 1009.2 |
| 20260507190756 | 22 | 115 | 0.0 | 0.0 | 0.00 | 2.59 | 0.76 | 88 | 1009.2 |
| 20260507190718 | 22 | 130 | 0.0 | 0.0 | 0.00 | 2.59 | 0.76 | 88 | 1009.1 |
| 20260507190638 | 22 | 142 | 0.0 | 0.0 | 0.00 | 2.59 | 0.76 | 90 | 1009.1 |
| 20260507190419 | 21 | 348 | 0.0 | 0.0 | 0.00 | 2.59 | 0.76 | 89 | 1009.1 |
| 20260507190232 | 21 | 348 | 0.0 | 0.0 | 0.00 | 2.59 | 0.76 | 89 | 1009.2 |
| 20260507190018 | 21 | 348 | 0.0 | 0.0 | 0.00 | 2.59 | 0.76 | 88 | 1009.3 |
| 20260507185855 | 21 | 5 | 0.0 | 0.0 | 0.03 | 2.59 | 0.76 | 89 | 1009.3 |
| 20260507185813 | 21 | 350 | 0.0 | 0.0 | 0.03 | 2.59 | 0.76 | 90 | 1009.4 |
| 20260507185652 | 21 | 186 | 0.0 | 0.0 | 0.03 | 2.59 | 0.76 | 89 | 1009.3 |
| 20260507185612 | 21 | 70 | 0.0 | 0.0 | 0.03 | 2.59 | 0.76 | 91 | 1009.3 |
| 20260507185450 | 21 | 105 | 0.0 | 0.0 | 0.03 | 2.59 | 0.76 | 90 | 1009.2 |
| 20260507185353 | 21 | 105 | 0.0 | 0.0 | 0.03 | 2.59 | 0.76 | 91 | 1009.2 |
| 20260507185252 | 21 | 105 | 0.0 | 0.0 | 0.03 | 2.59 | 0.76 | 92 | 1009.2 |
| 20260507185152 | 21 | 104 | 0.0 | 0.0 | 0.03 | 2.59 | 0.76 | 92 | 1009.1 |
| 20260507185051 | 21 | 103 | 0.0 | 0.0 | 0.03 | 2.59 | 0.76 | 91 | 1009.1 |
| 20260507184950 | 21 | 93 | 0.0 | 0.0 | 0.03 | 2.59 | 0.76 | 92 | 1009.1 |
| 20260507184848 | 21 | 21 | 0.0 | 0.0 | 0.03 | 2.59 | 0.76 | 92 | 1009.1 |
| 20260507184748 | 21 | 162 | 0.0 | 0.0 | 0.03 | 2.59 | 0.76 | 92 | 1009.2 |
| 20260507184652 | 21 | 164 | 0.0 | 0.0 | 0.03 | 2.59 | 0.76 | 93 | 1009.2 |
| 20260507184606 | 21 | 164 | 0.0 | 0.0 | 0.03 | 2.59 | 0.76 | 93 | 1008.5 |
| 20260507184552 | 21 | 165 | 0.0 | 0.0 | 0.03 | 2.59 | 0.76 | 93 | 1009.2 |
| 20260507184451 | 21 | 165 | 0.0 | 0.0 | 0.03 | 2.59 | 0.76 | 92 | 1009.2 |
| 20260507184351 | 21 | 165 | 0.0 | 0.0 | 0.03 | 2.59 | 0.76 | 92 | 1009.2 |
| 20260507184251 | 21 | 167 | 0.0 | 0.0 | 0.03 | 2.59 | 0.76 | 93 | 1009.2 |
| 20260507184150 | 21 | 355 | 0.0 | 0.0 | 0.03 | 2.59 | 0.76 | 93 | 1009.2 |
| 20260507184053 | 21 | 57 | 0.0 | 0.0 | 0.03 | 2.59 | 0.76 | 92 | 1009.2 |
| 20260507183954 | 21 | 283 | 0.0 | 0.0 | 0.03 | 2.59 | 0.76 | 92 | 1009.3 |
| 20260507183913 | 21 | 283 | 0.0 | 0.0 | 0.03 | 2.59 | 0.76 | 91 | 1009.4 |
| 20260507183751 | 21 | 283 | 0.0 | 0.0 | 0.03 | 2.59 | 0.76 | 91 | 1009.4 |
| 20260507183650 | 21 | 283 | 0.0 | 0.0 | 0.03 | 2.59 | 0.76 | 91 | 1009.4 |
| 20260507183550 | 21 | 302 | 0.0 | 0.0 | 0.03 | 2.59 | 0.76 | 92 | 1009.4 |
| 20260507183447 | 21 | 232 | 0.0 | 0.0 | 0.03 | 2.59 | 0.76 | 93 | 1009.4 |
| 20260507183349 | 21 | 180 | 0.0 | 0.0 | 0.03 | 2.59 | 0.76 | 93 | 1009.4 |
| 20260507183248 | 21 | 125 | 0.0 | 0.0 | 0.03 | 2.59 | 0.76 | 93 | 1009.4 |
| 20260507183207 | 21 | 124 | 0.0 | 0.0 | 0.03 | 2.59 | 0.76 | 93 | 1009.4 |
| 20260507183045 | 21 | 5 | 0.0 | 0.0 | 0.03 | 2.59 | 0.76 | 94 | 1009.4 |
| 20260507183005 | 20 | 5 | 0.0 | 0.0 | 0.03 | 2.59 | 0.76 | 94 | 1008.5 |
| 20260507182940 | 21 | 5 | 0.0 | 0.0 | 0.03 | 2.59 | 0.76 | 94 | 1009.3 |
| 20260507182859 | 20 | 5 | 0.0 | 0.0 | 0.03 | 2.59 | 0.76 | 93 | 1009.4 |
| 20260507182818 | 21 | 348 | 0.0 | 0.0 | 0.03 | 2.59 | 0.76 | 94 | 1009.3 |
| 20260507182656 | 21 | 144 | 0.0 | 0.0 | 0.03 | 2.59 | 0.76 | 94 | 1009.3 |
| 20260507182540 | 20 | 144 | 0.0 | 0.0 | 0.03 | 2.59 | 0.76 | 94 | 1009.4 |
| 20260507182440 | 20 | 143 | 0.0 | 0.0 | 0.03 | 2.59 | 0.76 | 94 | 1009.4 |
| 20260507182339 | 20 | 132 | 0.0 | 0.0 | 0.03 | 2.59 | 0.76 | 94 | 1009.3 |
| 20260507182259 | 20 | 132 | 0.0 | 0.0 | 0.03 | 2.59 | 0.76 | 94 | 1009.4 |
| 20260507182158 | 20 | 81 | 0.0 | 0.0 | 0.03 | 2.59 | 0.76 | 94 | 1009.4 |
| 20260507182056 | 20 | 349 | 0.0 | 0.0 | 0.03 | 2.59 | 0.76 | 94 | 1009.4 |
| 20260507181954 | 20 | 342 | 0.0 | 0.0 | 0.03 | 2.59 | 0.76 | 94 | 1009.4 |
| 20260507181857 | 20 | 162 | 0.0 | 0.0 | 0.03 | 3.48 | 0.76 | 94 | 1009.4 |
| 20260507181757 | 20 | 162 | 0.0 | 0.0 | 0.03 | 3.48 | 0.76 | 94 | 1009.5 |
| 20260507181657 | 20 | 161 | 0.0 | 0.0 | 0.03 | 3.48 | 0.76 | 95 | 1009.5 |
| 20260507181617 | 20 | 171 | 0.0 | 0.0 | 0.03 | 3.48 | 0.76 | 95 | 1009.5 |
| 20260507181521 | 20 | 260 | 0.0 | 0.0 | 0.03 | 3.48 | 0.76 | 95 | 1008.7 |
| 20260507181457 | 20 | 260 | 0.0 | 0.0 | 0.03 | 3.48 | 0.76 | 95 | 1009.5 |
| 20260507181357 | 20 | 143 | 0.0 | 0.0 | 0.03 | 3.48 | 0.76 | 95 | 1009.7 |
| 20260507181241 | 20 | 360 | 0.0 | 0.0 | 0.03 | 3.48 | 0.76 | 95 | 1009.6 |
| 20260507181140 | 20 | 42 | 0.0 | 0.0 | 0.03 | 3.48 | 0.76 | 96 | 1009.7 |
| 20260507181040 | 20 | 105 | 0.0 | 0.0 | 0.03 | 3.48 | 0.76 | 95 | 1009.8 |
| 20260507180940 | 20 | 46 | 0.0 | 0.0 | 0.03 | 3.48 | 0.76 | 95 | 1009.8 |
| 20260507180840 | 20 | 46 | 0.0 | 0.0 | 0.03 | 3.48 | 0.76 | 95 | 1009.8 |
| 20260507180740 | 20 | 46 | 0.0 | 0.0 | 0.03 | 3.48 | 0.76 | 95 | 1009.8 |
| 20260507180639 | 20 | 46 | 0.0 | 0.0 | 0.03 | 3.48 | 0.76 | 95 | 1009.8 |
| 20260507180543 | 19 | 120 | 0.0 | 0.0 | 0.03 | 3.48 | 0.76 | 95 | 1009.9 |
| 20260507180441 | 19 | 120 | 0.0 | 0.0 | 0.03 | 3.48 | 0.76 | 95 | 1010.0 |
| 20260507180341 | 19 | 120 | 0.0 | 0.0 | 0.03 | 3.48 | 0.76 | 95 | 1010.0 |
| 20260507180304 | 20 | 75 | 0.0 | 0.0 | 0.03 | 3.48 | 0.76 | 95 | 1010.1 |
| 20260507180230 | 20 | 75 | 0.0 | 0.0 | 0.03 | 3.48 | 0.76 | 95 | 1010.1 |
| 20260507175941 | 20 | 99 | 0.0 | 0.0 | 0.03 | 3.48 | 0.76 | 96 | 1010.0 |
| 20260507175841 | 20 | 162 | 0.0 | 0.0 | 0.03 | 3.48 | 0.76 | 96 | 1010.0 |
| 20260507175801 | 20 | 173 | 0.0 | 0.0 | 0.00 | 3.45 | 0.74 | 96 | 1010.0 |
| 20260507175700 | 20 | 19 | 0.0 | 0.0 | 0.00 | 3.45 | 0.74 | 96 | 1010.0 |
| 20260507175557 | 20 | 19 | 0.0 | 0.0 | 0.00 | 3.45 | 0.74 | 96 | 1010.0 |
| 20260507175456 | 20 | 17 | 0.0 | 0.0 | 0.00 | 3.45 | 0.74 | 96 | 1010.0 |
| 20260507175355 | 20 | 17 | 0.0 | 0.0 | 0.00 | 3.45 | 0.74 | 96 | 1010.0 |
| 20260507175258 | 20 | 18 | 0.0 | 0.0 | 0.00 | 3.45 | 0.74 | 96 | 1010.1 |
| 20260507175158 | 20 | 59 | 0.0 | 0.0 | 0.00 | 3.45 | 0.74 | 96 | 1010.1 |
| 20260507175058 | 20 | 109 | 0.0 | 0.0 | 0.00 | 3.45 | 0.74 | 96 | 1010.1 |
| 20260507174957 | 20 | 17 | 0.0 | 0.0 | 0.00 | 3.45 | 0.74 | 96 | 1010.1 |
| 20260507174915 | 20 | 45 | 0.0 | 0.0 | 0.00 | 3.45 | 0.74 | 96 | 1010.2 |
| 20260507174754 | 20 | 46 | 0.0 | 0.0 | 0.00 | 3.45 | 0.74 | 96 | 1010.1 |
| 20260507174654 | 20 | 46 | 0.0 | 0.0 | 0.00 | 3.45 | 0.74 | 96 | 1010.1 |
| 20260507174558 | 20 | 46 | 0.0 | 0.0 | 0.00 | 3.45 | 0.74 | 96 | 1010.1 |
| 20260507174514 | 19 | 46 | 0.0 | 0.0 | 0.00 | 3.45 | 0.71 | 96 | 1009.3 |
| 20260507174458 | 20 | 46 | 0.0 | 0.0 | 0.00 | 3.45 | 0.74 | 96 | 1010.1 |
| 20260507174417 | 19 | 46 | 0.0 | 0.0 | 0.00 | 3.45 | 0.74 | 96 | 1010.1 |
| 20260507174255 | 19 | 46 | 0.0 | 0.0 | 0.00 | 3.45 | 0.74 | 96 | 1010.1 |
| 20260507174214 | 19 | 46 | 0.0 | 0.0 | 0.00 | 3.45 | 0.74 | 96 | 1010.1 |
| 20260507174112 | 19 | 46 | 0.0 | 0.0 | 0.00 | 3.45 | 0.74 | 96 | 1010.2 |
| 20260507174011 | 19 | 46 | 0.0 | 0.0 | 0.00 | 3.45 | 0.74 | 96 | 1010.1 |
| 20260507173850 | 19 | 46 | 0.0 | 0.0 | 0.00 | 3.45 | 0.74 | 96 | 1010.1 |
| 20260507173748 | 19 | 46 | 0.0 | 0.0 | 0.00 | 3.45 | 0.74 | 96 | 1010.0 |
| 20260507173710 | 19 | 46 | 0.0 | 0.0 | 0.00 | 3.45 | 0.74 | 96 | 1009.8 |
| 20260507173548 | 19 | 41 | 0.0 | 0.0 | 0.00 | 3.45 | 0.74 | 96 | 1009.7 |
| 20260507173446 | 19 | 41 | 0.0 | 0.0 | 0.00 | 3.45 | 0.74 | 96 | 1009.7 |
| 20260507173346 | 19 | 41 | 0.0 | 0.0 | 0.00 | 3.45 | 0.74 | 96 | 1009.9 |
| 20260507173245 | 19 | 42 | 0.0 | 0.0 | 0.00 | 3.45 | 0.74 | 96 | 1009.9 |
| 20260507173144 | 19 | 15 | 0.0 | 0.0 | 0.00 | 3.45 | 0.74 | 96 | 1009.9 |
| 20260507173043 | 19 | 360 | 0.0 | 0.0 | 0.00 | 3.45 | 0.74 | 96 | 1009.9 |
| 20260507173015 | 18 | 360 | 0.0 | 0.0 | 0.00 | 3.45 | 0.71 | 96 | 1009.0 |
| 20260507172945 | 19 | 360 | 0.0 | 0.0 | 0.00 | 3.45 | 0.74 | 96 | 1009.9 |
| 20260507172905 | 19 | 360 | 0.0 | 0.0 | 0.00 | 3.45 | 0.74 | 96 | 1009.7 |
| 20260507172803 | 19 | 360 | 0.0 | 0.0 | 0.00 | 3.45 | 0.74 | 96 | 1009.7 |
| 20260507172642 | 19 | 360 | 0.0 | 0.0 | 0.00 | 3.45 | 0.74 | 96 | 1009.8 |
| 20260507172541 | 19 | 360 | 0.0 | 0.0 | 0.00 | 3.45 | 0.74 | 96 | 1009.9 |
| 20260507172441 | 19 | 360 | 0.0 | 0.0 | 0.00 | 3.45 | 0.74 | 96 | 1010.1 |
| 20260507172341 | 19 | 355 | 0.0 | 0.0 | 0.00 | 3.45 | 0.74 | 96 | 1010.1 |
| 20260507172244 | 19 | 355 | 0.0 | 0.0 | 0.00 | 3.45 | 0.74 | 96 | 1010.2 |
| 20260507172202 | 19 | 351 | 0.0 | 0.0 | 0.00 | 3.45 | 0.74 | 96 | 1010.3 |
| 20260507172040 | 19 | 351 | 0.0 | 0.0 | 0.00 | 3.45 | 0.74 | 96 | 1010.3 |
| 20260507171941 | 19 | 351 | 0.0 | 0.0 | 0.00 | 3.45 | 0.74 | 96 | 1010.3 |
| 20260507171840 | 19 | 351 | 0.0 | 0.0 | 0.00 | 3.58 | 0.74 | 96 | 1010.4 |
| 20260507171740 | 19 | 355 | 0.0 | 0.0 | 0.00 | 3.58 | 0.74 | 96 | 1010.4 |
| 20260507171639 | 19 | 355 | 0.0 | 0.0 | 0.00 | 3.58 | 0.74 | 96 | 1010.4 |
| 20260507171543 | 19 | 355 | 0.0 | 0.0 | 0.00 | 3.58 | 0.74 | 96 | 1010.3 |
| 20260507171509 | 19 | 355 | 0.0 | 0.0 | 0.00 | 3.58 | 0.71 | 96 | 1009.5 |
| 20260507171443 | 19 | 355 | 0.0 | 0.0 | 0.00 | 3.58 | 0.74 | 96 | 1010.3 |
| 20260507171341 | 19 | 355 | 0.0 | 0.0 | 0.00 | 3.58 | 0.74 | 96 | 1010.4 |
| 20260507171259 | 19 | 355 | 0.0 | 0.0 | 0.00 | 3.58 | 0.74 | 96 | 1010.5 |
| 20260507171157 | 19 | 355 | 0.0 | 0.0 | 0.00 | 3.58 | 0.74 | 96 | 1010.5 |
| 20260507171055 | 19 | 355 | 0.0 | 0.0 | 0.00 | 3.58 | 0.74 | 97 | 1010.5 |
| 20260507170954 | 19 | 355 | 0.0 | 0.0 | 0.00 | 3.58 | 0.74 | 96 | 1010.4 |
| 20260507170858 | 19 | 355 | 0.0 | 0.0 | 0.00 | 3.58 | 0.74 | 97 | 1010.4 |
| 20260507170817 | 19 | 355 | 0.0 | 0.0 | 0.00 | 3.58 | 0.74 | 97 | 1010.2 |
| 20260507170656 | 19 | 355 | 0.0 | 0.0 | 0.00 | 3.58 | 0.74 | 97 | 1010.2 |
| 20260507170556 | 19 | 355 | 0.0 | 0.0 | 0.00 | 3.58 | 0.74 | 97 | 1010.1 |
| 20260507170456 | 20 | 355 | 0.0 | 0.0 | 0.00 | 3.58 | 0.74 | 97 | 1010.1 |
| 20260507170356 | 20 | 355 | 0.0 | 0.0 | 0.00 | 3.58 | 0.74 | 97 | 1010.1 |
| 20260507170230 | 20 | 12 | 0.0 | 0.0 | 0.00 | 3.58 | 0.74 | 97 | 1010.1 |
| 20260507170026 | 19 | 12 | 0.0 | 0.0 | 0.00 | 3.58 | 0.71 | 97 | 1009.3 |
| 20260507165957 | 19 | 144 | 0.0 | 0.0 | 0.00 | 3.58 | 0.74 | 97 | 1010.1 |
| 20260507165855 | 19 | 144 | 0.0 | 0.0 | 0.00 | 3.58 | 0.74 | 97 | 1010.0 |
| 20260507165754 | 19 | 144 | 0.0 | 0.0 | 0.00 | 3.58 | 0.74 | 97 | 1010.0 |
| 20260507165654 | 19 | 144 | 0.0 | 0.0 | 0.00 | 3.58 | 0.74 | 97 | 1010.0 |
| 20260507165539 | 19 | 143 | 0.0 | 0.0 | 0.00 | 3.58 | 0.74 | 97 | 1009.9 |
| 20260507165459 | 19 | 143 | 0.0 | 0.0 | 0.00 | 3.58 | 0.74 | 97 | 1009.9 |
| 20260507165358 | 19 | 144 | 0.0 | 0.0 | 0.00 | 3.58 | 0.74 | 97 | 1010.0 |
| 20260507165258 | 19 | 144 | 0.0 | 0.0 | 0.00 | 3.58 | 0.74 | 97 | 1010.1 |
| 20260507165158 | 19 | 144 | 0.0 | 0.0 | 0.00 | 3.58 | 0.74 | 97 | 1010.1 |
| 20260507165057 | 19 | 144 | 0.0 | 0.0 | 0.00 | 3.58 | 0.74 | 97 | 1010.2 |
| 20260507164941 | 19 | 144 | 0.0 | 0.0 | 0.00 | 3.58 | 0.74 | 97 | 1010.1 |
| 20260507164840 | 19 | 144 | 0.0 | 0.0 | 0.00 | 3.58 | 0.74 | 97 | 1010.2 |
| 20260507164741 | 19 | 144 | 0.0 | 0.0 | 0.00 | 3.58 | 0.74 | 97 | 1010.2 |
| 20260507164700 | 19 | 144 | 0.0 | 0.0 | 0.00 | 3.58 | 0.74 | 97 | 1010.2 |
| 20260507164539 | 19 | 144 | 0.0 | 0.0 | 0.00 | 3.58 | 0.74 | 97 | 1010.2 |
| 20260507164511 | 18 | 144 | 0.0 | 0.0 | 0.00 | 3.58 | 0.71 | 97 | 1009.3 |
| 20260507164458 | 18 | 144 | 0.0 | 0.0 | 0.00 | 3.58 | 0.74 | 97 | 1010.2 |
| 20260507164358 | 18 | 144 | 0.0 | 0.0 | 0.00 | 3.58 | 0.74 | 97 | 1010.2 |
| 20260507164257 | 19 | 144 | 0.0 | 0.0 | 0.00 | 3.58 | 0.74 | 97 | 1010.1 |
| 20260507164158 | 19 | 145 | 0.0 | 0.0 | 0.00 | 3.58 | 0.74 | 97 | 1010.2 |
| 20260507164117 | 19 | 149 | 0.0 | 0.0 | 0.00 | 3.58 | 0.74 | 97 | 1010.3 |
| 20260507164015 | 19 | 150 | 0.0 | 0.0 | 0.00 | 3.58 | 0.74 | 97 | 1010.4 |
| 20260507163914 | 19 | 44 | 0.0 | 0.0 | 0.00 | 3.58 | 0.74 | 97 | 1010.5 |
| 20260507163753 | 19 | 44 | 0.0 | 0.0 | 0.00 | 3.58 | 0.74 | 97 | 1010.5 |
| 20260507163652 | 19 | 44 | 0.0 | 0.0 | 0.00 | 3.58 | 0.74 | 97 | 1010.6 |
| 20260507163612 | 19 | 44 | 0.0 | 0.0 | 0.00 | 3.58 | 0.74 | 97 | 1010.6 |
| 20260507163510 | 19 | 44 | 0.0 | 0.0 | 0.00 | 3.58 | 0.74 | 97 | 1010.6 |
| 20260507163349 | 19 | 32 | 0.0 | 0.0 | 0.00 | 3.58 | 0.74 | 97 | 1010.8 |
| 20260507163253 | 19 | 32 | 0.0 | 0.0 | 0.00 | 3.58 | 0.74 | 97 | 1010.8 |
| 20260507163153 | 19 | 33 | 0.0 | 0.0 | 0.00 | 3.58 | 0.74 | 97 | 1010.8 |
| 20260507163112 | 19 | 33 | 0.0 | 0.0 | 0.00 | 3.58 | 0.74 | 97 | 1010.8 |
| 20260507163024 | 18 | 34 | 0.0 | 0.0 | 0.00 | 3.58 | 0.71 | 97 | 1010.0 |
| 20260507162951 | 19 | 34 | 0.0 | 0.0 | 0.00 | 3.58 | 0.74 | 97 | 1010.9 |
| 20260507162851 | 19 | 33 | 0.0 | 0.0 | 0.00 | 3.58 | 0.74 | 97 | 1010.9 |
| 20260507162751 | 19 | 34 | 0.0 | 0.0 | 0.00 | 3.58 | 0.74 | 97 | 1010.9 |
| 20260507162651 | 19 | 156 | 0.0 | 0.0 | 0.00 | 3.58 | 0.74 | 97 | 1010.9 |
| 20260507162555 | 19 | 156 | 0.0 | 0.0 | 0.00 | 3.58 | 0.74 | 97 | 1010.9 |
| 20260507162514 | 19 | 224 | 0.0 | 0.0 | 0.00 | 3.58 | 0.74 | 97 | 1010.8 |
| 20260507162352 | 19 | 224 | 0.0 | 0.0 | 0.00 | 3.58 | 0.74 | 97 | 1010.9 |
| 20260507162250 | 19 | 224 | 0.0 | 0.0 | 0.00 | 3.58 | 0.74 | 97 | 1010.8 |
| 20260507162210 | 19 | 224 | 0.0 | 0.0 | 0.00 | 3.58 | 0.74 | 97 | 1010.7 |
| 20260507162048 | 19 | 224 | 0.0 | 0.0 | 0.00 | 3.58 | 0.74 | 97 | 1010.6 |
| 20260507161948 | 19 | 224 | 0.0 | 0.0 | 0.00 | 3.58 | 0.74 | 97 | 1010.5 |
| 20260507161847 | 19 | 224 | 0.0 | 0.0 | 0.00 | 3.58 | 0.74 | 97 | 1010.5 |
| 20260507161750 | 19 | 224 | 0.0 | 0.0 | 0.00 | 3.58 | 0.74 | 97 | 1010.4 |
| 20260507161709 | 19 | 224 | 0.0 | 0.0 | 0.00 | 3.58 | 0.74 | 97 | 1010.4 |
| 20260507161547 | 19 | 224 | 0.0 | 0.0 | 0.00 | 3.58 | 0.74 | 97 | 1010.3 |
| 20260507161513 | 18 | 224 | 0.0 | 0.0 | 0.03 | 3.58 | 0.71 | 97 | 1009.5 |
| 20260507161447 | 19 | 224 | 0.0 | 0.0 | 0.03 | 3.58 | 0.74 | 97 | 1010.3 |
| 20260507161347 | 19 | 224 | 0.0 | 0.0 | 0.03 | 3.58 | 0.74 | 97 | 1010.2 |
| 20260507161246 | 19 | 224 | 0.0 | 0.0 | 0.03 | 3.58 | 0.74 | 97 | 1010.1 |
| 20260507161146 | 19 | 224 | 0.0 | 0.0 | 0.03 | 3.58 | 0.74 | 97 | 1010.0 |
| 20260507161110 | 19 | 224 | 0.0 | 0.0 | 0.03 | 3.58 | 0.74 | 97 | 1009.9 |
| 20260507160655 | 19 | 225 | 0.0 | 0.0 | 0.03 | 3.58 | 0.74 | 97 | 1010.1 |
| 20260507160555 | 19 | 162 | 0.0 | 0.0 | 0.03 | 3.58 | 0.74 | 97 | 1010.0 |
| 20260507160515 | 19 | 323 | 0.0 | 0.0 | 0.03 | 3.58 | 0.74 | 97 | 1010.1 |
| 20260507160353 | 18 | 322 | 0.0 | 0.0 | 0.03 | 3.58 | 0.74 | 97 | 1010.0 |
| 20260507160256 | 18 | 322 | 0.0 | 0.0 | 0.03 | 3.58 | 0.74 | 97 | 1010.0 |
| 20260507160227 | 18 | 322 | 0.0 | 0.0 | 0.03 | 3.58 | 0.74 | 97 | 1010.0 |
| 20260507160037 | 18 | 322 | 0.0 | 0.0 | 0.03 | 3.58 | 0.71 | 97 | 1009.0 |
| 20260507155954 | 18 | 322 | 0.0 | 0.0 | 0.03 | 3.58 | 0.74 | 97 | 1009.9 |
| 20260507155853 | 18 | 322 | 0.0 | 0.0 | 0.05 | 3.58 | 0.74 | 97 | 1009.9 |
| 20260507155752 | 18 | 322 | 0.0 | 0.0 | 0.05 | 3.58 | 0.74 | 97 | 1009.9 |
| 20260507155651 | 18 | 322 | 0.0 | 0.0 | 0.05 | 3.58 | 0.74 | 97 | 1009.8 |
| 20260507155554 | 18 | 322 | 0.0 | 0.0 | 0.05 | 3.58 | 0.74 | 97 | 1009.7 |
| 20260507155454 | 18 | 322 | 0.0 | 0.0 | 0.05 | 3.58 | 0.74 | 97 | 1009.6 |
| 20260507155353 | 18 | 322 | 0.0 | 0.0 | 0.05 | 3.58 | 0.74 | 97 | 1009.5 |
| 20260507155252 | 18 | 322 | 0.0 | 0.0 | 0.05 | 3.58 | 0.74 | 97 | 1009.5 |
| 20260507155151 | 18 | 322 | 0.0 | 0.0 | 0.05 | 3.58 | 0.74 | 97 | 1009.4 |
| 20260507155052 | 18 | 322 | 0.0 | 0.0 | 0.05 | 3.58 | 0.74 | 97 | 1009.4 |
| 20260507155011 | 18 | 322 | 0.0 | 0.0 | 0.05 | 3.58 | 0.74 | 97 | 1009.3 |
| 20260507154853 | 18 | 322 | 0.0 | 0.0 | 0.05 | 3.58 | 0.74 | 97 | 1009.2 |
| 20260507154752 | 18 | 322 | 0.0 | 0.0 | 0.05 | 3.58 | 0.74 | 97 | 1009.2 |
| 20260507154653 | 18 | 322 | 0.0 | 0.0 | 0.05 | 3.58 | 0.74 | 97 | 1009.2 |
| 20260507154614 | 18 | 323 | 0.0 | 0.0 | 0.05 | 3.58 | 0.74 | 97 | 1009.2 |
| 20260507154541 | 18 | 323 | 0.0 | 0.0 | 0.05 | 3.58 | 0.71 | 97 | 1008.5 |
| 20260507154454 | 18 | 323 | 0.0 | 0.0 | 0.05 | 3.58 | 0.74 | 97 | 1009.3 |
| 20260507154415 | 18 | 323 | 0.0 | 0.0 | 0.05 | 3.58 | 0.74 | 97 | 1009.4 |
| 20260507154255 | 18 | 321 | 0.0 | 0.0 | 0.05 | 3.58 | 0.74 | 97 | 1009.4 |
| 20260507154140 | 18 | 317 | 0.0 | 0.0 | 0.05 | 3.58 | 0.74 | 97 | 1009.4 |
| 20260507154040 | 18 | 312 | 0.0 | 0.0 | 0.08 | 3.58 | 0.74 | 97 | 1009.4 |
| 20260507153940 | 18 | 19 | 0.0 | 0.0 | 0.08 | 3.58 | 0.74 | 97 | 1009.4 |
| 20260507153840 | 18 | 19 | 0.0 | 0.0 | 0.08 | 3.58 | 0.74 | 97 | 1009.5 |
| 20260507153740 | 18 | 19 | 0.0 | 0.0 | 0.08 | 3.58 | 0.74 | 97 | 1009.5 |
| 20260507153640 | 18 | 19 | 0.0 | 0.0 | 0.08 | 3.58 | 0.74 | 97 | 1009.7 |
| 20260507153601 | 18 | 19 | 0.0 | 0.0 | 0.08 | 3.58 | 0.74 | 97 | 1009.8 |
| 20260507153443 | 18 | 19 | 0.0 | 0.0 | 0.08 | 3.58 | 0.74 | 97 | 1009.8 |
| 20260507153343 | 18 | 19 | 0.0 | 0.0 | 0.08 | 3.58 | 0.74 | 97 | 1009.9 |
| 20260507153244 | 18 | 19 | 0.0 | 0.0 | 0.08 | 3.58 | 0.74 | 97 | 1009.9 |
| 20260507153144 | 18 | 19 | 0.0 | 0.0 | 0.08 | 3.58 | 0.74 | 97 | 1009.9 |
| 20260507153044 | 18 | 19 | 0.0 | 0.0 | 0.08 | 3.58 | 0.74 | 97 | 1009.9 |
| 20260507153006 | 18 | 19 | 0.0 | 0.0 | 0.08 | 3.58 | 0.71 | 97 | 1009.0 |
| 20260507152944 | 18 | 19 | 0.0 | 0.0 | 0.08 | 3.58 | 0.74 | 97 | 1009.9 |
| 20260507152843 | 18 | 19 | 0.0 | 0.0 | 0.08 | 3.58 | 0.74 | 97 | 1009.8 |
| 20260507152748 | 18 | 19 | 0.0 | 0.0 | 0.08 | 3.58 | 0.74 | 97 | 1009.9 |
| 20260507152647 | 18 | 19 | 0.0 | 0.0 | 0.08 | 3.58 | 0.74 | 97 | 1010.0 |
| 20260507152608 | 18 | 19 | 0.0 | 0.0 | 0.08 | 3.58 | 0.74 | 97 | 1010.1 |
| 20260507152447 | 18 | 19 | 0.0 | 0.0 | 0.08 | 3.58 | 0.74 | 97 | 1010.1 |
| 20260507152347 | 18 | 19 | 0.0 | 0.0 | 0.08 | 3.58 | 0.74 | 97 | 1010.2 |
| 20260507152248 | 18 | 19 | 0.0 | 0.0 | 0.08 | 3.58 | 0.74 | 97 | 1010.2 |
| 20260507152149 | 18 | 19 | 0.0 | 0.0 | 0.08 | 3.58 | 0.74 | 97 | 1010.2 |
| 20260507152053 | 18 | 19 | 0.0 | 0.0 | 0.08 | 3.58 | 0.74 | 97 | 1010.2 |
| 20260507151953 | 18 | 19 | 0.0 | 0.0 | 0.08 | 3.58 | 0.74 | 97 | 1010.3 |
| 20260507151912 | 18 | 19 | 0.0 | 0.0 | 0.08 | 3.58 | 0.74 | 97 | 1010.4 |
| 20260507151753 | 18 | 19 | 0.0 | 0.0 | 0.08 | 3.58 | 0.74 | 97 | 1010.5 |
| 20260507151712 | 18 | 19 | 0.0 | 0.0 | 0.08 | 3.58 | 0.74 | 97 | 1010.6 |
| 20260507151610 | 18 | 19 | 0.0 | 0.0 | 0.08 | 3.58 | 0.74 | 97 | 1010.6 |
| 20260507151517 | 18 | 19 | 0.0 | 0.0 | 0.08 | 3.58 | 0.71 | 97 | 1009.8 |
| 20260507151449 | 18 | 19 | 0.0 | 0.0 | 0.08 | 3.58 | 0.74 | 97 | 1010.6 |
| 20260507151410 | 18 | 18 | 0.0 | 0.0 | 0.05 | 3.56 | 0.71 | 97 | 1010.7 |
| 20260507151310 | 18 | 18 | 0.0 | 0.0 | 0.05 | 3.56 | 0.71 | 97 | 1010.7 |
| 20260507151154 | 18 | 18 | 0.0 | 0.0 | 0.05 | 3.56 | 0.71 | 97 | 1010.8 |
| 20260507151055 | 18 | 18 | 0.0 | 0.0 | 0.05 | 3.56 | 0.71 | 97 | 1010.8 |
| 20260507150955 | 18 | 18 | 0.0 | 0.0 | 0.05 | 3.56 | 0.71 | 97 | 1010.9 |
| 20260507150856 | 18 | 18 | 0.0 | 0.0 | 0.05 | 3.56 | 0.71 | 97 | 1010.9 |
| 20260507150817 | 18 | 18 | 0.0 | 0.0 | 0.05 | 3.56 | 0.71 | 97 | 1011.0 |
| 20260507150654 | 18 | 18 | 0.0 | 0.0 | 0.05 | 3.56 | 0.71 | 97 | 1011.0 |
| 20260507150555 | 18 | 18 | 0.0 | 0.0 | 0.05 | 3.56 | 0.71 | 97 | 1011.0 |
| 20260507150452 | 18 | 18 | 0.0 | 0.0 | 0.05 | 3.56 | 0.71 | 97 | 1011.1 |
| 20260507150356 | 18 | 18 | 0.0 | 0.0 | 0.05 | 3.56 | 0.71 | 97 | 1011.2 |
| 20260507150300 | 18 | 18 | 0.0 | 0.0 | 0.05 | 3.56 | 0.71 | 97 | 1011.1 |
| 20260507150227 | 18 | 18 | 0.0 | 0.0 | 0.05 | 3.56 | 0.71 | 97 | 1011.1 |
| 20260507150030 | 18 | 18 | 0.0 | 0.0 | 0.05 | 3.56 | 0.71 | 97 | 1010.4 |
| 20260507145955 | 18 | 28 | 0.0 | 0.0 | 0.05 | 3.56 | 0.71 | 97 | 1011.2 |
| 20260507145915 | 18 | 175 | 0.0 | 0.0 | 0.03 | 3.53 | 0.69 | 97 | 1011.2 |
| 20260507145814 | 18 | 123 | 0.0 | 0.0 | 0.03 | 3.53 | 0.69 | 97 | 1011.3 |
| 20260507145658 | 18 | 192 | 0.0 | 0.0 | 0.03 | 3.53 | 0.69 | 97 | 1011.2 |
| 20260507145540 | 18 | 167 | 0.0 | 0.0 | 0.03 | 3.53 | 0.69 | 97 | 1011.3 |
| 20260507145441 | 18 | 167 | 0.0 | 0.0 | 0.03 | 3.53 | 0.69 | 97 | 1011.3 |
| 20260507145401 | 18 | 167 | 0.0 | 0.0 | 0.03 | 3.53 | 0.69 | 97 | 1011.3 |
| 20260507145241 | 18 | 167 | 0.0 | 0.0 | 0.03 | 3.53 | 0.69 | 97 | 1011.4 |
| 20260507145202 | 18 | 169 | 0.0 | 0.0 | 0.03 | 3.53 | 0.69 | 97 | 1011.4 |
| 20260507145102 | 18 | 167 | 0.0 | 0.0 | 0.03 | 3.53 | 0.69 | 97 | 1011.5 |
| 20260507145003 | 18 | 167 | 0.0 | 0.0 | 0.03 | 3.53 | 0.69 | 97 | 1011.5 |
| 20260507144846 | 18 | 167 | 0.0 | 0.0 | 0.03 | 3.53 | 0.69 | 97 | 1011.5 |
| 20260507144747 | 18 | 167 | 0.0 | 0.0 | 0.03 | 3.53 | 0.69 | 97 | 1011.5 |
| 20260507144708 | 18 | 167 | 0.0 | 0.0 | 0.03 | 3.53 | 0.69 | 97 | 1011.4 |
| 20260507144548 | 18 | 167 | 0.0 | 0.0 | 0.03 | 3.53 | 0.69 | 97 | 1011.5 |
| 20260507144504 | 18 | 167 | 0.0 | 0.0 | 0.05 | 3.53 | 0.69 | 97 | 1010.6 |
| 20260507144449 | 18 | 167 | 0.0 | 0.0 | 0.05 | 3.53 | 0.69 | 97 | 1011.4 |
| 20260507144350 | 18 | 167 | 0.0 | 0.0 | 0.05 | 3.53 | 0.69 | 97 | 1011.6 |
| 20260507144311 | 18 | 167 | 0.0 | 0.0 | 0.05 | 3.53 | 0.69 | 97 | 1011.6 |
| 20260507144154 | 18 | 167 | 0.0 | 0.0 | 0.05 | 3.53 | 0.69 | 97 | 1011.7 |
| 20260507144054 | 18 | 167 | 0.0 | 0.0 | 0.03 | 3.51 | 0.66 | 97 | 1011.6 |
| 20260507144016 | 18 | 15 | 0.0 | 0.0 | 0.03 | 3.51 | 0.66 | 97 | 1011.6 |
| 20260507143856 | 18 | 105 | 0.0 | 0.0 | 0.03 | 3.51 | 0.66 | 97 | 1011.6 |
| 20260507143817 | 18 | 221 | 0.0 | 0.0 | 0.03 | 3.51 | 0.66 | 97 | 1011.6 |
| 20260507143657 | 18 | 92 | 0.0 | 0.0 | 0.03 | 3.51 | 0.66 | 97 | 1011.5 |
| 20260507143558 | 18 | 146 | 0.0 | 0.0 | 0.03 | 3.51 | 0.66 | 97 | 1011.5 |
| 20260507143441 | 18 | 146 | 0.0 | 0.0 | 0.03 | 3.51 | 0.66 | 97 | 1011.4 |
| 20260507143341 | 18 | 146 | 0.0 | 0.0 | 0.03 | 3.51 | 0.66 | 97 | 1011.4 |
| 20260507143302 | 18 | 146 | 0.0 | 0.0 | 0.03 | 3.51 | 0.66 | 97 | 1011.3 |
| 20260507143141 | 18 | 146 | 0.0 | 0.0 | 0.03 | 3.51 | 0.66 | 97 | 1011.2 |
| 20260507143041 | 18 | 145 | 0.0 | 0.0 | 0.03 | 3.51 | 0.66 | 97 | 1011.2 |
| 20260507143020 | 18 | 145 | 0.0 | 0.0 | 0.03 | 3.51 | 0.66 | 97 | 1010.4 |
| 20260507142940 | 18 | 189 | 0.0 | 0.0 | 0.03 | 3.51 | 0.66 | 97 | 1011.1 |
| 20260507142841 | 18 | 189 | 0.0 | 0.0 | 0.03 | 3.51 | 0.66 | 97 | 1011.2 |
| 20260507142741 | 18 | 189 | 0.0 | 0.0 | 0.03 | 3.51 | 0.66 | 97 | 1011.1 |
| 20260507142646 | 18 | 190 | 0.0 | 0.0 | 0.03 | 3.51 | 0.66 | 97 | 1011.2 |
| 20260507142546 | 18 | 190 | 0.0 | 0.0 | 0.03 | 3.51 | 0.66 | 97 | 1011.2 |
| 20260507142445 | 18 | 190 | 0.0 | 0.0 | 0.03 | 3.51 | 0.66 | 97 | 1011.1 |
| 20260507142346 | 18 | 188 | 0.0 | 0.0 | 0.03 | 3.51 | 0.66 | 97 | 1011.0 |
| 20260507142248 | 18 | 188 | 0.0 | 0.0 | 0.03 | 3.51 | 0.66 | 97 | 1011.0 |
| 20260507142149 | 18 | 188 | 0.0 | 0.0 | 0.03 | 3.51 | 0.66 | 97 | 1011.0 |
| 20260507142050 | 18 | 188 | 0.0 | 0.0 | 0.03 | 3.51 | 0.66 | 97 | 1010.9 |
| 20260507141952 | 18 | 188 | 0.0 | 0.0 | 0.03 | 3.51 | 0.66 | 97 | 1010.9 |
| 20260507141853 | 18 | 188 | 0.0 | 0.0 | 0.03 | 3.51 | 0.66 | 97 | 1010.8 |
| 20260507141754 | 18 | 188 | 0.0 | 0.0 | 0.03 | 3.51 | 0.66 | 97 | 1010.7 |
| 20260507141714 | 18 | 188 | 0.0 | 0.0 | 0.03 | 3.51 | 0.66 | 97 | 1010.6 |
| 20260507141554 | 18 | 188 | 0.0 | 0.0 | 0.03 | 3.51 | 0.66 | 97 | 1010.7 |
| 20260507141536 | 18 | 188 | 0.0 | 0.0 | 0.03 | 3.51 | 0.66 | 97 | 1009.9 |
| 20260507141515 | 18 | 188 | 0.0 | 0.0 | 0.03 | 3.51 | 0.66 | 97 | 1010.7 |
| 20260507141354 | 18 | 188 | 0.0 | 0.0 | 0.03 | 3.51 | 0.66 | 97 | 1010.8 |
| 20260507141259 | 18 | 188 | 0.0 | 0.0 | 0.03 | 3.51 | 0.66 | 97 | 1010.9 |
| 20260507141139 | 18 | 188 | 0.0 | 0.0 | 0.03 | 3.51 | 0.66 | 97 | 1010.9 |
| 20260507141041 | 18 | 188 | 0.0 | 0.0 | 0.03 | 3.51 | 0.66 | 97 | 1010.8 |
| 20260507140942 | 18 | 188 | 0.0 | 0.0 | 0.03 | 3.51 | 0.66 | 97 | 1010.8 |
| 20260507140843 | 18 | 189 | 0.0 | 0.0 | 0.03 | 3.51 | 0.66 | 97 | 1010.8 |
| 20260507140745 | 18 | 189 | 0.0 | 0.0 | 0.03 | 3.51 | 0.66 | 97 | 1010.8 |
| 20260507140650 | 18 | 189 | 0.0 | 0.0 | 0.03 | 3.51 | 0.66 | 97 | 1010.9 |
| 20260507140551 | 18 | 189 | 0.0 | 0.0 | 0.03 | 3.51 | 0.66 | 97 | 1010.8 |
| 20260507140451 | 18 | 189 | 0.0 | 0.0 | 0.03 | 3.51 | 0.66 | 97 | 1010.8 |
| 20260507140352 | 18 | 189 | 0.0 | 0.0 | 0.03 | 3.51 | 0.66 | 97 | 1010.8 |
| 20260507140253 | 18 | 188 | 0.0 | 0.0 | 0.03 | 3.51 | 0.66 | 97 | 1010.7 |
| 20260507140224 | 18 | 215 | 0.0 | 0.0 | 0.03 | 3.51 | 0.66 | 97 | 1010.6 |
| 20260507135951 | 18 | 214 | 0.0 | 0.0 | 0.03 | 3.51 | 0.66 | 97 | 1010.6 |
| 20260507135852 | 18 | 214 | 0.0 | 0.0 | 0.03 | 3.51 | 0.66 | 97 | 1010.6 |
| 20260507135749 | 18 | 195 | 0.0 | 0.0 | 0.03 | 3.51 | 0.66 | 97 | 1010.6 |
| 20260507135650 | 18 | 195 | 0.0 | 0.0 | 0.05 | 3.51 | 0.66 | 97 | 1010.6 |
| 20260507135551 | 18 | 195 | 0.0 | 0.0 | 0.05 | 3.51 | 0.66 | 97 | 1010.6 |
| 20260507135452 | 18 | 159 | 0.0 | 0.0 | 0.05 | 3.51 | 0.66 | 97 | 1010.5 |
| 20260507135358 | 18 | 159 | 0.0 | 0.0 | 0.05 | 3.51 | 0.66 | 97 | 1010.6 |
| 20260507135258 | 18 | 101 | 0.0 | 0.0 | 0.05 | 3.51 | 0.66 | 97 | 1010.7 |
| 20260507135200 | 18 | 98 | 0.0 | 0.0 | 0.05 | 3.51 | 0.66 | 97 | 1010.7 |
| 20260507135059 | 18 | 98 | 0.0 | 0.0 | 0.05 | 3.51 | 0.66 | 97 | 1010.7 |
| 20260507135019 | 18 | 292 | 0.0 | 0.0 | 0.05 | 3.51 | 0.66 | 97 | 1010.7 |
| 20260507134855 | 18 | 327 | 0.0 | 0.0 | 0.05 | 3.51 | 0.66 | 97 | 1010.7 |
| 20260507134756 | 18 | 327 | 0.0 | 0.0 | 0.05 | 3.51 | 0.66 | 97 | 1010.7 |
| 20260507134641 | 18 | 327 | 0.0 | 0.0 | 0.08 | 3.51 | 0.66 | 97 | 1010.7 |
| 20260507134600 | 18 | 327 | 0.0 | 0.0 | 0.05 | 3.48 | 0.64 | 97 | 1009.9 |
| 20260507134542 | 18 | 327 | 0.0 | 0.0 | 0.05 | 3.48 | 0.64 | 97 | 1010.7 |
| 20260507134501 | 18 | 329 | 0.0 | 0.0 | 0.05 | 3.48 | 0.64 | 97 | 1010.7 |
| 20260507134342 | 18 | 329 | 0.0 | 0.0 | 0.08 | 3.48 | 0.64 | 97 | 1010.8 |
| 20260507134243 | 18 | 329 | 0.0 | 0.0 | 0.08 | 3.48 | 0.64 | 97 | 1010.8 |
| 20260507134144 | 18 | 329 | 0.0 | 0.0 | 0.08 | 3.48 | 0.64 | 97 | 1010.9 |
| 20260507134045 | 18 | 329 | 0.0 | 0.0 | 0.10 | 3.48 | 0.64 | 97 | 1010.9 |
| 20260507134004 | 18 | 329 | 0.0 | 0.0 | 0.10 | 3.48 | 0.64 | 97 | 1010.9 |
| 20260507133847 | 18 | 329 | 0.0 | 0.0 | 0.13 | 3.48 | 0.64 | 97 | 1010.9 |
| 20260507133808 | 18 | 329 | 0.0 | 0.0 | 0.13 | 3.48 | 0.64 | 97 | 1011.0 |
| 20260507133648 | 18 | 329 | 0.0 | 0.0 | 0.13 | 3.48 | 0.64 | 97 | 1011.1 |
| 20260507133549 | 18 | 329 | 0.0 | 0.0 | 0.15 | 3.48 | 0.64 | 97 | 1011.1 |
| 20260507133509 | 18 | 329 | 0.0 | 0.0 | 0.15 | 3.48 | 0.64 | 97 | 1011.2 |
| 20260507133349 | 18 | 329 | 0.0 | 0.0 | 0.18 | 3.48 | 0.64 | 97 | 1011.2 |
| 20260507133250 | 18 | 329 | 0.0 | 0.0 | 0.18 | 3.48 | 0.64 | 97 | 1011.3 |
| 20260507133154 | 18 | 329 | 0.0 | 0.0 | 0.18 | 3.48 | 0.64 | 97 | 1011.3 |
| 20260507133115 | 18 | 329 | 0.0 | 0.0 | 0.20 | 3.48 | 0.64 | 97 | 1011.2 |
| 20260507133042 | 18 | 329 | 0.0 | 0.0 | 0.20 | 3.48 | 0.64 | 97 | 1010.5 |
| 20260507133014 | 18 | 329 | 0.0 | 0.0 | 0.20 | 3.48 | 0.64 | 97 | 1011.2 |
| 20260507132853 | 18 | 329 | 0.0 | 0.0 | 0.23 | 3.48 | 0.64 | 97 | 1011.1 |
| 20260507132754 | 18 | 329 | 0.0 | 0.0 | 0.23 | 3.48 | 0.64 | 97 | 1011.0 |
| 20260507132655 | 18 | 329 | 0.0 | 0.0 | 0.25 | 3.48 | 0.64 | 97 | 1011.0 |
| 20260507132556 | 18 | 329 | 0.0 | 0.0 | 0.28 | 3.48 | 0.64 | 97 | 1011.0 |
| 20260507132439 | 18 | 329 | 0.0 | 0.0 | 0.28 | 3.48 | 0.64 | 97 | 1010.9 |
| 20260507132341 | 18 | 329 | 0.0 | 0.0 | 0.30 | 3.48 | 0.64 | 97 | 1010.9 |
| 20260507132242 | 18 | 329 | 0.0 | 0.0 | 0.30 | 3.48 | 0.64 | 97 | 1010.9 |
| 20260507132143 | 18 | 329 | 0.0 | 0.0 | 0.30 | 3.48 | 0.64 | 97 | 1010.9 |
| 20260507132044 | 18 | 329 | 0.0 | 0.0 | 0.30 | 3.48 | 0.64 | 97 | 1010.9 |
| 20260507131945 | 18 | 329 | 0.0 | 0.0 | 0.33 | 3.48 | 0.64 | 97 | 1010.9 |
| 20260507131906 | 18 | 329 | 0.0 | 0.0 | 0.33 | 3.48 | 0.64 | 97 | 1010.9 |
| 20260507131748 | 18 | 329 | 0.0 | 0.0 | 0.33 | 3.48 | 0.64 | 97 | 1010.9 |
| 20260507131649 | 18 | 329 | 0.0 | 0.0 | 0.33 | 3.48 | 0.64 | 97 | 1010.9 |
| 20260507131609 | 18 | 329 | 0.0 | 0.0 | 0.36 | 3.48 | 0.64 | 97 | 1010.9 |
| 20260507131542 | 17 | 329 | 0.0 | 0.0 | 0.36 | 3.48 | 0.64 | 97 | 1010.2 |
| 20260507131448 | 18 | 329 | 0.0 | 0.0 | 0.36 | 3.48 | 0.64 | 97 | 1010.9 |
| 20260507131349 | 18 | 329 | 0.0 | 0.0 | 0.36 | 3.48 | 0.64 | 97 | 1010.9 |
| 20260507131309 | 18 | 329 | 0.0 | 0.0 | 0.36 | 3.48 | 0.64 | 97 | 1011.0 |
| 20260507131147 | 18 | 329 | 0.0 | 0.0 | 0.36 | 3.48 | 0.64 | 97 | 1010.9 |
| 20260507131048 | 18 | 329 | 0.0 | 0.0 | 0.36 | 3.48 | 0.64 | 97 | 1010.9 |
| 20260507130953 | 18 | 329 | 0.0 | 0.0 | 0.36 | 3.48 | 0.64 | 97 | 1011.0 |
| 20260507130914 | 18 | 329 | 0.0 | 0.0 | 0.38 | 3.48 | 0.64 | 97 | 1011.0 |
| 20260507130754 | 18 | 329 | 0.0 | 0.0 | 0.38 | 3.48 | 0.64 | 97 | 1011.0 |
| 20260507130714 | 18 | 329 | 0.0 | 0.0 | 0.38 | 3.48 | 0.64 | 97 | 1011.0 |
| 20260507130554 | 18 | 329 | 0.0 | 0.0 | 0.38 | 3.48 | 0.64 | 97 | 1011.1 |
| 20260507130455 | 18 | 329 | 0.0 | 0.0 | 0.38 | 3.48 | 0.64 | 97 | 1011.1 |
| 20260507130415 | 18 | 329 | 0.0 | 0.0 | 0.38 | 3.48 | 0.64 | 97 | 1011.1 |
| 20260507130230 | 18 | 329 | 0.0 | 0.0 | 0.38 | 3.48 | 0.64 | 97 | 1011.1 |
| 20260507130016 | 17 | 329 | 0.0 | 0.0 | 0.38 | 3.48 | 0.64 | 97 | 1010.5 |
| 20260507125957 | 18 | 329 | 0.0 | 0.0 | 0.38 | 3.48 | 0.64 | 97 | 1011.3 |